[[{"header":{"parameterUnit":"m.s-1","parameterCategory":1,"la1":30.6,"la2":29.2853,"lo1":-89.7004,"lo2":-87.6739,"dy":0.0162,"dx":0.0183,"nx":112,"ny":82,"refTime":"2024-02-22T18:00:00:Z","depth":0,"parameterNumber":2,"parameterNumberName":"U-component_of_WINDS"},"data":[0.0,0.0,0.0,0.0,0.0,0.0,0.0,0.0,0.0,0.0,0.0,0.0,0.0,0.0,0.0,0.0,0.0,0.0,0.0,0.0,0.0,0.0,0.0,0.0,0.0,0.0,0.0,0.0,0.0,0.0,0.0,0.0,0.0,0.0,0.0,0.0,0.0,0.0,0.0,0.0,0.0,0.0,0.0,0.0,0.0,0.0,0.0,0.0,0.0,0.0,0.0,0.0,0.0,0.0,0.0,0.0,0.0,0.0,0.0,0.0,0.0,0.0,0.0,0.0,0.0,0.0,0.0,0.0,0.0,0.0,0.0,0.0,0.0,0.0,0.0,0.0,0.0,0.0,0.0,0.0,0.0,0.0,0.0,0.0,0.0,0.0,0.0,0.0,0.0,0.0,-8.0078,-7.9014,-7.9049,-7.9157,-7.9157,-7.9339,-7.9505,-7.9661,0.0,0.0,0.0,0.0,0.0,0.0,0.0,0.0,0.0,0.0,0.0,0.0,0.0,0.0,0.0,0.0,0.0,0.0,0.0,0.0,0.0,0.0,0.0,0.0,0.0,0.0,0.0,0.0,0.0,0.0,0.0,0.0,0.0,0.0,0.0,0.0,0.0,0.0,0.0,0.0,0.0,0.0,0.0,0.0,0.0,0.0,0.0,0.0,0.0,0.0,0.0,0.0,0.0,0.0,0.0,0.0,0.0,0.0,0.0,0.0,0.0,0.0,0.0,0.0,0.0,0.0,0.0,0.0,0.0,0.0,0.0,0.0,0.0,0.0,0.0,0.0,0.0,0.0,0.0,0.0,0.0,0.0,0.0,0.0,0.0,0.0,0.0,0.0,0.0,0.0,0.0,0.0,0.0,0.0,0.0,0.0,0.0,0.0,0.0,0.0,0.0,0.0,0.0,0.0,-7.9176,-7.8112,-7.8004,-7.806,-7.806,-7.8241,-7.8665,-7.9405,0.0,0.0,0.0,0.0,0.0,0.0,0.0,0.0,0.0,0.0,0.0,0.0,0.0,0.0,0.0,0.0,0.0,0.0,0.0,0.0,0.0,0.0,0.0,0.0,0.0,0.0,0.0,0.0,0.0,0.0,0.0,0.0,0.0,0.0,0.0,0.0,0.0,0.0,0.0,0.0,0.0,0.0,0.0,0.0,0.0,0.0,0.0,0.0,0.0,0.0,0.0,0.0,0.0,0.0,0.0,0.0,0.0,0.0,0.0,0.0,0.0,0.0,0.0,0.0,0.0,0.0,0.0,0.0,0.0,0.0,0.0,0.0,0.0,0.0,0.0,0.0,0.0,0.0,0.0,0.0,0.0,0.0,0.0,0.0,0.0,0.0,0.0,0.0,0.0,0.0,0.0,0.0,0.0,0.0,0.0,0.0,0.0,0.0,0.0,0.0,0.0,0.0,0.0,-7.769,-7.7351,-7.6888,-7.6914,-7.6989,-7.6989,-7.7179,-7.7506,-7.7967,-7.8886,0.0,0.0,0.0,0.0,0.0,0.0,0.0,0.0,0.0,0.0,0.0,0.0,0.0,0.0,0.0,0.0,0.0,0.0,0.0,0.0,0.0,0.0,0.0,0.0,0.0,0.0,0.0,0.0,0.0,0.0,0.0,0.0,0.0,0.0,0.0,0.0,0.0,0.0,0.0,0.0,0.0,0.0,0.0,0.0,0.0,0.0,0.0,0.0,0.0,0.0,0.0,0.0,0.0,0.0,0.0,0.0,0.0,0.0,0.0,0.0,0.0,0.0,0.0,0.0,0.0,0.0,0.0,0.0,0.0,0.0,0.0,0.0,0.0,0.0,0.0,0.0,0.0,0.0,0.0,0.0,0.0,0.0,0.0,0.0,0.0,0.0,0.0,0.0,0.0,0.0,0.0,0.0,0.0,0.0,0.0,0.0,0.0,0.0,0.0,0.0,0.0,0.0,-7.661,-7.6015,-7.6015,-7.6147,-7.6236,-7.6236,-7.6426,-7.657,-7.6699,-7.7397,0.0,0.0,0.0,0.0,0.0,0.0,0.0,0.0,0.0,0.0,0.0,0.0,0.0,0.0,0.0,0.0,0.0,0.0,0.0,0.0,0.0,0.0,0.0,0.0,0.0,0.0,0.0,0.0,0.0,0.0,0.0,0.0,0.0,0.0,0.0,0.0,0.0,0.0,0.0,0.0,0.0,0.0,0.0,0.0,0.0,0.0,0.0,0.0,0.0,0.0,0.0,0.0,0.0,0.0,0.0,0.0,0.0,0.0,0.0,0.0,0.0,0.0,0.0,0.0,0.0,0.0,0.0,0.0,0.0,0.0,0.0,0.0,0.0,0.0,0.0,0.0,0.0,0.0,0.0,0.0,0.0,0.0,0.0,0.0,0.0,0.0,0.0,0.0,0.0,0.0,0.0,0.0,0.0,0.0,0.0,0.0,0.0,0.0,0.0,0.0,0.0,0.0,-7.6172,-7.6015,-7.6015,-7.5991,-7.6005,-7.6005,-7.6199,-7.6316,-7.6339,-7.6692,0.0,0.0,0.0,0.0,0.0,0.0,0.0,0.0,0.0,0.0,0.0,0.0,0.0,0.0,0.0,0.0,0.0,0.0,0.0,0.0,0.0,0.0,0.0,0.0,0.0,0.0,0.0,0.0,0.0,0.0,0.0,0.0,0.0,0.0,0.0,0.0,0.0,0.0,0.0,0.0,0.0,0.0,0.0,0.0,0.0,0.0,0.0,0.0,0.0,0.0,0.0,0.0,0.0,0.0,0.0,0.0,0.0,0.0,0.0,0.0,0.0,0.0,0.0,0.0,0.0,0.0,0.0,0.0,0.0,0.0,0.0,0.0,0.0,0.0,0.0,0.0,0.0,0.0,0.0,0.0,0.0,0.0,0.0,0.0,0.0,0.0,0.0,0.0,0.0,0.0,0.0,0.0,0.0,0.0,0.0,0.0,0.0,0.0,0.0,0.0,0.0,0.0,-7.612,-7.6015,-7.6015,-7.6015,-7.6015,-7.6015,-7.6076,-7.6186,-7.627,0.0,0.0,0.0,0.0,0.0,0.0,0.0,0.0,0.0,0.0,0.0,0.0,0.0,0.0,0.0,0.0,0.0,0.0,0.0,0.0,0.0,0.0,0.0,0.0,0.0,0.0,0.0,0.0,0.0,0.0,0.0,0.0,0.0,0.0,0.0,0.0,0.0,0.0,0.0,0.0,0.0,0.0,0.0,0.0,0.0,0.0,0.0,0.0,0.0,0.0,0.0,0.0,0.0,0.0,0.0,0.0,0.0,0.0,0.0,0.0,0.0,0.0,0.0,0.0,0.0,0.0,0.0,0.0,0.0,0.0,0.0,0.0,0.0,0.0,0.0,0.0,0.0,0.0,0.0,0.0,0.0,0.0,0.0,0.0,0.0,0.0,0.0,0.0,0.0,0.0,0.0,0.0,0.0,0.0,0.0,0.0,0.0,0.0,0.0,0.0,0.0,0.0,-7.5825,-7.568,-7.5476,-7.5245,-7.5207,-7.5207,-7.5207,-7.5207,-7.5253,-7.5414,0.0,0.0,0.0,0.0,0.0,0.0,0.0,0.0,0.0,0.0,0.0,0.0,0.0,0.0,0.0,0.0,0.0,0.0,0.0,0.0,0.0,0.0,0.0,0.0,0.0,0.0,0.0,0.0,0.0,0.0,0.0,0.0,0.0,0.0,0.0,0.0,0.0,0.0,0.0,0.0,0.0,0.0,0.0,0.0,0.0,0.0,0.0,0.0,0.0,0.0,0.0,0.0,0.0,0.0,0.0,0.0,0.0,0.0,0.0,0.0,0.0,0.0,0.0,0.0,0.0,0.0,0.0,0.0,0.0,0.0,0.0,0.0,0.0,0.0,0.0,0.0,0.0,0.0,0.0,0.0,0.0,0.0,0.0,0.0,0.0,0.0,0.0,0.0,0.0,0.0,0.0,0.0,0.0,0.0,0.0,0.0,0.0,0.0,0.0,0.0,0.0,0.0,-7.4826,-7.4707,-7.4399,-7.3591,-7.3514,-7.3514,-7.3514,-7.3514,-7.3514,0.0,0.0,0.0,0.0,0.0,0.0,0.0,0.0,0.0,0.0,0.0,0.0,0.0,0.0,0.0,0.0,0.0,0.0,0.0,0.0,0.0,0.0,0.0,0.0,0.0,0.0,0.0,0.0,0.0,0.0,0.0,0.0,0.0,0.0,0.0,0.0,0.0,0.0,0.0,0.0,0.0,0.0,0.0,0.0,0.0,0.0,0.0,0.0,0.0,0.0,0.0,0.0,0.0,0.0,0.0,0.0,0.0,0.0,0.0,0.0,0.0,0.0,0.0,0.0,0.0,0.0,0.0,0.0,0.0,0.0,0.0,0.0,0.0,0.0,0.0,0.0,0.0,0.0,0.0,0.0,0.0,0.0,0.0,0.0,0.0,0.0,0.0,0.0,0.0,0.0,0.0,0.0,0.0,0.0,0.0,0.0,0.0,0.0,0.0,0.0,0.0,0.0,0.0,-7.3976,-7.386,-7.3783,-7.3553,-7.3514,-7.3514,-7.3514,-7.3514,-7.3514,-7.3514,0.0,0.0,0.0,0.0,0.0,0.0,0.0,0.0,0.0,0.0,0.0,0.0,0.0,0.0,0.0,0.0,0.0,0.0,0.0,0.0,0.0,0.0,0.0,0.0,0.0,0.0,0.0,0.0,0.0,0.0,0.0,0.0,0.0,0.0,0.0,0.0,0.0,0.0,0.0,0.0,0.0,0.0,0.0,0.0,0.0,0.0,0.0,0.0,0.0,0.0,0.0,0.0,0.0,0.0,0.0,0.0,0.0,0.0,0.0,0.0,0.0,0.0,0.0,0.0,0.0,0.0,0.0,0.0,0.0,0.0,0.0,0.0,0.0,0.0,0.0,0.0,0.0,0.0,0.0,0.0,0.0,0.0,0.0,0.0,0.0,0.0,0.0,0.0,0.0,0.0,0.0,0.0,0.0,0.0,0.0,0.0,0.0,0.0,0.0,0.0,0.0,0.0,-7.3048,-7.2904,-7.276,-7.2429,-7.239,-7.2405,-7.2433,-7.2433,-7.2447,-7.2476,0.0,0.0,0.0,0.0,0.0,0.0,0.0,0.0,0.0,0.0,0.0,0.0,0.0,0.0,0.0,0.0,0.0,0.0,0.0,0.0,0.0,0.0,0.0,0.0,0.0,0.0,0.0,0.0,0.0,0.0,0.0,0.0,0.0,0.0,0.0,0.0,0.0,0.0,0.0,0.0,0.0,0.0,0.0,0.0,0.0,0.0,0.0,0.0,0.0,0.0,0.0,0.0,0.0,0.0,0.0,0.0,0.0,0.0,0.0,0.0,0.0,0.0,0.0,0.0,0.0,0.0,0.0,0.0,0.0,0.0,0.0,0.0,0.0,0.0,0.0,0.0,0.0,0.0,0.0,0.0,0.0,0.0,0.0,0.0,0.0,0.0,0.0,0.0,0.0,0.0,0.0,0.0,0.0,0.0,0.0,0.0,0.0,0.0,0.0,0.0,0.0,0.0,-7.2069,-7.1918,-7.159,-7.0784,-7.0723,-7.0699,-7.0772,-7.0787,-7.0815,-7.0871,0.0,0.0,0.0,0.0,0.0,0.0,0.0,0.0,0.0,0.0,0.0,0.0,0.0,0.0,0.0,0.0,0.0,0.0,0.0,0.0,0.0,0.0,0.0,0.0,0.0,0.0,0.0,0.0,0.0,0.0,0.0,0.0,0.0,0.0,0.0,0.0,0.0,0.0,0.0,0.0,0.0,0.0,0.0,0.0,0.0,0.0,0.0,0.0,0.0,0.0,0.0,0.0,0.0,0.0,0.0,0.0,0.0,0.0,0.0,0.0,-7.8776,-7.9567,0.0,0.0,0.0,0.0,0.0,0.0,0.0,0.0,0.0,0.0,0.0,0.0,0.0,0.0,0.0,0.0,0.0,0.0,0.0,0.0,0.0,0.0,0.0,0.0,0.0,0.0,0.0,0.0,0.0,0.0,0.0,0.0,0.0,0.0,0.0,0.0,0.0,0.0,0.0,0.0,-7.1171,-7.1036,-7.0899,-7.0723,-7.0723,-7.0723,-7.0737,-7.0699,-7.0752,-7.0729,-7.0729,0.0,0.0,0.0,0.0,0.0,0.0,0.0,0.0,0.0,0.0,0.0,0.0,0.0,0.0,0.0,0.0,0.0,0.0,0.0,0.0,0.0,0.0,0.0,0.0,0.0,0.0,0.0,0.0,0.0,0.0,0.0,0.0,0.0,0.0,0.0,0.0,0.0,0.0,0.0,0.0,0.0,0.0,0.0,0.0,0.0,0.0,0.0,0.0,0.0,0.0,0.0,0.0,0.0,0.0,0.0,0.0,0.0,0.0,0.0,-7.7975,-7.8668,0.0,0.0,0.0,0.0,0.0,0.0,0.0,0.0,0.0,0.0,0.0,0.0,0.0,0.0,0.0,0.0,0.0,0.0,0.0,0.0,0.0,0.0,0.0,0.0,0.0,0.0,0.0,0.0,0.0,0.0,0.0,0.0,0.0,0.0,0.0,0.0,0.0,0.0,0.0,0.0,-7.0761,-7.0609,-7.0547,-7.0547,-7.0547,-7.0562,-7.0647,-7.0647,-7.0662,-7.0708,-7.0723,0.0,0.0,0.0,0.0,0.0,0.0,0.0,0.0,0.0,0.0,0.0,0.0,0.0,0.0,0.0,0.0,0.0,0.0,0.0,0.0,0.0,0.0,0.0,0.0,0.0,0.0,0.0,0.0,0.0,0.0,0.0,0.0,0.0,0.0,0.0,0.0,0.0,0.0,0.0,0.0,0.0,0.0,0.0,0.0,0.0,0.0,0.0,0.0,0.0,0.0,0.0,0.0,0.0,-7.5831,-7.5678,-7.5538,-7.5538,-7.5538,-7.563,-7.7015,-7.7519,-7.7304,-7.7265,0.0,0.0,0.0,0.0,0.0,0.0,0.0,0.0,0.0,0.0,0.0,0.0,0.0,0.0,0.0,0.0,0.0,0.0,0.0,0.0,0.0,0.0,-7.6647,-7.5708,-7.5587,-7.5803,-7.6455,0.0,0.0,0.0,0.0,0.0,0.0,0.0,0.0,0.0,0.0,0.0,-7.0623,-7.0467,-7.0419,-7.0419,-7.0266,-7.0244,-7.0362,-7.0209,-7.0202,-7.0432,-7.0448,-7.0524,0.0,0.0,0.0,0.0,0.0,0.0,0.0,0.0,0.0,0.0,0.0,0.0,0.0,0.0,0.0,0.0,0.0,0.0,0.0,0.0,0.0,0.0,0.0,0.0,0.0,0.0,0.0,0.0,0.0,0.0,0.0,0.0,-8.0829,-7.9884,0.0,0.0,0.0,0.0,0.0,0.0,0.0,0.0,0.0,0.0,0.0,0.0,0.0,-7.5979,-7.5979,-7.5856,-7.5442,-7.4751,-7.4704,-7.4336,-7.3644,-7.3644,-7.3711,-7.386,-7.4053,0.0,-7.6188,-7.6188,0.0,0.0,0.0,0.0,0.0,0.0,0.0,0.0,0.0,0.0,0.0,0.0,0.0,0.0,0.0,0.0,0.0,0.0,0.0,0.0,0.0,0.0,-7.5826,-7.4865,-7.4609,-7.444,-7.3868,-7.429,-7.4766,-7.4704,-7.3998,-7.3193,0.0,0.0,0.0,0.0,0.0,0.0,-7.0623,-7.0467,-7.0419,-7.0419,-6.9769,-6.9349,-6.9365,-6.8677,-6.8578,-6.9343,-6.9381,-6.9757,-7.0601,-7.0601,0.0,0.0,0.0,0.0,0.0,0.0,0.0,0.0,0.0,0.0,0.0,0.0,0.0,0.0,0.0,0.0,0.0,0.0,0.0,0.0,0.0,0.0,0.0,0.0,0.0,0.0,0.0,0.0,0.0,-8.0423,-7.9944,-7.9466,-7.9318,-7.9003,0.0,0.0,0.0,0.0,0.0,0.0,0.0,0.0,0.0,-7.4462,-7.4351,-7.4274,-7.4274,-7.4274,-7.412,-7.3775,-7.3775,-7.3561,-7.3261,-7.3268,-7.3307,-7.3345,-7.3433,-7.387,-7.4495,-7.4577,-7.4591,-7.4591,0.0,0.0,0.0,0.0,-7.5592,-7.6015,-7.6015,-7.5985,-7.594,-7.594,0.0,0.0,0.0,0.0,0.0,0.0,0.0,-7.5119,-7.5009,-7.4664,-7.4204,-7.3762,-7.3647,-7.3571,-7.3172,-7.3061,-7.3146,-7.366,-7.3085,-7.2395,-7.205,-7.159,0.0,0.0,0.0,-7.0416,-6.9872,-6.9747,-6.954,-6.9043,-6.8661,-6.847,-6.847,-6.8126,-6.805,-6.8432,-6.847,-6.8639,-6.9068,-6.9597,-6.9873,0.0,0.0,0.0,0.0,0.0,0.0,0.0,0.0,0.0,0.0,0.0,0.0,0.0,0.0,0.0,0.0,0.0,0.0,0.0,0.0,0.0,0.0,0.0,0.0,0.0,0.0,0.0,0.0,-7.9164,-7.8968,-7.866,-7.8462,-7.8117,0.0,0.0,0.0,0.0,0.0,0.0,-7.4181,-7.4127,-7.3859,-7.3176,-7.3137,-7.3137,-7.3137,-7.3137,-7.3022,-7.2831,-7.2831,-7.2732,-7.2517,-7.2579,-7.2594,-7.2564,-7.2707,-7.2736,-7.2692,-7.3279,-7.3514,-7.3514,-7.3514,-7.3846,-7.4332,-7.4332,-7.474,-7.5264,-7.5264,-7.5272,-7.5227,-7.5211,-7.5211,-7.5211,-7.5211,0.0,0.0,0.0,0.0,-7.4127,-7.4068,-7.3571,-7.3019,-7.2745,-7.2702,-7.2696,-7.2384,-7.1844,-7.1717,-7.2639,-7.2141,-7.1605,-7.1605,-7.1068,0.0,-7.0286,-7.0247,-6.991,-6.8983,-6.8852,-6.8623,-6.7973,-6.7706,-6.7591,-6.7591,-6.74,-6.7362,-6.7591,-6.7591,-6.7668,-6.7897,-6.8571,-6.8947,-6.8947,0.0,0.0,0.0,0.0,0.0,0.0,0.0,0.0,0.0,0.0,0.0,0.0,0.0,0.0,0.0,0.0,0.0,0.0,0.0,0.0,0.0,0.0,0.0,0.0,0.0,0.0,0.0,0.0,0.0,-7.6577,-7.6471,0.0,0.0,0.0,0.0,-7.4696,-7.3852,-7.3277,-7.3182,-7.3166,-7.3133,-7.2996,-7.2996,-7.2996,-7.2996,-7.2996,-7.2575,-7.1773,-7.1773,-7.1401,-7.0738,-7.0738,-7.0747,-7.0838,-7.0838,-7.0838,-7.0968,-7.2765,-7.3514,-7.3514,-7.3514,-7.3471,-7.336,-7.336,-7.3353,-7.3331,-7.3331,-7.3377,-7.3422,-7.3346,-7.3331,-7.3331,-7.3331,-7.3331,0.0,0.0,-7.3268,-7.3246,-7.3106,-7.3101,-7.2866,-7.198,-7.1773,-7.1543,-7.0724,-7.0495,-7.0724,-7.162,-7.1085,-7.0457,-7.0457,0.0,-7.0151,-6.9387,-6.9289,-6.8929,-6.8088,-6.7973,-6.7935,-6.7897,-6.7209,-6.6751,-6.6751,-6.5987,-6.5872,-6.6713,-6.6751,-6.7095,-6.7859,-6.7951,-6.7989,-6.7989,-6.8027,0.0,0.0,0.0,0.0,0.0,0.0,0.0,0.0,0.0,0.0,0.0,0.0,0.0,0.0,0.0,0.0,0.0,0.0,0.0,0.0,0.0,0.0,0.0,0.0,0.0,0.0,0.0,0.0,-7.6343,-7.5671,0.0,-7.511,-7.4297,-7.3737,-7.3645,-7.3306,-7.286,-7.2243,-7.2188,-7.1904,-7.1336,-7.1336,-7.1336,-7.1336,-7.1336,-7.1183,-7.0877,-7.0877,-7.0741,-7.0451,-7.0554,-7.0569,-7.0515,-7.0624,-7.0678,-7.067,-7.1405,-7.1718,-7.1718,-7.1718,-7.201,-7.2479,-7.2479,-7.2771,-7.3216,-7.3261,-7.3231,-7.3169,-7.3137,-7.3121,-7.3121,-7.3121,-7.3121,-7.3105,-7.3062,-7.2642,-7.2221,-7.2155,-7.1751,-7.1254,-7.0916,-7.0877,-7.0801,-7.0495,-7.0419,-7.0495,-7.0801,-7.061,-7.0419,-7.0419,-6.996,-6.954,-6.9234,-6.8699,-6.805,-6.7247,-6.7133,-6.6904,-6.633,-6.6025,-6.5872,-6.5872,-6.5566,-6.5528,-6.5834,-6.5872,-6.5987,-6.6292,-6.6827,-6.7133,-6.7133,-6.763,-6.805,0.0,0.0,0.0,0.0,0.0,0.0,0.0,0.0,0.0,0.0,0.0,0.0,0.0,0.0,0.0,0.0,0.0,0.0,0.0,0.0,0.0,0.0,0.0,0.0,0.0,-7.6061,-7.5755,-7.5388,-7.4717,-7.4255,-7.4181,-7.3368,-7.2809,-7.2668,-7.2368,-7.1937,-7.1298,-7.1259,-7.0992,-7.0419,-7.0419,-7.0266,-6.9999,-6.9999,-6.9846,-6.9578,-6.9578,-6.9578,-6.9578,-6.9642,-6.9779,-6.9999,-7.0126,-7.0333,-7.0538,-7.0562,-7.0593,-7.0593,-7.0654,-7.1038,-7.1544,-7.1536,-7.1866,-7.2294,-7.2372,-7.231,-7.2199,-7.2231,-7.2215,-7.2199,-7.2199,-7.2199,-7.2183,-7.2155,-7.1718,-7.1259,-7.1259,-7.0839,-7.0419,-7.0419,-7.0419,-7.0419,-7.0419,-7.019,-6.9999,-6.9999,-6.9999,-6.9999,-6.9999,-6.9311,-6.8661,-6.8394,-6.7859,-6.7209,-6.6369,-6.6254,-6.6025,-6.5452,-6.5413,-6.5413,-6.5413,-6.5413,-6.5413,-6.5413,-6.5413,-6.5413,-6.5413,-6.5948,-6.6254,-6.6254,-6.7056,-6.7515,-6.7515,0.0,0.0,0.0,0.0,0.0,0.0,0.0,0.0,0.0,0.0,0.0,0.0,0.0,0.0,0.0,0.0,0.0,0.0,0.0,0.0,0.0,0.0,0.0,-7.5249,-7.5069,-7.4601,-7.3619,-7.3476,-7.3409,-7.3283,-7.2479,-7.1904,-7.1772,-7.0926,-7.0381,-7.0381,-7.0381,-7.0342,-7.0342,-7.0342,-6.996,-6.9158,-6.9158,-6.8738,-6.7897,-6.7897,-6.7897,-6.7897,-6.7897,-6.8356,-6.9158,-6.9158,-6.9616,-7.0342,-7.0342,-7.0342,-7.0359,-7.0609,-7.0647,-7.0585,-7.0678,-7.0562,-7.0419,-7.0554,-7.0522,-7.0435,-7.0554,-7.0522,-7.0419,-7.0419,-7.0419,-7.0419,-7.0419,-7.0419,-7.0419,-7.0419,-7.0419,-7.0419,-7.0419,-7.0364,-7.0381,-7.0381,-6.9731,-6.9158,-6.9158,-6.912,-6.912,-6.9158,-6.8432,-6.7591,-6.6827,-6.6674,0.0,-6.5528,-6.5413,-6.5413,-6.5413,-6.5413,-6.5413,-6.5413,-6.5413,-6.5413,-6.5413,-6.5413,-6.5413,-6.5413,-6.5413,-6.5413,-6.5413,-6.6216,-6.6674,-6.6674,0.0,0.0,0.0,0.0,0.0,0.0,0.0,0.0,0.0,0.0,0.0,0.0,0.0,0.0,0.0,0.0,0.0,0.0,0.0,0.0,0.0,-7.4373,-7.4147,-7.4147,-7.4009,-7.379,-7.3514,-7.2937,-7.2496,-7.2364,-7.1566,-7.0992,-7.0812,-7.0533,-7.0151,-6.9578,-6.954,-6.9234,-6.8623,-6.8585,-6.847,-6.8241,-6.8241,-6.8126,-6.7897,-6.7897,-6.7897,-6.7897,-6.7897,-6.8012,-6.8241,-6.8241,-6.8394,-6.8585,-6.8585,-6.8585,-6.8699,-6.997,-7.0467,-7.0451,-7.0483,-7.0499,-7.0538,-7.0467,-7.0467,-7.0538,-7.0451,-7.0435,-7.0419,-7.0419,-7.0419,-7.0419,-7.0419,-7.0419,-7.0419,-7.0419,-7.0419,-7.0419,-7.0419,-6.996,-6.954,-6.954,-6.8852,-6.8241,-6.8241,-6.7782,-6.7553,-6.8165,-6.7553,-6.6942,-6.6751,-6.6178,-6.5681,-6.5413,-6.5413,-6.5413,-6.5413,-6.5413,-6.5413,-6.5413,-6.5413,-6.5413,-6.5413,-6.5413,-6.5413,-6.5413,-6.5413,-6.5413,-6.5413,-6.5643,-6.5757,0.0,0.0,0.0,0.0,0.0,0.0,0.0,0.0,0.0,0.0,0.0,0.0,0.0,0.0,0.0,0.0,0.0,0.0,0.0,0.0,0.0,0.0,-7.3383,-7.3048,-7.2595,-7.2777,-7.2822,-7.2437,-7.1948,-7.1583,-7.1451,-7.0639,-7.0065,-6.9884,-6.9578,-6.9158,-6.8661,-6.8661,-6.8432,-6.7897,-6.7897,-6.7744,-6.74,-6.74,-6.7209,-6.6827,-6.6827,-6.6827,-6.6827,-6.6827,-6.7056,-6.74,-6.74,-6.7591,-6.7897,-6.7897,-6.7897,-6.8012,0.0,0.0,0.0,0.0,-6.997,-7.0072,-7.032,-7.0451,-7.0522,-7.0435,-7.0419,-7.0419,-7.0419,-7.0419,-7.0419,-7.0419,-7.0419,-7.0342,-6.9999,-6.9884,-6.9807,-6.9425,-6.9005,-6.8661,-6.8661,-6.7973,-6.74,-6.74,-6.6713,0.0,-6.6751,-6.6483,-6.6178,-6.6178,-6.5719,-6.5413,-6.5413,-6.5413,-6.5413,-6.5413,-6.5413,-6.5413,-6.5413,-6.5413,0.0,0.0,0.0,-6.5413,-6.5413,-6.5413,0.0,0.0,0.0,-6.5413,-6.5413,-6.591,0.0,0.0,-6.7553,-6.8165,0.0,0.0,0.0,0.0,0.0,0.0,0.0,0.0,0.0,0.0,0.0,0.0,0.0,0.0,0.0,0.0,-7.2414,-7.2001,-7.1016,-7.1552,-7.1783,-7.0975,-7.0752,-7.0643,-7.0569,-6.9712,-6.9138,-6.9043,-6.8317,-6.7859,-6.7782,-6.7744,0.0,0.0,0.0,-6.7286,-6.656,-6.656,-6.6178,-6.5413,-6.5413,-6.5413,-6.5413,-6.5413,-6.5834,-6.656,-6.656,-6.6942,-6.763,-6.763,-6.763,-6.763,-6.7821,-6.7897,-6.7973,-6.8776,-6.9091,-6.9214,-6.99,0.0,0.0,-7.0113,-7.0113,-7.0113,-7.0113,-7.0113,-7.0113,-7.0113,-7.0113,-6.996,-6.9234,-6.9043,-6.8852,-6.8088,-6.7821,-6.7744,-6.7744,-6.7133,-6.656,-6.656,-6.5948,-6.5413,-6.5413,-6.5413,-6.5413,-6.5413,-6.5413,-6.5413,-6.5413,-6.5413,-6.5413,-6.5413,-6.5413,0.0,-6.5413,-6.5413,-6.5413,-6.5413,-6.5413,-6.5413,-6.5413,-6.5413,-6.5413,-6.5413,-6.5413,-6.5413,-6.5413,-6.5413,-6.5413,-6.5452,-6.6942,-6.7668,0.0,0.0,0.0,0.0,0.0,0.0,0.0,0.0,0.0,0.0,0.0,0.0,0.0,0.0,0.0,-7.1551,-7.1309,-7.1158,-7.095,-7.1052,-7.1091,-7.0937,-7.0214,-6.9721,-6.9649,-6.8846,-6.8258,-6.818,-6.8012,-6.763,-6.698,-6.6942,-6.6598,-6.591,-6.5872,-6.5796,-6.5643,-6.5643,-6.5566,-6.5413,-6.5413,0.0,-6.5413,-6.5413,-6.549,-6.5643,-6.5643,-6.5757,-6.5872,-6.5872,-6.5872,-6.6025,-6.7362,-6.7897,-6.7897,-6.8088,-6.8142,-6.8196,-6.8333,-6.8394,-6.8394,-6.8394,-6.8394,-6.8394,-6.8394,-6.8394,0.0,-6.8394,-6.8394,-6.8356,-6.8203,-6.8126,-6.8088,-6.7935,-6.74,-6.6942,-6.6942,-6.6254,-6.5643,-6.5643,-6.5528,-6.5413,-6.5413,-6.5413,-6.5413,-6.5413,-6.5413,-6.5413,-6.5413,-6.5413,-6.5413,-6.5413,-6.5413,-6.5413,-6.5413,-6.5413,-6.5413,-6.5413,-6.5413,-6.5413,-6.5413,-6.5413,-6.5413,-6.5413,-6.5413,-6.5413,-6.5413,-6.5413,-6.5413,-6.5413,-6.5719,-6.6254,0.0,0.0,0.0,0.0,0.0,0.0,0.0,0.0,0.0,0.0,0.0,-7.259,-7.2384,0.0,-7.1422,-7.1218,-7.1042,-7.0744,-7.036,-7.0256,-7.0266,-7.0266,-6.9774,-6.928,-6.8785,-6.7929,-6.737,-6.7286,-6.6904,-6.6483,-6.6063,-6.6063,-6.5834,-6.5413,-6.5413,-6.5413,-6.5413,-6.5413,-6.5413,-6.5413,-6.5413,-6.5413,-6.5413,-6.5413,-6.5413,-6.5413,-6.5413,-6.5413,-6.5413,-6.5413,-6.5413,-6.549,-6.633,-6.6636,-6.6713,-6.7133,-6.7286,-6.7362,-6.7744,-6.7897,-6.7897,-6.7897,-6.7897,-6.7897,-6.7897,-6.7897,-6.7897,-6.7897,-6.7897,-6.7821,-6.74,-6.7286,-6.7171,-6.6751,-6.633,-6.6063,-6.6063,-6.5719,-6.5413,-6.5413,-6.5413,-6.5413,-6.5413,-6.5413,-6.5413,-6.5413,-6.5413,-6.5413,-6.5413,-6.5413,-6.5413,-6.5413,-6.5413,-6.5413,-6.5413,-6.5413,-6.5413,-6.5413,-6.522,-6.5085,-6.5085,-6.5085,-6.5085,-6.5085,-6.5298,-6.5413,-6.5413,-6.5413,-6.5413,-6.5413,-6.5413,-6.5643,0.0,0.0,0.0,0.0,0.0,0.0,0.0,0.0,-7.3041,-7.3041,-7.2495,-7.1924,-7.1694,-7.1573,-7.1374,-7.096,-7.0773,-7.0398,-6.9552,-6.9369,-6.9289,-6.9121,-6.8973,-6.8631,-6.7921,-6.6988,-6.6445,-6.6445,-6.5796,-6.5413,-6.5413,-6.5413,-6.5413,-6.5413,-6.5413,-6.5413,-6.5413,-6.5413,-6.5413,-6.5413,-6.5413,-6.5413,-6.5413,-6.5413,-6.5413,-6.5413,-6.5413,-6.5413,-6.5413,-6.5413,-6.5413,-6.5413,-6.5413,-6.5413,-6.549,-6.6178,-6.6445,-6.656,-6.7171,-6.74,-6.74,-6.74,-6.74,-6.74,-6.74,-6.74,-6.74,-6.74,-6.74,-6.7247,-6.6636,-6.6445,-6.6254,-6.5566,-6.5413,-6.5413,-6.5413,-6.5413,-6.5413,-6.5413,-6.5413,-6.5413,-6.5413,-6.5413,-6.5413,-6.5413,-6.5413,-6.5413,-6.5413,-6.5413,-6.5413,-6.5413,-6.5413,-6.5413,-6.5413,-6.5252,-6.5166,-6.5283,-6.4879,-6.4704,-6.4792,-6.4792,-6.4865,-6.4934,-6.5236,-6.5413,-6.5413,-6.5413,-6.5413,-6.5413,-6.5314,-6.5314,-7.5001,-7.472,-7.4447,-7.3627,-7.3432,-7.3236,0.0,0.0,-7.2143,-7.2143,-7.2065,-7.1909,-7.1566,-7.1497,-7.1135,-7.0028,-6.9835,-6.9552,-6.8667,-6.8498,-6.8161,-6.7323,-6.7122,-6.704,-6.6949,-6.6109,-6.5566,-6.5566,-6.5452,-6.5413,-6.5413,-6.5413,-6.5413,-6.5413,-6.5413,-6.5413,-6.5413,-6.5413,-6.5413,-6.5413,-6.5413,-6.5413,-6.5413,-6.5413,-6.5413,-6.5413,-6.5413,-6.5413,-6.5413,-6.5413,-6.5413,-6.5413,-6.5413,-6.5413,-6.5413,-6.5528,-6.5566,-6.5566,-6.5643,-6.5681,-6.5681,-6.5681,-6.5681,-6.5681,-6.5681,-6.5681,-6.5681,-6.5681,-6.5681,-6.5643,-6.5566,-6.5566,-6.5528,-6.5413,-6.5413,-6.5413,-6.5413,-6.5413,-6.5413,-6.5413,-6.5413,-6.5413,-6.5413,-6.5413,-6.5413,-6.5413,-6.5413,-6.5413,-6.5413,-6.5413,-6.5413,-6.5413,-6.5413,-6.5413,-6.5413,-6.4684,-6.4426,-6.4827,-6.4445,-6.4369,-6.4775,-6.4792,-6.4985,-6.5314,-6.5398,-6.5413,-6.5413,-6.5413,-6.5413,-6.5413,-6.5035,-6.5052,-7.4064,-7.3783,-7.3588,0.0,-7.2534,-7.2456,-7.2065,-7.1987,-7.1987,-7.1987,-7.1987,-7.1905,-7.1544,-7.1093,-7.0505,-6.9798,-6.9283,-6.8629,-6.7782,-6.7576,-6.7187,-6.626,-6.6074,-6.6015,-6.6009,-6.562,-6.5413,-6.5413,-6.5413,-6.5413,-6.5413,-6.5413,-6.5413,-6.5413,-6.5413,-6.5413,-6.5413,-6.5413,-6.5413,-6.5413,-6.5413,-6.5413,-6.5413,-6.5413,-6.5413,-6.5413,-6.5413,-6.5413,-6.5413,-6.5413,-6.5413,-6.5413,-6.5413,-6.5413,-6.5413,-6.5413,-6.5413,-6.5413,-6.5413,-6.5413,-6.5413,-6.5413,-6.5413,-6.5413,-6.5413,-6.5413,-6.5413,-6.5413,-6.5413,-6.5413,-6.5413,-6.5413,-6.5413,-6.5413,-6.5413,-6.5413,-6.5413,-6.5413,-6.5413,-6.5413,-6.5413,-6.5413,-6.5413,-6.5413,-6.5413,-6.5413,-6.5413,-6.5413,-6.5413,-6.5413,-6.5413,-6.5413,-6.5413,-6.5413,-6.5413,-6.4845,-6.4575,-6.4775,-6.4369,-6.4176,-6.4388,-6.4668,-6.49,-6.5052,-6.5283,-6.5413,-6.5413,-6.515,-6.5052,-6.5035,-6.4593,-6.4483,-7.3091,0.0,0.0,-7.2143,-7.1987,-7.1987,-7.1987,-7.1987,-7.1987,-7.1987,-7.1792,-7.1554,-7.1194,-7.044,-6.9661,-6.9066,-6.8436,-6.7744,-6.6898,-6.673,-6.6419,-6.5685,-6.5537,-6.5465,-6.5429,-6.5413,-6.5413,-6.5413,-6.5413,-6.5413,-6.5413,-6.5413,-6.5413,-6.5413,-6.5413,-6.5413,-6.5413,-6.5413,-6.5413,-6.5413,-6.5413,-6.5413,-6.5413,-6.5413,-6.5413,-6.5413,-6.5413,-6.5413,-6.5413,-6.5413,-6.5413,-6.5413,-6.5413,-6.5413,-6.5413,-6.5413,-6.5413,-6.5413,-6.5413,-6.5413,-6.5413,-6.5413,-6.5413,-6.5413,-6.5413,-6.5413,-6.5413,-6.5413,-6.5413,-6.5413,-6.5413,-6.5413,-6.5413,-6.5413,-6.5413,-6.5413,-6.5413,-6.5413,-6.5413,-6.5413,-6.5413,-6.5413,-6.5413,-6.5413,-6.5413,-6.5413,-6.5413,-6.5413,-6.5413,-6.5413,-6.5413,-6.5413,-6.5298,-6.5283,-6.5413,-6.4896,-6.4668,-6.4775,-6.4369,-6.4136,-6.4311,-6.4631,-6.4827,-6.4968,-6.5252,-6.5329,-6.5236,-6.4951,-6.4739,-6.4613,-6.4154,-6.3913,-7.2047,-7.2045,-7.2041,-7.199,-7.1987,-7.1987,-7.1987,-7.1987,-7.1987,-7.1987,-7.1324,-7.0657,-7.0307,-6.9547,-6.8536,-6.7383,-6.7167,-6.6859,-6.6051,-6.5884,-6.5767,-6.5608,-6.5537,-6.5465,-6.5429,-6.5413,-6.5413,-6.5413,-6.5413,-6.5413,-6.5413,-6.5413,-6.5413,-6.5413,-6.5413,-6.5413,-6.5413,-6.5413,-6.5413,-6.5413,-6.5413,-6.5413,-6.5413,-6.5413,-6.5413,-6.5413,-6.5413,-6.5413,-6.5413,-6.5413,-6.5413,-6.5413,-6.5413,-6.5413,-6.5413,-6.5413,-6.5413,-6.5413,-6.5413,-6.5413,-6.5413,-6.5413,-6.5413,-6.5413,-6.5413,-6.5413,-6.5413,-6.5413,-6.5413,-6.5413,-6.5413,-6.5413,-6.5413,-6.5413,-6.5413,-6.5413,-6.5413,-6.5413,-6.5413,-6.5413,-6.5413,-6.5413,-6.5413,-6.5413,-6.5413,-6.5413,-6.5413,-6.5413,-6.5413,-6.5413,-6.5413,-6.5413,-6.5052,-6.4985,-6.5383,-6.4612,-6.4331,-6.4757,-6.4369,-6.4311,-6.4757,-6.4775,-6.4985,-6.536,-6.5375,-6.522,-6.481,-6.4792,-6.4557,-6.4096,-6.3696,-6.3513,-7.2017,-7.201,-7.2004,-7.2002,-7.1995,-7.1987,-7.1987,-7.1558,-7.1128,-7.1128,-7.0426,-6.9774,-6.9523,-6.8681,-6.7881,-6.7398,-6.674,-6.6205,-6.5936,-6.5885,-6.5781,-6.5608,-6.558,-6.5523,-6.5429,-6.5413,-6.5413,-6.5413,-6.5413,-6.5413,-6.5413,-6.5413,-6.5413,-6.5413,-6.5413,-6.5413,-6.5413,-6.5413,-6.5413,-6.5413,-6.5413,-6.5413,-6.5413,-6.5413,-6.5413,-6.5413,-6.5413,-6.5413,-6.5413,-6.5413,-6.5413,-6.5413,-6.5413,-6.5413,-6.5413,-6.5413,-6.5413,-6.5413,-6.5413,-6.5413,-6.5413,-6.5413,-6.5413,-6.5413,-6.5413,-6.5413,-6.5413,-6.5413,-6.5413,-6.5413,-6.5413,-6.5413,-6.5413,-6.5413,-6.5413,-6.5413,-6.5413,-6.5413,-6.5413,-6.5413,-6.5413,-6.5413,-6.5413,-6.5413,-6.5413,-6.5413,-6.5413,-6.5413,-6.5413,-6.5413,-6.5413,-6.5413,-6.5283,-6.5252,-6.5398,-6.4879,-6.4649,-6.4775,-6.4668,-6.4649,-6.4775,-6.5052,-6.5267,-6.5413,-6.5413,-6.522,-6.4792,-6.4483,-6.4134,-6.3674,-6.3238,-6.3038,-7.1986,-7.1981,-7.2016,-7.2008,-7.1766,-7.1527,-7.1558,-7.0855,-7.023,-7.023,-6.9528,-6.8883,-6.872,-6.782,-6.7074,-6.6951,-6.6337,-6.5897,-6.5897,-6.5897,-6.5846,-6.5622,-6.5594,-6.5537,-6.5429,-6.5413,-6.5413,-6.5413,-6.5413,-6.5413,-6.5413,-6.5413,-6.5413,-6.5413,-6.5413,-6.5413,-6.5413,-6.5413,-6.5413,-6.5413,-6.5413,-6.5413,-6.5413,-6.5413,-6.5413,-6.5413,-6.5413,-6.5413,-6.5413,-6.5413,-6.5413,-6.5413,-6.5413,-6.5605,-6.5872,-6.5872,-6.6063,-6.6216,-6.5605,-6.5605,-6.5872,-6.5872,-6.6063,-6.6292,-6.6292,-6.6292,-6.6216,-6.5948,-6.5872,-6.5796,-6.549,-6.5413,-6.5413,-6.5413,-6.5413,-6.5413,-6.5413,-6.5413,-6.5413,-6.5413,-6.5413,-6.5413,-6.5413,-6.5413,-6.5413,-6.5413,-6.5413,-6.5413,-6.5413,-6.5413,-6.5413,-6.5413,-6.5413,-6.5413,-6.5413,-6.515,-6.5019,-6.5019,-6.5019,-6.5019,-6.5019,-6.5267,-6.5413,-6.5413,-6.5413,-6.5117,-6.4538,-6.4273,-6.3825,-6.3252,-6.2953,-6.278,-7.199,-7.1951,-7.1949,-7.1934,-7.1266,-7.0638,-7.0623,-6.9957,-6.9335,-6.9333,-6.863,-6.7988,0.0,0.0,-6.6259,-6.6119,-6.6001,-6.5897,-6.5897,-6.5897,-6.5846,-6.5622,0.0,0.0,0.0,-6.5413,-6.5413,-6.5413,-6.5413,-6.5413,-6.5413,-6.5413,-6.5413,-6.5413,-6.5413,-6.5413,-6.5413,-6.5413,-6.5413,-6.5413,-6.5413,-6.5413,-6.5413,-6.5413,-6.5413,-6.5413,-6.5413,-6.5413,-6.5413,-6.5413,-6.5413,-6.5452,-6.5452,-6.5987,-6.6751,-6.6751,-6.7247,-6.7668,-6.6063,-6.6063,-6.6751,-6.6751,-6.7286,-6.7897,-6.7897,-6.7897,-6.7744,-6.698,-6.6751,-6.656,-6.5757,-6.5528,-6.5528,-6.5528,-6.549,-6.5452,-6.5452,-6.5413,-6.5413,-6.5413,-6.5413,-6.5413,-6.5413,-6.5413,-6.5413,-6.5413,-6.5413,-6.5413,-6.5413,-6.5413,-6.5413,-6.5413,-6.5413,-6.5413,-6.5413,-6.5413,-6.5413,-6.5413,-6.5413,-6.5413,-6.5413,-6.5413,-6.5413,-6.5413,-6.5398,-6.4947,-6.4096,-6.4076,-6.3653,-6.278,-6.278,-6.278,-7.1992,-7.1522,-7.1013,-7.1049,-7.0381,-6.9749,-6.974,-6.9074,-6.8447,-6.8437,-6.7732,-6.7105,0.0,0.0,0.0,-6.6251,-6.6063,0.0,-6.5897,-6.5897,0.0,-6.578,0.0,-6.5566,-6.5479,-6.542,-6.5413,-6.5413,-6.5413,-6.5413,-6.5413,-6.5413,-6.5413,-6.5413,-6.5413,-6.5413,-6.5413,-6.5413,-6.5413,-6.5413,-6.5413,-6.5413,-6.5413,-6.5413,-6.5413,-6.5413,-6.5413,-6.5413,-6.5413,-6.5413,-6.5796,-6.6369,-6.6369,-6.6865,-6.7591,-6.7591,-6.7706,-6.7821,-6.74,-6.74,-6.7591,-6.7591,-6.7706,-6.7897,-6.7897,-6.7897,-6.7859,-6.763,-6.7591,-6.7553,-6.7324,-6.7247,-6.7247,-6.7247,-6.6789,-6.6369,-6.6369,-6.5872,-6.5413,-6.5413,-6.5413,-6.5413,-6.5413,-6.5413,-6.5413,-6.5413,-6.5413,-6.5413,-6.5413,-6.5413,-6.5413,-6.5413,-6.5413,-6.5413,-6.5413,-6.5413,-6.5413,-6.5413,-6.5413,-6.5413,-6.5413,-6.5413,-6.5413,-6.5413,-6.5101,-6.4648,-6.4096,-6.3803,-6.3354,-6.278,-6.278,-6.278,-7.1523,-7.1054,-7.0624,-7.0232,-6.9487,-6.8858,-6.8847,-6.818,-6.7512,-6.7539,-6.7146,0.0,-6.6795,-6.654,-6.6314,0.0,0.0,0.0,-6.5897,-6.5897,-6.5872,0.0,-6.5688,0.0,-6.5509,-6.542,-6.5413,-6.5413,-6.5413,-6.5413,-6.5413,-6.5413,-6.5413,-6.5413,-6.5413,-6.5413,-6.5413,-6.5413,-6.5413,-6.5413,-6.5413,-6.5413,-6.5413,-6.5413,-6.5413,-6.5413,-6.5413,-6.5605,-6.5987,-6.5987,-6.6483,-6.7247,-6.7247,-6.7744,-6.847,-6.847,-6.8699,-6.9005,-6.9005,-6.9005,-6.8929,-6.8585,-6.8699,-6.9005,-6.9005,-6.9005,-6.8929,-6.8585,-6.847,-6.8394,-6.8012,-6.7897,-6.7897,-6.7897,-6.7553,-6.7247,-6.7247,-6.6827,-6.6369,-6.6025,-6.5643,-6.5413,-6.5413,-6.5413,-6.5413,-6.5413,-6.5413,-6.5413,-6.5413,-6.5413,-6.5413,-6.5413,-6.5413,-6.5413,-6.5413,-6.5413,-6.5413,-6.5413,-6.5413,-6.5413,-6.5413,-6.5413,-6.5413,-6.5413,-6.5204,-6.4757,-6.4096,-6.3888,-6.3445,-6.278,-6.278,-6.3025,-7.0898,-7.0547,-7.0195,-6.9412,-6.8631,-6.8004,-6.7951,-6.7361,-6.6811,-6.68,0.0,-6.6795,-6.6795,-6.654,-6.6314,-6.6314,0.0,-6.5897,-6.5897,-6.5897,-6.5872,-6.582,-6.5688,-6.558,-6.5523,-6.5435,-6.5413,-6.5413,-6.5413,-6.5413,-6.5413,-6.5413,-6.5413,-6.5413,-6.5413,-6.5413,-6.5413,-6.5413,-6.5413,-6.5413,-6.5413,-6.5413,-6.5413,-6.5413,-6.5413,-6.5413,-6.5528,-6.5987,-6.6713,-6.6827,-6.7324,-6.805,-6.805,-6.8585,-6.9349,-6.9349,-6.9807,-7.0419,-7.0419,-7.0419,-7.0304,-6.9578,-6.9846,-7.0419,-7.0419,-7.0419,-7.0266,-6.9578,-6.9349,-6.9196,-6.8432,-6.8241,-6.8241,-6.8241,-6.8126,-6.805,-6.805,-6.7973,-6.7668,-6.698,-6.6178,-6.5566,-6.5566,-6.549,-6.5413,-6.5413,-6.5413,-6.5413,-6.5413,-6.5413,-6.5413,-6.5413,-6.5413,-6.5413,-6.5413,-6.5413,-6.5413,-6.5413,-6.5413,-6.5413,-6.5413,-6.5413,-6.5413,-6.5413,-6.5329,-6.4913,-6.4096,-6.4036,-6.3609,-6.278,-6.289,-6.3392,-7.0742,-6.9687,-6.8594,-6.8437,-6.7773,-6.7109,-6.71,-6.6979,0.0,0.0,-6.6795,-6.6795,-6.6795,-6.654,-6.6314,-6.6314,-6.6067,-6.5897,-6.5897,-6.5897,-6.5897,0.0,-6.5728,-6.5594,-6.558,-6.5465,-6.5413,-6.5413,-6.5413,-6.5413,-6.5413,-6.5413,-6.5413,-6.5413,-6.5413,-6.5413,-6.5413,-6.5413,-6.5413,-6.5413,-6.5413,-6.5413,-6.5413,-6.5413,-6.5413,-6.5452,-6.6178,-6.656,-6.6751,-6.74,-6.8203,-6.8967,-6.8967,-6.9464,-7.019,-7.019,-7.0304,-7.0419,-7.0419,-7.0419,-7.0381,-7.0228,-7.0304,-7.0419,-7.0419,-7.0419,-7.0381,-7.0228,-7.019,-7.0151,-6.9999,-6.996,-6.996,-6.996,-6.9464,-6.8967,-6.8967,-6.8394,-6.7859,-6.7706,-6.7018,-6.6483,-6.6483,-6.5872,-6.5413,-6.5413,-6.5413,-6.5413,-6.5413,-6.5413,-6.5413,-6.5413,-6.5413,-6.5413,-6.5413,-6.5413,-6.5413,-6.5413,-6.5413,-6.5413,-6.5413,-6.5413,-6.5413,-6.5413,-6.5068,-6.463,-6.4096,-6.3761,-6.3331,-6.2817,-6.3539,-6.3943,-7.0195,-6.914,-6.8086,-6.7656,-6.7226,-6.6914,-6.691,0.0,0.0,0.0,-6.68,-6.6795,-6.6795,-6.654,0.0,-6.6314,-6.6067,-6.5897,-6.5897,-6.5897,-6.5897,-6.5897,-6.5728,-6.5594,-6.5594,-6.5465,-6.5413,-6.5413,-6.5413,-6.5413,-6.5413,-6.5413,-6.5413,-6.5413,-6.5413,-6.5413,-6.5413,-6.5413,-6.5413,-6.5413,-6.5413,-6.5413,-6.5413,-6.5413,-6.5643,-6.6101,-6.6522,-6.7209,-6.805,-6.8432,-6.9082,-6.9807,-6.9807,-7.0075,-7.0419,-7.0419,-7.0419,-7.0419,-7.0419,-7.0419,-7.0419,-7.0419,-7.0419,-7.0419,-7.0419,-7.0419,-7.0419,-7.0419,-7.0419,-7.0419,-7.0419,-7.0419,-7.0419,-7.0419,-7.0113,-6.9807,-6.9807,-6.9158,-6.8585,-6.8585,-6.7897,-6.7324,-6.7324,-6.6636,-6.6101,-6.6101,-6.5681,-6.5413,-6.5413,-6.5413,-6.5413,-6.5413,-6.5413,-6.5413,-6.5413,-6.5413,-6.5413,-6.5413,-6.5413,-6.5413,-6.5413,-6.5413,-6.5413,-6.5413,-6.5002,-6.4557,-6.4096,-6.3696,-6.3497,-6.3503,-6.3906,-6.453,-6.9453,-6.8594,-6.7773,-6.707,-6.6914,-6.6914,-6.6912,-6.6908,0.0,0.0,-6.6805,-6.6795,-6.6795,-6.654,-6.6314,0.0,-6.6067,-6.5897,-6.5897,-6.5897,-6.5897,0.0,-6.5742,0.0,-6.5594,-6.5479,-6.5429,-6.5413,-6.5413,-6.5413,-6.5413,-6.5413,-6.5413,-6.5413,-6.5413,-6.5413,-6.5413,-6.5413,-6.5413,-6.5413,-6.5413,-6.5413,-6.5413,-6.5605,-6.6063,-6.6713,-6.7095,-6.7973,-6.9196,-6.9387,-6.9846,-7.0419,-7.0419,-7.0419,-7.0419,-7.0419,-7.0419,-7.0419,-7.0419,-7.0419,-7.0419,-7.0419,-7.0419,-7.0419,-7.0419,-7.0419,-7.0419,-7.0419,-7.0419,-7.0419,-7.0419,-7.0419,-7.0419,-7.0419,-7.0419,-7.0419,-7.0419,-6.9922,-6.9464,-6.9464,-6.8738,-6.8165,-6.8165,-6.7515,-6.698,-6.698,-6.6369,-6.5872,-6.5719,-6.5681,-6.5605,-6.5413,-6.5413,-6.5413,-6.5413,-6.5413,-6.5413,-6.5413,-6.5413,-6.5413,-6.5413,-6.5413,-6.5413,-6.5413,-6.5002,-6.467,-6.4359,-6.3935,-6.3978,-6.4347,-6.453,-6.5301,-6.8555,-6.7695,-6.6992,-6.6914,-6.6914,-6.6914,-6.6912,0.0,0.0,-6.6813,-6.6805,-6.6795,-6.6795,-6.654,-6.6314,-6.6314,0.0,-6.5897,-6.5897,-6.5897,-6.5897,-6.5897,0.0,0.0,-6.5608,-6.5537,-6.545,-6.5375,-6.5413,-6.5413,-6.5413,-6.5413,-6.5413,-6.5413,-6.5413,-6.5413,-6.5413,-6.5413,-6.5413,-6.5413,-6.5413,-6.5413,-6.5413,-6.6216,-6.6636,-6.6789,-6.8317,-6.9043,-6.9273,-6.9999,-7.0342,-7.0419,-7.0419,-7.0419,-7.0419,-7.0419,-7.0419,-7.0419,-7.0419,-7.0419,-7.0419,-7.0419,-7.0419,-7.0419,-7.0419,-7.0419,-7.0419,-7.0419,-7.0419,-7.0419,-7.0419,-7.0419,-7.0419,-7.0419,-7.0419,-7.0419,-7.0419,-7.0342,-7.0304,-7.0304,-6.9655,-6.9082,-6.9082,-6.8356,-6.7782,-6.7782,-6.7706,-6.74,-6.6674,-6.6598,-6.6292,-6.549,-6.5413,-6.5413,-6.5413,-6.5413,-6.5413,-6.5413,-6.5413,-6.5413,-6.5413,-6.5413,-6.5413,-6.5413,-6.5002,-6.4935,-6.5203,-6.4793,-6.4805,-6.5228,-6.5925,-6.6366,-6.8281,-6.7578,-6.6914,-6.6914,-6.6914,-6.6914,-6.6914,0.0,0.0,-6.686,-6.6848,-6.6795,-6.6795,-6.6629,-6.6458,0.0,0.0,0.0,-6.5923,-6.5897,-6.5897,-6.5897,-6.5833,0.0,0.0,-6.5608,-6.5552,-6.5509,-6.5479,-6.5465,-6.5509,-6.542,-6.5413,-6.5413,-6.5413,-6.5413,-6.5413,-6.5413,-6.5413,-6.5413,-6.5413,-6.5681,-6.6178,-6.656,-6.7247,-6.8241,-6.889,-6.9464,-6.996,-7.0266,-7.0419,-7.0419,-7.0419,-7.0419,-7.0419,-7.0419,-7.0419,-7.0419,-7.0419,-7.0419,-7.0419,-7.0419,-7.0419,-7.0419,-7.0419,-7.0419,-7.0419,-7.0419,-7.0419,-7.0419,-7.0419,-7.0419,-7.0419,-7.0419,-7.0419,-7.0419,-7.0419,-7.0419,-7.0419,-7.0419,-7.0151,-6.9922,-6.9922,-6.9234,-6.8661,-6.8661,-6.8241,-6.7782,-6.7477,-6.74,-6.7286,-6.6942,-6.5987,-6.5413,-6.5413,-6.5413,-6.5413,-6.5413,-6.5413,-6.5413,-6.5413,-6.5413,-6.5643,-6.6178,-6.5459,-6.5421,-6.6066,-6.5389,-6.5534,-6.6445,-6.6486,-6.6916,-6.789,-6.7383,-6.6914,-6.6914,-6.6914,-6.6914,0.0,0.0,0.0,-6.6904,-6.6854,-6.68,-6.6798,-6.6697,-6.6513,0.0,0.0,-6.6063,-6.5935,-6.5897,-6.5897,-6.5897,0.0,-6.582,-6.5793,-6.5688,-6.5594,-6.5594,-6.5552,-6.5552,-6.5594,-6.5509,-6.545,-6.545,-6.5444,-6.5429,-6.542,-6.5429,-6.5413,-6.5413,-6.5643,-6.6101,-6.6713,-6.7209,-6.8088,-6.9196,-6.9464,-6.9884,-7.0419,-7.0419,-7.0419,-7.0419,-7.0419,-7.0419,-7.0419,-7.0419,-7.0419,-7.0419,-7.0419,-7.0419,-7.0419,-7.0419,-7.0419,-7.0419,-7.0419,-7.0419,-7.0419,-7.0419,-7.0419,-7.0419,-7.0419,-7.0419,-7.0419,-7.0419,-7.0419,-7.0419,-7.0419,-7.0419,-7.0419,-7.0419,-7.0419,-7.0419,-7.0419,-6.9922,-6.954,-6.954,-6.9043,-6.8547,-6.8317,-6.8279,-6.8203,-6.7935,-6.6827,-6.6139,-6.6139,-6.6139,-6.6139,-6.6139,-6.6139,-6.6139,-6.6139,-6.6139,-6.636,-6.6859,-6.6068,-6.6041,-6.6774,-6.616,-6.6433,-6.754,-6.7209,-6.7465,-6.7148,-6.6914,-6.6914,-6.6914,-6.6914,-6.6914,0.0,0.0,-6.691,-6.6905,-6.6857,-6.6809,-6.6798,-6.6697,-6.6513,0.0,0.0,0.0,-6.5935,-6.5897,-6.5897,0.0,-6.5897,-6.5872,-6.5807,-6.5688,-6.5594,-6.5594,-6.5594,-6.5594,-6.5594,-6.5594,-6.5594,-6.5594,-6.545,-6.542,-6.5494,-6.542,-6.5413,-6.5413,-6.6254,-6.6713,-6.6751,-6.8432,-6.9196,-6.9234,-7.0037,-7.0381,-7.0419,-7.0419,-7.0419,-7.0419,-7.0419,-7.0419,-7.0419,-7.0419,-7.0419,-7.0419,-7.0419,-7.0419,-7.0419,-7.0419,-7.0419,-7.0419,-7.0419,-7.0419,-7.0419,-7.0419,-7.0419,-7.0419,-7.0419,-7.0419,-7.0419,-7.0419,-7.0419,-7.0419,-7.0419,-7.0419,-7.0419,-7.0419,-7.0419,-7.0419,-7.0419,-7.0381,-7.0381,-7.0381,-7.0364,-7.0113,-6.9273,-6.9196,-6.8852,-6.7973,-6.7859,-6.7859,-6.7859,-6.7859,-6.7859,-6.7859,-6.7859,-6.7859,-6.7859,-6.7859,-6.7659,-6.722,-6.6779,-6.6752,-6.7083,-6.7144,-6.7614,-6.8394,-6.8394,-6.816,-6.6953,-6.6914,-6.6914,-6.6914,-6.6914,-6.6914,-6.6914,0.0,-6.691,-6.6905,-6.6857,-6.6809,-6.6798,-6.6781,-6.6642,-6.6358,0.0,0.0,0.0,0.0,0.0,-6.5897,-6.5897,-6.5897,-6.5872,-6.5807,-6.578,-6.5795,-6.5742,-6.578,-6.5795,-6.5742,-6.5688,-6.5594,-6.5552,-6.5537,-6.5566,-6.5494,-6.5771,-6.6368,-6.659,-6.7286,-6.8432,-6.8967,-6.9502,-7.0037,-7.0304,-7.0419,-7.0419,-7.0419,-7.0419,-7.0419,-7.0419,-7.0419,-7.0419,-7.0419,-7.0419,-7.0419,-7.0419,-7.0419,-7.0419,-7.0419,-7.0419,-7.0419,-7.0419,-7.0419,-7.0419,-7.0419,-7.0419,-7.0419,-7.0419,-7.0419,-7.0419,-7.0419,-7.0419,-7.0419,-7.0419,-7.0419,-7.0419,-7.0419,-7.0419,-7.0419,-7.0419,-7.0419,-7.0419,-7.0419,-7.0419,-7.0304,-7.0037,-7.0037,-6.9922,-6.9655,-6.9616,-6.9158,-6.8012,-6.7897,-6.7897,-6.7897,-6.7897,-6.7897,-6.7897,-6.7897,-6.7964,-6.811,-6.7978,-6.808,-6.8474,-6.8496,-6.845,-6.8394,-6.8394,-6.816,0.0,-6.6914,-6.6914,-6.6914,-6.6914,0.0,0.0,0.0,0.0,-6.6908,-6.6862,-6.6815,-6.6805,-6.68,-6.6674,-6.6366,0.0,0.0,0.0,0.0,0.0,-6.5897,-6.5897,-6.5897,-6.5897,-6.5859,-6.5859,-6.5897,-6.5859,-6.5859,-6.5897,-6.5859,-6.5807,-6.5728,-6.5635,-6.5608,-6.5674,-6.5896,-6.626,-6.6795,-6.7355,-6.8203,-6.9196,-6.9502,-6.9922,-7.0419,-7.0419,-7.0419,0.0,-7.0419,-7.0419,-7.0419,-7.0419,-7.0419,-7.0419,-7.0419,-7.0419,-7.0419,-7.0419,-7.0419,-7.0419,-7.0419,-7.0419,-7.0419,-7.0419,-7.0419,-7.0419,-7.0419,-7.0419,-7.0419,-7.0419,-7.0419,-7.0419,-7.0419,-7.0419,-7.0419,-7.0419,-7.0419,-7.0419,-7.0419,-7.0419,-7.0419,-7.0419,-7.0419,-7.0419,-7.0419,-7.0419,-7.0419,-7.0419,-7.0419,-7.0419,-7.0419,-7.0419,-6.9999,-6.8929,-6.8852,-6.8852,-6.8852,-6.8852,-6.8852,-6.8852,-6.8852,-6.8879,-6.8982,-6.8982,-6.9035,-6.9091,-6.9091,-6.8937,-6.8642,-6.849,-6.816,0.0,-6.6914,-6.6914,-6.6914,-6.6914,-6.6914,-6.6914,0.0,0.0,0.0,-6.6907,-6.6862,-6.6813,-6.6805,-6.6674,-6.6366,0.0,0.0,0.0,-6.5897,0.0,-6.5897,-6.5897,-6.5897,-6.5897,-6.5897,-6.5897,-6.5897,-6.5897,-6.5897,-6.5897,-6.5897,-6.5897,-6.5897,-6.5767,-6.5764,-6.587,-6.65,-6.6872,-6.6987,-6.8479,-6.9234,-6.9311,-7.0075,-7.0419,-7.0419,-7.0419,-7.0419,-7.0419,-7.0419,-7.0419,-7.0419,-7.0419,-7.0419,-7.0419,-7.0419,-7.0419,-7.0419,-7.0419,-7.0419,-7.0419,-7.0419,-7.0419,-7.0419,-7.0419,-7.0419,-7.0419,-7.0419,-7.0419,-7.0419,-7.0419,-7.0419,-7.0419,-7.0419,-7.0419,-7.0419,-7.0419,-7.0419,-7.0419,-7.0419,-7.0419,-7.0419,-7.0419,-7.0419,-7.0419,-7.0419,-7.0419,-7.0419,-7.0419,-7.0419,-7.0419,-7.0419,-7.0419,-7.0419,-7.0419,-7.0419,-7.0419,-7.0419,-7.0419,-7.0419,-7.0419,-7.0419,-7.0213,-6.9816,-6.9816,-6.9604,-6.9198,-6.9134,-6.9091,-6.9091,-6.8572,-6.8109,-6.6914,0.0,-6.6914,-6.6914,-6.6914,-6.6914,0.0,0.0,0.0,0.0,0.0,0.0,0.0,0.0,0.0,-6.6366,0.0,-6.623,-6.5933,-6.5897,-6.5897,-6.5897,-6.5897,-6.5897,-6.5897,-6.5897,-6.5897,-6.5897,-6.5897,-6.5897,-6.5897,-6.5897,-6.5897,-6.5897,-6.6449,-6.6743,-6.6795,-6.6853,-6.7535,-6.8799,-6.9084,-6.9502,-7.0113,-7.0304,-7.0451,-7.0538,-7.0435,-7.0451,-7.0538,-7.0435,-7.0419,-7.0419,-7.0419,-7.0419,-7.0419,-7.0419,-7.0419,-7.0419,-7.0419,-7.0419,-7.0419,-7.0419,-7.0419,-7.0419,-7.0419,-7.0419,-7.0419,-7.0419,-7.0419,-7.0419,-7.0419,-7.0419,-7.0419,-7.0419,-7.0419,-7.0419,-7.0419,-7.0419,-7.0419,-7.0419,-7.0419,-7.0419,-7.0419,-7.0419,-7.0419,-7.0419,-7.0419,-7.0419,-7.0419,-7.0419,-7.0419,-7.0419,-7.0419,-7.0419,-7.0419,-7.0419,-7.0419,-7.0419,-7.0419,-7.0419,-7.0419,-7.0419,-7.0213,-6.9816,-6.9816,-6.989,-7.0088,-6.9426,-6.9091,-6.9069,-6.8247,-6.782,-6.6914,-6.6914,-6.6914,-6.6914,-6.6914,-6.6914,-6.6914,0.0,0.0,0.0,0.0,0.0,0.0,0.0,0.0,-6.6366,-6.6314,0.0,0.0,-6.5897,-6.5897,-6.5897,-6.5897,-6.5897,-6.5897,-6.5897,-6.5897,-6.5897,-6.5897,-6.5897,-6.5897,-6.5897,-6.6051,-6.6436,-6.6859,-6.709,-6.709,-6.7711,-6.8484,-6.9404,-6.9658,-6.9999,-7.0419,-7.0451,-7.0538,-7.0608,-7.0522,-7.0538,-7.0569,-7.0451,-7.0419,-7.0419,-7.0419,-7.0419,-7.0419,-7.0419,-7.0419,-7.0419,-7.0419,-7.0419,-7.0419,-7.0419,-7.0419,-7.0419,-7.0419,-7.0419,-7.0419,-7.0419,-7.0419,-7.0419,-7.0419,-7.0419,-7.0419,-7.0419,-7.0419,-7.0419,-7.0419,-7.0419,-7.0419,-7.0419,-7.0419,-7.0419,-7.0419,-7.0419,-7.0419,-7.0419,-7.0419,-7.0419,-7.0419,-7.0419,-7.0419,-7.0419,-7.0419,-7.0419,-7.0419,-7.0419,-7.0419,-7.0419,-7.0419,-7.0419,-7.0419,-7.0419,-7.0281,-7.0091,-7.0091,-7.0179,-7.0402,-6.9526,-6.9091,-6.9069,-6.8134,-6.7687,-6.6914,-6.6914,-6.6914,-6.6914,-6.6914,-6.6914,-6.6914,0.0,0.0,0.0,0.0,0.0,0.0,-6.6852,0.0,0.0,-6.6307,-6.6194,-6.5933,-6.5897,-6.5897,-6.5897,-6.5897,-6.5897,-6.5897,-6.5897,-6.5897,-6.5897,-6.5897,-6.5897,-6.5897,-6.6013,-6.6397,-6.709,-6.7359,-6.7513,-6.7513,-6.8761,-6.9495,-6.9596,-7.0171,-7.0435,-7.0435,-7.0538,-7.0585,-7.0616,-7.0623,-7.0623,-7.0585,-7.0451,-7.0419,-7.0419,-7.0419,-7.0419,-7.0419,-7.0419,-7.0419,-7.0419,-7.0419,-7.0419,-7.0419,-7.0572,-7.061,-7.061,-7.0763,-7.0801,-7.0801,-7.0801,-7.061,-7.0419,-7.0419,-7.0419,-7.0419,-7.0419,-7.0419,-7.0419,-7.0419,-7.0419,-7.0419,-7.0419,-7.0419,-7.0419,-7.0419,-7.0419,-7.0419,-7.0419,-7.0419,-7.0419,-7.0419,-7.0419,-7.0419,-7.0419,-7.0419,-7.0419,-7.0419,-7.0419,-7.0419,-7.0419,-7.0419,-7.0419,-7.0419,-7.0419,-7.0419,-7.0419,-7.0419,-7.0419,-7.0402,-6.9526,-6.9091,-6.9069,-6.8134,-6.7687,-6.6914,-6.6914,-6.6914,-6.6914,-6.6914,-6.6914,-6.6914,0.0,0.0,0.0,0.0,0.0,0.0,-6.6856,-6.6748,0.0,-6.6322,-6.6067,-6.5909,-6.5897,-6.5897,-6.5897,-6.5897,-6.5897,-6.5897,-6.5897,-6.5897,-6.5897,-6.5897,-6.5897,-6.5897,-6.6551,-6.6974,-6.709,-6.8513,-6.9283,-6.9283,-6.9432,-6.9808,-7.0478,-7.054,-7.0554,-7.0554,-7.0569,-7.0662,-7.0743,-7.0647,-7.0616,-7.0678,-7.0483,-7.0419,-7.0419,-7.0419,-7.0419,-7.0419,-7.0419,-7.0419,-7.0419,-7.0419,-7.0419,-7.0533,-7.1259,-7.1489,-7.1642,-7.2367,-7.2597,-7.2597,-7.2597,-7.1527,-7.0419,-7.0419,-7.0419,-7.0419,-7.0419,-7.0419,-7.0419,-7.0419,-7.0419,-7.0419,-7.0419,-7.0419,-7.0419,-7.0419,-7.0419,-7.0419,-7.0419,-7.0419,-7.0419,-7.0419,-7.0419,-7.0419,-7.0419,-7.0419,-7.0419,-7.0419,-7.0419,-7.0419,-7.0419,-7.0419,-7.0419,-7.0419,-7.0419,-7.0419,-7.0419,-7.0419,-7.0419,-7.0402,-6.9526,-6.9091,-6.9069,-6.8134,-6.7687,-6.6914,-6.6914,-6.6914,-6.6914,-6.6914,-6.6914,-6.6914,0.0,0.0,0.0,0.0,0.0,0.0,0.0,-6.6703,-6.6489,-6.6256,-6.6063,-6.5935,-6.5897,-6.5897,-6.5897,-6.5897,-6.5897,-6.5897,-6.5897,-6.5897,-6.5897,-6.5897,-6.609,-6.6513,-6.6898,-6.7513,-6.8475,-6.9283,-6.9898,-7.036,-7.0294,-7.0431,-7.0743,-7.0693,-7.0647,-7.0662,-7.0693,-7.0752,-7.0787,-7.0708,-7.0678,-7.0669,-7.0483,-7.0419,-7.0419,-7.0419,-7.0419,-7.0419,-7.0419,-7.0419,-7.0495,-7.0954,-7.1107,-7.1259,-7.21,-7.2406,-7.2482,-7.2864,-7.2979,-7.2979,-7.2979,-7.2406,-7.1794,-7.1794,-7.1794,-7.168,-7.1221,-7.1107,-7.0954,-7.0495,-7.0419,-7.0419,-7.0419,-7.0419,-7.0419,-7.0419,-7.0419,-7.0419,-7.0419,-7.0419,-7.0419,-7.0419,-7.0419,-7.0419,-7.0419,-7.0419,-7.0419,-7.0419,-7.0419,-7.0419,-7.0419,-7.0419,-7.0419,-7.0419,-7.0419,-7.0419,-7.0419,-7.0419,-7.0281,-7.0073,-6.9405,-6.8959,-6.8688,-6.8007,-6.7907,-6.6914,-6.6914,-6.6914,-6.6914,0.0,0.0,0.0,0.0,0.0,0.0,0.0,0.0,0.0,-6.6863,-6.6694,-6.6379,-6.6209,-6.6088,-6.5909,-6.5897,-6.5897,-6.5897,-6.5897,-6.5897,-6.5897,-6.5897,-6.5897,-6.5897,-6.6051,-6.6436,-6.7051,-6.7475,-6.8321,-6.9667,-6.9898,-7.0283,-7.0898,-7.0898,-7.0857,-7.0787,-7.0729,-7.0699,-7.0737,-7.0758,-7.0801,-7.0815,-7.0752,-7.0723,-7.0669,-7.0483,-7.0419,-7.0419,-7.0419,-7.0419,-7.0419,-7.0648,-7.0686,-7.0839,-7.168,-7.1985,-7.2138,-7.2979,-7.3284,-7.3323,-7.3514,-7.359,-7.359,-7.359,-7.359,-7.3514,-7.3093,-7.2979,-7.2826,-7.2138,-7.1985,-7.1756,-7.0877,-7.0686,-7.0648,-7.0457,-7.0419,-7.0419,-7.0419,-7.0419,-7.0419,-7.0419,-7.0419,-7.0419,-7.0419,-7.0419,-7.0419,-7.0419,-7.0419,-7.0419,-7.0419,-7.0419,-7.0419,-7.0419,-7.0419,-7.0419,-7.0419,-7.0419,-7.0419,-7.0419,-7.0419,-7.0196,-6.9816,-6.9323,-6.9027,-6.8823,-6.8343,-6.8641,-6.6914,-6.6914,-6.6914,-6.6914,-6.6914,0.0,-6.6914,-6.6914,0.0,-6.6914,0.0,0.0,0.0,-6.6863,-6.6697,-6.6452,-6.6329,-6.6212,-6.5933,-6.5897,-6.5897,-6.5897,-6.5897,-6.5897,-6.5897,-6.5897,-6.5897,-6.5897,-6.659,-6.7051,-6.709,-6.8629,-6.959,-6.9706,-7.0437,-7.0821,-7.0898,-7.0898,-7.0857,-7.0787,-7.0787,-7.0787,-7.0787,-7.0787,-7.0829,-7.0885,-7.0743,-7.0723,-7.0669,-7.0483,-7.0419,-7.0419,-7.0419,-7.0419,-7.0495,-7.1298,-7.1603,-7.1718,-7.2597,-7.2902,-7.3055,-7.3858,-7.4125,-7.4278,-7.508,-7.5327,-7.5327,-7.5327,-7.5327,-7.4983,-7.3399,-7.2979,-7.2979,-7.2902,-7.2902,-7.2673,-7.1794,-7.1603,-7.1374,-7.0572,-7.0419,-7.0419,-7.0419,-7.0419,-7.0419,-7.0419,-7.0419,-7.0419,-7.0419,-7.0419,-7.0419,-7.0419,-7.0419,-7.0419,-7.0419,-7.0419,-7.0419,-7.0419,-7.0419,-7.0419,-7.0419,-7.0419,-7.0419,-7.0419,-7.0419,-7.0196,-6.9816,-6.9323,-6.9466,-7.0135,-6.969,-7.0161,-6.6914,-6.6914,-6.6914,-6.6914,-6.6914,0.0,0.0,-6.6914,-6.6914,-6.6914,-6.6914,0.0,0.0,0.0,-6.6748,-6.6458,-6.6337,-6.623,-6.5933,-6.5897,-6.5897,-6.5897,-6.5897,-6.5897,-6.5897,-6.5897,-6.5897,-6.5897,-6.6628,-6.7321,-6.7898,-6.9052,-6.9937,-7.0437,-7.0744,-7.0898,-7.0898,-7.0898,-7.0885,-7.0857,-7.0857,-7.0857,-7.0857,-7.0857,-7.0871,-7.0885,-7.0743,-7.0723,-7.0669,-7.0483,-7.0419,-7.0419,-7.0419,-7.0724,-7.1259,-7.1565,-7.2024,-7.2635,-7.3476,-7.3743,-7.3896,-7.4736,-7.5004,-7.508,-7.5403,-7.5518,-7.5518,-7.5518,-7.5518,-7.5365,-7.4698,-7.4545,-7.4431,-7.3896,-7.3743,-7.3514,-7.2673,-7.252,-7.2253,-7.1374,-7.1221,-7.103,-7.0495,-7.0419,-7.0419,-7.0419,-7.0419,-7.0419,-7.0419,-7.0419,-7.0419,-7.0419,-7.0419,-7.0419,-7.0419,-7.0419,-7.0419,-7.0419,-7.0419,-7.0419,-7.0419,-7.0419,-7.0419,-7.0419,-7.0419,-7.0196,-6.9816,-7.0115,-7.0269,-7.0292,-7.0661,-7.1196,-6.6914,-6.6914,-6.6914,-6.6914,0.0,0.0,-6.6914,-6.6914,-6.6914,-6.6914,-6.6914,-6.6914,-6.6913,0.0,-6.6795,-6.6438,-6.6344,-6.623,-6.5933,-6.5897,-6.5897,-6.5897,-6.5897,-6.5897,-6.5897,-6.5897,-6.6013,-6.6244,-6.7051,-6.7898,-6.8783,-6.9629,-7.0321,-7.0898,-7.0898,-7.0898,-7.0898,-7.0898,-7.0898,-7.0898,-7.0898,-7.0898,-7.0898,-7.0898,-7.0898,-7.0885,-7.0772,-7.0737,-7.0708,-7.0515,-7.0451,-7.049,-7.0724,-7.1199,-7.1806,-7.2308,-7.2864,-7.3514,-7.4316,-7.4622,-7.4698,-7.531,-7.5518,-7.5518,-7.5518,-7.5518,-7.5518,-7.5518,-7.5518,-7.5518,-7.5518,-7.5518,-7.5348,-7.4736,-7.4622,-7.4393,-7.3552,-7.3361,-7.3132,-7.2291,-7.21,-7.1833,-7.0954,-7.0801,-7.0724,-7.0457,-7.0419,-7.0419,-7.0419,-7.0419,-7.0419,-7.0419,-7.0419,-7.0419,-7.0419,-7.0419,-7.0419,-7.0419,-7.0419,-7.0419,-7.0419,-7.0419,-7.0419,-7.0419,-7.0686,-7.0577,-7.0195,-7.0991,-7.1383,-7.132,-7.1907,-7.2536,-6.6914,-6.6914,-6.6914,-6.6914,0.0,0.0,-6.6914,-6.6914,-6.6914,-6.6914,-6.6914,-6.6914,-6.6914,-6.6911,-6.68,-6.6468,-6.6327,-6.623,-6.5933,-6.5897,-6.5897,-6.5897,-6.5897,-6.5897,-6.5897,-6.5897,-6.6244,-6.7051,-6.7936,-6.8783,-6.9667,-7.0475,-7.0898,-7.0898,-7.0898,-7.0898,-7.0898,-7.0898,-7.0898,-7.0898,-7.0898,-7.0898,-7.0898,-7.0898,-7.0898,-7.0898,-7.0815,-7.0743,-7.0708,-7.0616,-7.0623,-7.0684,-7.1407,-7.1746,-7.1985,-7.3624,-7.4201,-7.4354,-7.5195,-7.5518,-7.5518,-7.5518,-7.5518,-7.5518,-7.5518,-7.5518,-7.5518,-7.5518,-7.5518,-7.5518,-7.5518,-7.5518,-7.5518,-7.5518,-7.5518,-7.5271,-7.4393,-7.4201,-7.3972,-7.317,-7.3017,-7.2711,-7.1871,-7.1735,-7.1412,-7.0533,-7.0419,-7.0419,-7.0419,-7.0419,-7.0419,-7.0419,-7.0419,-7.0419,-7.0419,-7.0419,-7.0419,-7.0419,-7.0419,-7.0419,-7.0419,-7.0419,-7.0419,-7.0419,-7.1259,-7.1471,-7.1029,-7.1882,-7.2736,-7.3532,-7.3532,-7.4239,-6.6914,-6.6914,-6.6914,-6.6914,0.0,0.0,0.0,-6.6914,0.0,0.0,-6.6914,-6.6914,-6.6914,-6.6911,-6.68,-6.6468,-6.6327,-6.623,-6.5933,-6.5897,-6.5897,-6.5897,-6.5897,-6.5897,-6.5897,-6.6397,-6.6821,-6.709,-6.8475,-6.9436,-6.9706,-7.0475,-7.0898,-7.0898,-7.0898,-7.0898,-7.0898,-7.0898,-7.0898,-7.0898,-7.0898,-7.0898,-7.0898,-7.0898,-7.0898,-7.0898,-7.0815,-7.0743,-7.0708,-7.0616,-7.0623,-7.07,-7.1574,-7.2225,-7.2843,-7.3921,-7.4673,-7.5157,-7.5386,-7.5518,-7.5518,-7.5518,-7.5518,-7.5518,-7.5518,-7.5518,-7.5518,-7.5518,-7.5518,-7.5518,-7.5518,-7.5518,-7.5518,-7.5518,-7.5518,-7.5442,-7.5157,-7.5119,-7.4851,-7.401,-7.3858,-7.359,-7.275,-7.2597,-7.2329,-7.145,-7.1298,-7.1107,-7.0495,-7.0419,-7.0419,-7.0419,-7.0419,-7.0419,-7.0419,-7.0419,-7.0419,-7.0419,-7.0992,-7.103,-7.0419,-7.0419,-7.0686,-7.1298,-7.1565,-7.1935,-7.2404,-7.3242,-7.3776,-7.4005,-7.4615,-7.4923,-6.6914,-6.6914,-6.6914,-6.6914,-6.6914,-6.6914,-6.6914,0.0,0.0,0.0,-6.6914,-6.6914,-6.6914,-6.6912,-6.6805,-6.6429,-6.6379,-6.6248,-6.5946,-6.5897,-6.5897,-6.5897,-6.5897,-6.5897,-6.5897,-6.6628,-6.7244,-6.759,-6.8898,-6.986,-7.0167,-7.0629,-7.0898,-7.0898,-7.0898,-7.0898,-7.0898,-7.0898,-7.0898,-7.0898,-7.0898,-7.0898,-7.0898,-7.0898,-7.0898,-7.0898,-7.0787,-7.0743,-7.0714,-7.0632,-7.0846,-7.1268,-7.2126,-7.2977,-7.3773,-7.4582,-7.5128,-7.5518,-7.5518,-7.5518,-7.5518,-7.5518,-7.5518,-7.5518,-7.5518,-7.5518,-7.5518,-7.5518,-7.5518,-7.5518,-7.5518,-7.5518,-7.5518,-7.5518,-7.5518,-7.5518,-7.5518,-7.5518,-7.5348,-7.4813,-7.4736,-7.4431,-7.3628,-7.3476,-7.317,-7.2329,-7.2215,-7.2024,-7.1489,-7.1145,-7.0916,-7.0916,-7.0916,-7.0916,-7.0916,-7.1221,-7.145,-7.145,-7.1909,-7.1985,-7.145,-7.145,-7.168,-7.2215,-7.252,-7.2941,-7.3476,-7.4316,-7.4736,-7.4736,-7.5053,-7.5,-6.6914,-6.6914,-6.6914,-6.6914,-6.6914,-6.6914,-6.6914,-6.6914,-6.6914,-6.6914,0.0,-6.6914,-6.6914,-6.6913,-6.6774,-6.6435,-6.6393,-6.6281,-6.5946,-6.5897,-6.5897,-6.5897,-6.5897,-6.5936,-6.6013,-6.6744,-6.759,-6.8436,-6.9321,-7.0129,-7.086,-7.0898,-7.0898,-7.0898,-7.0898,-7.0898,-7.0898,-7.0898,-7.0898,-7.0898,-7.0898,-7.0898,-7.0898,-7.0898,-7.0898,-7.0885,-7.0758,-7.0729,-7.0825,-7.0739,-7.1268,-7.2169,-7.3031,-7.3829,-7.4603,-7.5327,-7.5549,-7.5518,-7.5518,-7.5518,-7.5518,-7.5518,-7.5518,-7.5518,-7.5518,-7.5518,-7.5518,-7.5518,-7.5518,-7.5518,-7.5518,-7.5518,-7.5518,-7.5518,-7.5518,-7.5518,-7.5518,-7.5518,-7.5518,-7.5518,-7.5518,-7.5233,-7.4469,-7.4316,-7.4049,-7.3246,-7.3055,-7.2979,-7.2979,-7.2291,-7.1794,-7.1794,-7.1794,-7.1794,-7.1794,-7.252,-7.2979,-7.2979,-7.3055,-7.3093,-7.3093,-7.3055,-7.3017,-7.3093,-7.3819,-7.424,-7.4316,-7.5119,-7.5518,-7.5501,-7.4942,-7.4705,-6.6914,-6.6914,0.0,-6.6914,-6.6914,-6.6914,-6.6914,-6.6914,-6.6914,-6.6914,-6.6914,-6.6914,-6.6914,-6.6913,-6.6774,-6.6435,-6.6393,-6.6281,-6.5946,-6.5897,-6.5897,-6.5897,-6.5897,-6.6128,-6.6782,-6.7628,-6.8475,-6.936,-7.0167,-7.0706,-7.0898,-7.0898,-7.0898,-7.0898,-7.0898,-7.0898,-7.0898,-7.0898,-7.0898,-7.0898,-7.0898,-7.0898,-7.0898,-7.0898,-7.0898,-7.0898,-7.0801,-7.0772,-7.0863,-7.1526,-7.1924,-7.2261,-7.3803,-7.442,-7.4619,-7.5408,-7.5599,-7.5518,-7.5518,-7.5518,-7.5518,-7.5518,-7.5518,-7.5518,-7.5518,-7.5518,-7.5518,-7.5518,-7.5518,-7.5518,-7.5518,-7.5518,-7.5518,-7.5518,-7.5518,-7.5518,-7.5518,-7.5518,-7.5518,-7.5518,-7.5518,-7.5442,-7.5233,-7.5233,-7.4927,-7.4087,-7.3399,-7.2979,-7.2979,-7.2826,-7.2711,-7.2711,-7.2711,-7.2711,-7.2711,-7.2902,-7.2979,-7.2979,-7.359,-7.3934,-7.3934,-7.3323,-7.3284,-7.3934,-7.4125,-7.4545,-7.5233,-7.5386,-7.5518,-7.5501,-7.4942,-7.4705,-6.6914,0.0,0.0,-6.6914,0.0,-6.6914,-6.6914,-6.6914,-6.6914,-6.6914,-6.6914,-6.6914,-6.6914,-6.6914,-6.6779,-6.6435,-6.6413,-6.6267,-6.5946,-6.5897,-6.5897,-6.5897,-6.5897,-6.6205,-6.7013,-6.7898,-6.8783,-6.9629,-7.0437,-7.0898,-7.0898,-7.0898,-7.0898,-7.0898,-7.0898,-7.0898,-7.0898,-7.0898,-7.0898,-7.0898,-7.0898,-7.0898,-7.0898,-7.0898,-7.0898,-7.0898,-7.0815,-7.0815,-7.092,-7.1737,-7.2352,-7.288,-7.4149,-7.4843,-7.5117,-7.5491,-7.5583,-7.5518,-7.5518,-7.5518,-7.5518,-7.5518,-7.5518,-7.5518,-7.5518,-7.5518,-7.5518,-7.5518,-7.5518,-7.5518,-7.5518,-7.5518,-7.5518,-7.5518,-7.5518,-7.5518,-7.5518,-7.5518,-7.5518,-7.5518,-7.5518,-7.5518,-7.5518,-7.5518,-7.5348,-7.4889,-7.4469,-7.4201,-7.4201,-7.3819,-7.3552,-7.3552,-7.3552,-7.3552,-7.3552,-7.3972,-7.4201,-7.4201,-7.4584,-7.4813,-7.4813,-7.4431,-7.4393,-7.4813,-7.4813,-7.5042,-7.5518,-7.5518,-7.5374,-7.5114,-7.4602,-7.4221,-6.6914,0.0,-6.6914,-6.6914,-6.6914,0.0,-6.6914,-6.6914,-6.6914,-6.6914,-6.6914,-6.6914,-6.6914,-6.6914,-6.6785,-6.6441,-6.6387,-6.6291,-6.5958,-6.5897,-6.5897,-6.5897,-6.6013,-6.6436,-6.7244,-6.8129,-6.8975,-6.986,-7.0514,-7.0898,-7.0898,-7.0898,-7.0898,-7.0898,-7.0898,-7.0898,-7.0898,-7.0898,-7.0898,-7.0898,-7.0898,-7.0898,-7.0898,-7.0898,-7.0898,-7.0898,-7.0829,-7.092,-7.1206,-7.1996,-7.288,-7.3769,-7.4518,-7.5211,-7.5692,-7.5649,-7.5549,-7.5518,-7.5518,-7.5518,-7.5518,-7.5518,-7.5518,-7.5518,-7.5518,-7.5518,-7.5518,-7.5518,-7.5518,-7.5518,-7.5518,-7.5518,-7.5518,-7.5518,-7.5518,-7.5518,-7.5518,-7.5518,-7.5518,-7.5518,-7.5518,-7.5518,-7.5518,-7.5518,-7.5518,-7.5518,-7.5518,-7.5518,-7.5518,-7.4851,-7.4431,-7.4431,-7.4431,-7.4431,-7.4431,-7.508,-7.5518,-7.5518,-7.5518,-7.5518,-7.5518,-7.5518,-7.5518,-7.5518,-7.5518,-7.5518,-7.5518,-7.5518,-7.5226,-7.4705,-7.4199,-7.375,0.0,0.0,-6.6914,0.0,-6.6914,-6.6914,0.0,0.0,-6.6914,0.0,-6.6914,-6.6914,-6.6914,-6.6914,-6.6785,-6.6441,-6.6387,-6.6291,-6.5958,-6.5897,-6.5897,-6.5897,-6.6513,-6.7282,-6.8129,-6.9013,-6.986,-7.0667,-7.0821,-7.0898,-7.0898,-7.0898,-7.0898,-7.0898,-7.0898,-7.0898,-7.0898,-7.0898,-7.0898,-7.0898,-7.0898,-7.0898,-7.0898,-7.0898,-7.0898,-7.0898,-7.0885,-7.1308,-7.2091,-7.2962,-7.3808,-7.463,-7.5462,-7.5756,-7.5692,-7.5676,-7.5616,-7.5518,-7.5518,-7.5518,-7.5518,-7.5518,-7.5518,-7.5518,-7.5518,-7.5518,-7.5518,-7.5518,-7.5518,-7.5518,-7.5518,-7.5518,-7.5518,-7.5518,-7.5518,-7.5518,-7.5518,-7.5518,-7.5518,-7.5518,-7.5518,-7.5518,-7.5518,-7.5518,-7.5518,-7.5518,-7.5518,-7.5518,-7.5518,-7.5403,-7.531,-7.531,-7.531,-7.531,-7.531,-7.5442,-7.5518,-7.5518,-7.5518,-7.5518,-7.5518,-7.5518,-7.5518,-7.5518,-7.5518,-7.5518,-7.5518,-7.5518,-7.5226,-7.4705,-7.4199,-7.375,-6.6914,0.0,0.0,0.0,-6.6914,-6.6914,-6.6914,0.0,-6.6914,-6.6914,-6.6914,-6.6914,-6.6914,-6.6914,-6.6785,-6.6441,-6.6387,-6.6291,-6.5958,-6.5897,-6.6051,-6.6513,-6.6859,-6.7628,-6.9013,-6.9475,-7.0014,-7.0821,-7.0898,-7.0898,-7.0898,-7.0898,-7.0898,-7.0898,-7.0898,-7.0898,-7.0898,-7.0898,-7.0898,-7.0898,-7.0898,-7.0898,-7.0898,-7.0898,-7.0898,-7.0937,-7.1398,-7.186,-7.2283,-7.363,-7.4399,-7.4769,-7.561,-7.5841,-7.5692,-7.5682,-7.5583,-7.5518,-7.5518,-7.5518,-7.5518,-7.5518,-7.5518,-7.5518,-7.5518,-7.5518,-7.5518,-7.5518,-7.5518,-7.5518,-7.5518,-7.5518,-7.5518,-7.5518,-7.5518,-7.5518,-7.5518,-7.5518,-7.5518,-7.5518,-7.5518,-7.5518,-7.5518,-7.5518,-7.5518,-7.5518,-7.5518,-7.5518,-7.5518,-7.5518,-7.5518,-7.5518,-7.5518,-7.5518,-7.5518,-7.5518,-7.5518,-7.5518,-7.5518,-7.5518,-7.5518,-7.5518,-7.5518,-7.5518,-7.5518,-7.5518,-7.5518,-7.5518,-7.5076,-7.4287,-7.4124,-7.3579,0.0,0.0,0.0,0.0,0.0,0.0,0.0,0.0,-6.6914,0.0,-6.6914,-6.6914,-6.6914,-6.6914,-6.6785,-6.6491,-6.6393,-6.6299,-6.5982,-6.6102,-6.6436,-6.7013,-6.7475,-6.8282,-6.959,-6.9898,-7.0244,-7.086,-7.0898,-7.0898,-7.0898,-7.0898,-7.0898,-7.0898,-7.0898,-7.0898,-7.0898,-7.0898,-7.0898,-7.0898,-7.0898,-7.0898,-7.0898,-7.0898,-7.1014,-7.1283,-7.1898,-7.2322,-7.2629,-7.4091,-7.4822,-7.5077,-7.5671,-7.5826,-7.5692,-7.5649,-7.5566,-7.5518,-7.5518,-7.5518,-7.5518,-7.5518,-7.5518,-7.5518,-7.5518,-7.5518,-7.5518,-7.5518,-7.5518,-7.5518,-7.5518,-7.5518,-7.5518,-7.5518,-7.5518,-7.5518,-7.5518,-7.5518,-7.5518,-7.5518,-7.5518,-7.5518,-7.5518,-7.5518,-7.5518,-7.5518,-7.5518,-7.5518,-7.5518,-7.5518,-7.5518,-7.5518,-7.5518,-7.5518,-7.5518,-7.5518,-7.5518,-7.5518,-7.5518,-7.5518,-7.5518,-7.5518,-7.5518,-7.5518,-7.5518,-7.5518,-7.5518,-7.5518,-7.5038,-7.4192,-7.4079,-7.3529,0.0,0.0,0.0,0.0,0.0,0.0,0.0,0.0,-6.6914,-6.6914,-6.6914,-6.6914,-6.6914,-6.6914,-6.6826,-6.6556,-6.6451,-6.6307,-6.604,-6.6602,-6.7051,-6.709,-6.8552,-6.959,-6.9706,-7.0398,-7.086,-7.0898,-7.0898,-7.0898,-7.0898,-7.0898,-7.0898,-7.0898,-7.0898,-7.0898,-7.0898,-7.0898,-7.0898,-7.0898,-7.0898,-7.0898,-7.0898,-7.0898,-7.136,-7.2129,-7.2168,-7.2668,-7.3514,-7.4361,-7.5207,-7.5938,-7.5976,-7.5872,-7.5692,-7.5692,-7.5616,-7.5518,-7.5518,-7.5518,-7.5518,-7.5518,-7.5518,-7.5518,-7.5518,-7.5518,-7.5518,-7.5518,-7.5518,-7.5518,-7.5518,-7.5518,-7.5518,-7.5518,-7.5518,-7.5518,-7.5518,-7.5518,-7.5518,-7.5518,-7.5518,-7.5518,-7.5518,-7.5518,-7.5518,-7.5518,-7.5518,-7.5518,-7.5518,-7.5518,-7.5518,-7.5518,-7.5518,-7.5518,-7.5518,-7.5518,-7.5518,-7.5518,-7.5518,-7.5518,-7.5518,-7.5518,-7.5518,-7.5518,-7.5518,-7.5518,-7.5518,-7.5518,-7.5226,-7.4664,-7.4199,-7.3725,0.0,0.0,0.0,0.0,0.0,0.0,-6.6914,-6.6914,-6.6914,-6.6914,-6.6914,-6.6914,-6.6914,-6.6914,-6.6826,-6.6556,-6.6451,-6.6501,-6.6734,-6.6948,-6.7513,-6.8629,-6.9321,-6.9898,-7.0437,-7.0744,-7.0898,-7.0898,-7.0898,-7.0898,-7.0898,-7.0898,-7.0898,-7.0898,-7.0898,-7.0898,-7.0898,-7.0898,-7.0898,-7.0898,-7.0898,-7.0898,-7.0937,-7.1475,-7.1898,-7.2245,-7.3322,-7.3976,-7.4361,-7.5168,-7.5707,-7.6015,-7.6015,-7.5955,-7.581,-7.5708,-7.5649,-7.5549,-7.5497,-7.5518,-7.5518,-7.5518,-7.5518,-7.5518,-7.5518,-7.5518,-7.5518,-7.5518,-7.5518,-7.5518,-7.5518,-7.5518,-7.5518,-7.5518,-7.5518,-7.5518,-7.5518,-7.5518,-7.5518,-7.5518,-7.5518,-7.5518,-7.5518,-7.5518,-7.5518,-7.5518,-7.5518,-7.5518,-7.5518,-7.5518,-7.5518,-7.5518,-7.5518,-7.5518,-7.5518,-7.5518,-7.5518,-7.5518,-7.5518,-7.5518,-7.5518,-7.5518,-7.5518,-7.5518,-7.5151,-7.5151,-7.5518,-7.5518,-7.5057,-7.4243,-7.4101,-7.3554,-6.7344,0.0,0.0,0.0,0.0,-6.6914,-6.6914,0.0,-6.6914,-6.6914,-6.6914,-6.6992,-6.7265,-6.7344,-6.7256,-6.6995,-6.6891,-6.7021,-6.7606,-6.7859,-6.8424,-6.9552,-6.9937,-7.0321,-7.086,-7.0898,-7.0898,-7.0898,-7.0898,-7.0898,-7.0898,-7.0898,-7.0898,-7.0898,-7.0898,-7.0898,-7.0898,-7.0898,-7.0898,-7.0898,-7.0898,-7.1052,-7.136,-7.1937,-7.2514,-7.3091,-7.4207,-7.4707,-7.4784,-7.563,-7.6015,-7.6015,-7.6015,-7.597,-7.5879,-7.5763,-7.5682,-7.5583,-7.5497,-7.5518,-7.5518,-7.5518,-7.5518,-7.5518,-7.5518,-7.5518,-7.5518,-7.5518,-7.5518,-7.5518,-7.5518,-7.5518,-7.5518,-7.5518,-7.5518,-7.5518,-7.5518,-7.5518,-7.5518,-7.5518,-7.5518,-7.5518,-7.5518,-7.5518,-7.5518,-7.5518,-7.5518,-7.5518,-7.5518,-7.5518,-7.5518,-7.5518,-7.5518,-7.5518,-7.5518,-7.5518,-7.5518,-7.5518,-7.5518,-7.5518,-7.5518,-7.5518,-7.5518,-7.5518,-7.5132,-7.5076,-7.5245,-7.5076,-7.4661,-7.4009,-7.4009,-7.3802,0.0,0.0,0.0,0.0,0.0,0.0,-6.6953,0.0,-6.6953,-6.6992,-6.6992,-6.7226,-6.8086,-6.8242,-6.8156,-6.7911,-6.7815,-6.7952,-6.8552,-6.9309,-6.9785,-6.9744,-7.0437,-7.0898,-7.0898,-7.0898,-7.0898,-7.0898,-7.0898,-7.0898,-7.0898,-7.0898,-7.0898,-7.0898,-7.0898,-7.0898,-7.0898,-7.0898,-7.0898,-7.0898,-7.0937,-7.136,-7.2206,-7.2245,-7.3168,-7.4707,-7.4745,-7.4745,-7.4822,-7.5668,-7.6015,-7.6015,-7.6015,-7.597,-7.5879,-7.5763,-7.5644,-7.5583,-7.5535,-7.5518,-7.5518,-7.5518,-7.5518,-7.5518,-7.5518,-7.5518,-7.5518,-7.5518,-7.5518,-7.5518,-7.5518,-7.5518,-7.5518,-7.5518,-7.5518,-7.5518,-7.5518,-7.5518,-7.5518,-7.5518,-7.5518,-7.5518,-7.5518,-7.5518,-7.5518,-7.5518,-7.5518,-7.5518,-7.5518,-7.5518,-7.5518,-7.5518,-7.5518,-7.5518,-7.5518,-7.5518,-7.5518,-7.5518,-7.5518,-7.5518,-7.5518,-7.5501,-7.5556,-7.5556,-7.5539,-7.5303,-7.4781,-7.4281,-7.4033,-7.4047,-7.4047,-7.4521,-6.9062,0.0,0.0,0.0,0.0,0.0,-6.8711,-6.8711,-6.8711,-6.8789,-6.8789,-6.8828,-6.9023,-6.9101,-6.925,-6.9626,-6.9101,-6.8854,-6.944,-6.9694,-6.9977,-7.0527,-7.0744,-7.0898,-7.0898,-7.0898,-7.0898,0.0,-7.0898,-7.0898,-7.0898,-7.0898,-7.0898,-7.0898,-7.0898,-7.0898,-7.0898,-7.0898,-7.0898,-7.0898,-7.1552,-7.1975,-7.2245,-7.3476,-7.4245,-7.4745,-7.5361,-7.563,-7.5668,-7.5899,-7.6015,-7.6015,-7.6015,-7.6,-7.597,-7.5895,-7.5763,-7.5644,-7.5599,-7.5514,-7.5518,-7.5518,-7.5518,-7.5518,-7.5518,-7.5518,-7.5518,-7.5518,-7.5518,-7.5518,-7.5518,-7.5518,-7.5518,-7.5518,-7.5518,-7.5518,-7.5518,-7.5518,-7.5518,-7.5518,-7.5518,-7.5518,-7.5518,-7.5518,-7.5518,-7.5518,-7.5518,-7.5518,-7.5518,-7.5518,-7.5518,-7.5518,-7.5518,-7.5518,-7.5518,-7.5518,-7.5518,-7.5518,-7.5518,-7.5518,-7.5518,-7.6036,-7.6379,-7.6379,-7.6637,-7.6744,-7.6583,-7.555,-7.5026,-7.4972,-7.5535,-7.5948,0.0,0.0,0.0,0.0,0.0,0.0,-6.9414,-6.9414,-6.9414,-6.9453,-6.9453,-6.957,-6.9883,-6.9959,-7.0169,-7.0829,-7.0421,-7.0097,-7.0355,-7.0374,-7.0465,-7.0873,-7.0898,-7.0898,-7.0898,-7.0898,-7.0898,-7.0898,-7.0898,-7.0898,-7.0898,-7.0898,-7.0898,-7.0898,-7.0898,-7.0898,-7.0898,-7.0898,-7.0898,-7.0898,-7.1783,-7.2399,-7.2783,-7.4091,-7.4899,-7.5284,-7.5784,-7.6015,-7.6015,-7.6015,-7.6015,-7.6015,-7.6015,-7.6015,-7.6,-7.5925,-7.581,-7.5676,-7.5633,-7.5549,-7.5518,-7.5518,-7.5518,-7.5518,-7.5518,-7.5518,-7.5518,-7.5518,-7.5518,-7.5518,-7.5518,-7.5518,-7.5518,-7.5518,-7.5518,-7.5518,-7.5518,-7.5518,-7.5518,-7.5518,-7.5518,-7.5518,-7.5518,-7.5518,-7.5518,-7.5518,-7.5518,-7.5518,-7.5518,-7.5518,-7.5518,-7.5518,-7.5518,-7.5518,-7.5518,-7.5806,-7.5997,-7.5997,-7.6341,-7.6532,-7.6532,-7.6991,-7.7258,-7.7258,-7.7456,-7.7606,-7.7606,-7.646,-7.599,-7.6135,-7.6648,-7.7115,0.0,0.0,0.0,-6.9883,-6.9726,0.0,-6.9687,-6.9687,-6.9687,-6.9687,-6.9687,-6.9922,-7.0703,-7.0809,-7.0961,-7.1619,-7.1542,-7.1358,-7.1116,-7.1093,-7.1043,-7.0912,-7.0898,-7.0898,-7.0898,-7.0898,-7.0898,-7.0898,-7.0898,-7.0898,-7.0898,-7.0898,-7.0898,-7.0898,-7.0898,-7.0898,-7.0898,-7.0898,-7.0937,-7.1052,-7.1937,-7.2783,-7.3654,-7.4476,-7.5284,-7.6015,-7.6015,-7.6015,-7.6015,-7.6015,-7.6015,-7.6015,-7.6015,-7.6015,-7.6,-7.5925,-7.581,-7.5692,-7.5649,-7.5549,-7.5518,-7.5518,-7.5518,-7.5518,-7.5518,-7.5518,-7.5518,-7.5518,-7.5518,-7.5518,-7.5518,-7.5518,-7.5518,-7.5518,-7.5518,-7.5518,-7.5518,-7.5518,-7.5518,-7.5518,-7.5518,-7.5518,-7.5518,-7.5518,-7.5518,-7.5518,-7.5518,-7.5518,-7.5518,-7.5594,-7.5633,-7.5633,-7.5709,-7.5768,-7.5768,-7.6418,-7.6838,-7.6838,-7.7564,-7.8022,-7.8022,-7.8099,-7.8137,-7.8137,-7.8213,-7.829,-7.829,-7.7225,-7.701,-7.7517,-7.7593,-7.831,0.0,0.0,0.0,-7.1523,-7.1484,0.0,-7.1484,-7.1484,-7.1484,-7.1484,-7.1484,-7.1523,-7.1719,-7.1757,-7.175,-7.1783,-7.1643,-7.1466,-7.1139,-7.1056,-7.0992,-7.0912,-7.0898,-7.0898,-7.0898,-7.0898,-7.0898,-7.0898,-7.0898,-7.0898,-7.0898,-7.0898,-7.0898,-7.0898,-7.0898,-7.0898,-7.0898,-7.0898,-7.1245,-7.1937,-7.2822,-7.3668,-7.4514,-7.5361,-7.5822,-7.6015,-7.6015,-7.6015,-7.6015,-7.6015,-7.6015,-7.6015,-7.6015,-7.6015,-7.6015,-7.6,-7.594,-7.5848,-7.5731,-7.5649,-7.5566,-7.5535,-7.5518,-7.5518,-7.5518,-7.5518,-7.5518,-7.5518,-7.5518,-7.5518,-7.5518,-7.5518,-7.5518,-7.5518,-7.5518,-7.5518,-7.5518,-7.5518,-7.5518,-7.5518,-7.5518,-7.5518,-7.5518,-7.5518,-7.5518,-7.5518,-7.5518,-7.5518,-7.5518,-7.6074,-7.6456,-7.6456,-7.7105,-7.7526,-7.7526,-7.7678,-7.7755,-7.7755,-7.7908,-7.8022,-7.8022,-7.8672,-7.9054,-7.9054,-7.9665,-8.0009,-8.0009,-7.8739,-7.8394,-7.8923,-7.9553,-8.0011,-7.1758,-7.1992,-7.1992,-7.1992,-7.1992,0.0,0.0,-7.1992,-7.1992,-7.1992,-7.1992,-7.1992,-7.1992,-7.1949,-7.1852,-7.1753,-7.1569,-7.1383,-7.1163,-7.1068,-7.0979,-7.0912,-7.0898,-7.0898,-7.0898,-7.0898,-7.0898,-7.0898,-7.0898,-7.0898,-7.0898,-7.0898,-7.0898,-7.0898,-7.0898,-7.0898,-7.0898,-7.1321,-7.1783,-7.2206,-7.3476,-7.4322,-7.4745,-7.5592,-7.6015,-7.6015,-7.6015,-7.6015,-7.6015,-7.6015,-7.6015,-7.6015,-7.6015,-7.6015,-7.6015,-7.6015,-7.5955,-7.5879,-7.5763,-7.5666,-7.5583,-7.5535,-7.5518,-7.5518,-7.5518,-7.5518,-7.5518,-7.5514,-7.5535,-7.5518,-7.5518,-7.5518,-7.5518,-7.5518,-7.5518,-7.5518,-7.5518,-7.5518,-7.5518,-7.5518,-7.5806,-7.5959,-7.5577,-7.5518,-7.5633,-7.6036,-7.6112,-7.6265,-7.6685,-7.7105,-7.7335,-7.7335,-7.7755,-7.8022,-7.8022,-7.8404,-7.8634,-7.8634,-7.9016,-7.9245,-7.9245,-7.9665,-7.9895,-7.9895,-8.0277,-8.0525,-8.0542,-7.9896,-7.9686,-7.9895,-8.0315,-8.0543,-7.1719,-7.1992,-7.1992,-7.1992,-7.1992,-7.1992,0.0,0.0,0.0,-7.1992,0.0,0.0,0.0,0.0,0.0,-7.1538,0.0,0.0,0.0,-7.1035,0.0,-7.0925,-7.0912,-7.0898,-7.0898,-7.0898,-7.0898,-7.0898,-7.0898,-7.0898,-7.0898,-7.0898,-7.0898,-7.0898,-7.0898,-7.0975,-7.1168,-7.186,-7.236,-7.2706,-7.4053,-7.4784,-7.4976,-7.5668,-7.6015,-7.6015,-7.6015,-7.6015,-7.6015,-7.6015,-7.6015,-7.6015,-7.6015,-7.6015,-7.6015,-7.6015,-7.597,-7.591,-7.5779,-7.5715,-7.5633,-7.5549,-7.5532,-7.5532,-7.5532,-7.5514,-7.5553,-7.5583,-7.5549,-7.5535,-7.5518,-7.5518,-7.5535,-7.5518,-7.5518,-7.5556,-7.5692,-7.573,-7.5768,-7.5959,-7.6494,-7.6685,-7.5844,-7.5844,-7.6188,-7.6838,-7.6953,-7.722,-7.7908,-7.8137,-7.8252,-7.8252,-7.8404,-7.8481,-7.8481,-7.913,-7.9513,-7.9513,-8.0124,-8.0506,-8.0506,-8.0525,-8.0543,-8.0543,-8.0562,-8.056,-8.0632,-8.0632,-8.0596,-8.0562,-8.0562,-8.0598,0.0,-7.1992,-7.1992,-7.1992,-7.1992,-7.1992,-7.1992,0.0,-7.1992,-7.1992,0.0,0.0,0.0,0.0,0.0,0.0,0.0,0.0,-7.0445,-7.0824,-7.1142,-7.0979,-7.0939,-7.0898,-7.0898,-7.0898,-7.0898,-7.0898,-7.0898,-7.0898,-7.0898,-7.0898,-7.0898,-7.0898,-7.0898,-7.1283,-7.2052,-7.2129,-7.2937,-7.4437,-7.463,-7.5091,-7.5861,-7.5938,-7.6015,-7.6015,-7.6015,-7.6015,-7.6015,-7.6015,-7.6015,-7.6015,-7.6015,-7.6015,-7.6015,-7.6015,-7.6015,-7.5985,-7.591,-7.5864,-7.5848,-7.5731,-7.566,-7.566,-7.566,-7.5649,-7.5583,-7.5599,-7.5583,-7.5566,-7.5535,-7.5532,-7.5566,-7.5535,-7.5518,-7.5692,-7.6418,-7.657,-7.68,-7.7564,-7.7793,-7.7564,-7.6723,-7.7182,-7.7755,-7.7831,-7.787,-7.7908,-7.7984,-7.8672,-7.913,-7.913,-7.978,-8.02,-8.02,-8.0315,-8.0353,-8.0353,-8.043,-8.0506,-8.0506,-8.056,-8.0596,-8.0596,-8.0723,-8.0775,-8.0775,-8.0775,-8.0775,-8.0758,-8.0758,-8.0775,0.0,0.0,0.0,-7.1992,-7.1992,-7.1992,-7.1992,-7.1992,-7.1992,-7.1992,0.0,0.0,0.0,0.0,0.0,0.0,-7.1491,0.0,0.0,0.0,-7.1126,-7.094,0.0,0.0,-7.0898,-7.0898,-7.0898,-7.0898,-7.0898,-7.0898,-7.0898,-7.0898,-7.0898,-7.0898,-7.0898,-7.1321,-7.2168,-7.2706,-7.3553,-7.4707,-7.5207,-7.5668,-7.6015,-7.6015,-7.6015,-7.6015,-7.6015,-7.6015,-7.6015,-7.6015,-7.6015,-7.6015,-7.6015,-7.6015,-7.6015,-7.6015,-7.6015,-7.6,-7.5925,-7.5895,-7.5879,-7.5724,-7.5692,-7.5708,-7.5794,-7.5747,-7.5682,-7.5731,-7.5682,-7.5583,-7.5549,-7.5532,-7.5667,-7.6091,-7.6188,-7.6418,-7.7258,-7.7449,-7.7564,-7.7946,-7.8404,-7.8634,-7.8252,-7.8099,-7.8175,-7.8672,-7.8748,-7.8901,-7.9398,-7.978,-8.0009,-8.0009,-8.0315,-8.0506,-8.0506,-8.0506,-8.0525,-8.056,-8.0652,-8.067,-8.067,-8.0705,-8.0741,-8.0741,-8.0775,-8.0826,-8.0877,-8.0877,-8.0893,-8.0981,-8.0843,-8.0826,-7.1505,0.0,0.0,0.0,0.0,-7.1945,-7.1992,-7.1952,-7.1951,-7.1992,0.0,0.0,0.0,0.0,0.0,0.0,0.0,-7.1504,0.0,-7.1145,0.0,0.0,0.0,0.0,0.0,-7.0898,-7.0898,-7.0898,-7.0898,-7.0898,-7.0898,-7.0898,-7.0898,-7.0898,-7.1129,-7.1668,-7.2552,-7.3399,-7.4245,-7.5053,-7.5707,-7.6015,-7.6015,-7.6015,-7.6015,-7.6015,-7.6015,-7.6015,-7.6015,-7.6015,-7.6015,-7.6015,-7.6015,-7.6015,-7.6015,-7.6015,-7.6015,-7.6,-7.594,-7.5925,-7.591,-7.5826,-7.5772,-7.581,-7.591,-7.5826,-7.5779,-7.5879,-7.5785,-7.5671,-7.5906,-7.5931,-7.6071,-7.6876,-7.7067,-7.7296,-7.8175,-7.8366,-7.8404,-7.8634,-7.9207,-7.9646,-7.9646,-7.9092,-7.8901,-7.9513,-7.9646,-7.9818,-8.043,-8.0506,-8.0506,-8.0506,-8.0506,-8.0525,-8.0543,-8.0543,-8.056,-8.065,-8.0758,-8.0792,-8.0792,-8.0809,-8.0826,-8.0826,-8.086,-8.0893,-8.0959,-8.0959,-8.0991,-8.1093,-8.0965,-8.091,0.0,0.0,0.0,-7.178,0.0,0.0,0.0,0.0,-7.1848,0.0,0.0,0.0,0.0,0.0,0.0,0.0,0.0,0.0,0.0,0.0,0.0,0.0,0.0,0.0,0.0,-7.0898,-7.0898,-7.0898,-7.0898,-7.0898,-7.0898,-7.0898,-7.0898,-7.0898,-7.1706,-7.2591,-7.3437,-7.4284,-7.5091,-7.5976,-7.5976,-7.6015,-7.6015,-7.6015,-7.6015,-7.6015,-7.6015,-7.6015,-7.6015,-7.6015,-7.6015,-7.6015,-7.6015,-7.6015,-7.6015,-7.6015,-7.6015,-7.6015,-7.6015,-7.6015,-7.6015,-7.6015,-7.6015,-7.6015,-7.6015,-7.5955,-7.5879,-7.5895,-7.5794,-7.5868,-7.6667,-7.6863,-7.7058,-7.7773,-7.7946,-7.8213,-7.9072,-7.9263,-7.9493,-8.0277,-8.043,-8.0468,-8.0468,-8.043,-8.043,-8.0468,-8.0468,-8.0468,-8.0506,-8.0506,-8.0506,-8.0506,-8.0506,-8.0543,-8.0596,-8.0614,-8.065,-8.0775,-8.0792,-8.0792,-8.0792,-8.0877,-8.0888,-8.0888,-8.1007,-8.1093,-8.1093,-8.1093,-8.1093,-8.1093,-8.1093,-8.1093,0.0,0.0,-7.1705,-7.1687,0.0,0.0,0.0,0.0,0.0,0.0,0.0,0.0,0.0,0.0,0.0,0.0,0.0,0.0,0.0,0.0,0.0,0.0,0.0,0.0,0.0,0.0,-7.0898,-7.0898,-7.0898,-7.0898,-7.0898,-7.0898,-7.0898,-7.0898,-7.1745,-7.2629,-7.35,-7.4322,-7.513,-7.6015,-7.6015,-7.6015,-7.6015,-7.6015,-7.6015,-7.6015,-7.6015,-7.6015,-7.6015,-7.6015,-7.6015,-7.6015,-7.6015,-7.6015,-7.6015,-7.6015,-7.6015,-7.6015,-7.6015,-7.6015,-7.6015,-7.6015,-7.6015,-7.6015,-7.6015,-7.6,-7.597,-7.597,-7.6263,-7.6613,-7.6952,-7.7335,-7.7847,-7.8724,-7.8879,-7.9092,-7.9933,-8.0086,-8.0162,-8.043,-8.0506,-8.0506,-8.0506,-8.0506,-8.0506,-8.0506,-8.0506,-8.0506,-8.0506,-8.0506,-8.0506,-8.0506,-8.0523,-8.0578,-8.0614,-8.072,-8.0805,-8.0877,-8.0943,-8.1013,-8.1013,-8.1029,-8.1007,-8.1007,-8.1077,-8.1093,-8.1093,-8.1093,-8.1093,-8.1093,-8.1093,-8.1093,-7.1373,-7.1551,0.0,-7.1534,-7.1497,0.0,-7.1503,0.0,-7.1488,0.0,0.0,0.0,0.0,0.0,0.0,0.0,0.0,0.0,0.0,-7.1077,0.0,0.0,0.0,0.0,0.0,-7.0898,-7.0898,-7.0898,-7.0898,-7.0898,0.0,-7.0898,-7.1052,-7.136,-7.2206,-7.3053,-7.3937,-7.4745,-7.5438,-7.6015,-7.6015,-7.6015,-7.6015,-7.6015,-7.6015,-7.6015,-7.6015,-7.6015,-7.6015,-7.6015,-7.6015,-7.6015,-7.6015,-7.6015,-7.6015,-7.6015,-7.6015,-7.6015,-7.6015,-7.6015,-7.6015,-7.6015,-7.6015,-7.6015,-7.6015,-7.6207,-7.6385,-7.5879,-7.66,-7.7489,-7.7347,-7.7896,-7.8706,-7.9619,-7.9777,-7.9856,-8.0391,-8.0506,-8.0506,-8.0506,-8.0506,-8.0506,-8.0506,-8.0543,-8.0543,-8.0506,-8.0543,-8.0523,-8.0523,-8.0598,-8.0616,-8.0616,-8.067,-8.0685,-8.0702,-8.0855,-8.0975,-8.0975,-8.1061,-8.1093,-8.1093,-8.1093,-8.1246,-8.1516,-8.1246,-8.1246,-8.1516,-8.1246,-8.1093,-8.1093,-8.1093,-8.1093]},{"header":{"parameterUnit":"m.s-1","parameterCategory":1,"la1":30.6,"la2":29.2853,"lo1":-89.7004,"lo2":-87.6739,"dy":0.0162,"dx":0.0183,"nx":112,"ny":82,"refTime":"2024-02-22T18:00:00:Z","depth":0,"parameterNumber":3,"parameterNumberName":"V-component_of_WINDS"},"data":[0.0,0.0,0.0,0.0,0.0,0.0,0.0,0.0,0.0,0.0,0.0,0.0,0.0,0.0,0.0,0.0,0.0,0.0,0.0,0.0,0.0,0.0,0.0,0.0,0.0,0.0,0.0,0.0,0.0,0.0,0.0,0.0,0.0,0.0,0.0,0.0,0.0,0.0,0.0,0.0,0.0,0.0,0.0,0.0,0.0,0.0,0.0,0.0,0.0,0.0,0.0,0.0,0.0,0.0,0.0,0.0,0.0,0.0,0.0,0.0,0.0,0.0,0.0,0.0,0.0,0.0,0.0,0.0,0.0,0.0,0.0,0.0,0.0,0.0,0.0,0.0,0.0,0.0,0.0,0.0,0.0,0.0,0.0,0.0,0.0,0.0,0.0,0.0,0.0,0.0,0.6127,0.7956,0.6742,0.5882,0.5882,0.4245,0.3211,0.3217,0.0,0.0,0.0,0.0,0.0,0.0,0.0,0.0,0.0,0.0,0.0,0.0,0.0,0.0,0.0,0.0,0.0,0.0,0.0,0.0,0.0,0.0,0.0,0.0,0.0,0.0,0.0,0.0,0.0,0.0,0.0,0.0,0.0,0.0,0.0,0.0,0.0,0.0,0.0,0.0,0.0,0.0,0.0,0.0,0.0,0.0,0.0,0.0,0.0,0.0,0.0,0.0,0.0,0.0,0.0,0.0,0.0,0.0,0.0,0.0,0.0,0.0,0.0,0.0,0.0,0.0,0.0,0.0,0.0,0.0,0.0,0.0,0.0,0.0,0.0,0.0,0.0,0.0,0.0,0.0,0.0,0.0,0.0,0.0,0.0,0.0,0.0,0.0,0.0,0.0,0.0,0.0,0.0,0.0,0.0,0.0,0.0,0.0,0.0,0.0,0.0,0.0,0.0,0.0,0.6144,0.7952,0.7855,0.7688,0.7688,0.6072,0.507,0.5118,0.0,0.0,0.0,0.0,0.0,0.0,0.0,0.0,0.0,0.0,0.0,0.0,0.0,0.0,0.0,0.0,0.0,0.0,0.0,0.0,0.0,0.0,0.0,0.0,0.0,0.0,0.0,0.0,0.0,0.0,0.0,0.0,0.0,0.0,0.0,0.0,0.0,0.0,0.0,0.0,0.0,0.0,0.0,0.0,0.0,0.0,0.0,0.0,0.0,0.0,0.0,0.0,0.0,0.0,0.0,0.0,0.0,0.0,0.0,0.0,0.0,0.0,0.0,0.0,0.0,0.0,0.0,0.0,0.0,0.0,0.0,0.0,0.0,0.0,0.0,0.0,0.0,0.0,0.0,0.0,0.0,0.0,0.0,0.0,0.0,0.0,0.0,0.0,0.0,0.0,0.0,0.0,0.0,0.0,0.0,0.0,0.0,0.0,0.0,0.0,0.0,0.0,0.0,0.8594,1.0098,1.0892,1.0126,0.9538,0.9538,0.7857,0.644,0.5537,0.4652,0.0,0.0,0.0,0.0,0.0,0.0,0.0,0.0,0.0,0.0,0.0,0.0,0.0,0.0,0.0,0.0,0.0,0.0,0.0,0.0,0.0,0.0,0.0,0.0,0.0,0.0,0.0,0.0,0.0,0.0,0.0,0.0,0.0,0.0,0.0,0.0,0.0,0.0,0.0,0.0,0.0,0.0,0.0,0.0,0.0,0.0,0.0,0.0,0.0,0.0,0.0,0.0,0.0,0.0,0.0,0.0,0.0,0.0,0.0,0.0,0.0,0.0,0.0,0.0,0.0,0.0,0.0,0.0,0.0,0.0,0.0,0.0,0.0,0.0,0.0,0.0,0.0,0.0,0.0,0.0,0.0,0.0,0.0,0.0,0.0,0.0,0.0,0.0,0.0,0.0,0.0,0.0,0.0,0.0,0.0,0.0,0.0,0.0,0.0,0.0,0.0,0.0,1.1449,1.3403,1.3403,1.2146,1.1309,1.1309,0.9638,0.8048,0.671,0.5837,0.0,0.0,0.0,0.0,0.0,0.0,0.0,0.0,0.0,0.0,0.0,0.0,0.0,0.0,0.0,0.0,0.0,0.0,0.0,0.0,0.0,0.0,0.0,0.0,0.0,0.0,0.0,0.0,0.0,0.0,0.0,0.0,0.0,0.0,0.0,0.0,0.0,0.0,0.0,0.0,0.0,0.0,0.0,0.0,0.0,0.0,0.0,0.0,0.0,0.0,0.0,0.0,0.0,0.0,0.0,0.0,0.0,0.0,0.0,0.0,0.0,0.0,0.0,0.0,0.0,0.0,0.0,0.0,0.0,0.0,0.0,0.0,0.0,0.0,0.0,0.0,0.0,0.0,0.0,0.0,0.0,0.0,0.0,0.0,0.0,0.0,0.0,0.0,0.0,0.0,0.0,0.0,0.0,0.0,0.0,0.0,0.0,0.0,0.0,0.0,0.0,0.0,1.2235,1.3403,1.3403,1.3314,1.3231,1.3231,1.1558,1.0471,1.0304,0.7216,0.0,0.0,0.0,0.0,0.0,0.0,0.0,0.0,0.0,0.0,0.0,0.0,0.0,0.0,0.0,0.0,0.0,0.0,0.0,0.0,0.0,0.0,0.0,0.0,0.0,0.0,0.0,0.0,0.0,0.0,0.0,0.0,0.0,0.0,0.0,0.0,0.0,0.0,0.0,0.0,0.0,0.0,0.0,0.0,0.0,0.0,0.0,0.0,0.0,0.0,0.0,0.0,0.0,0.0,0.0,0.0,0.0,0.0,0.0,0.0,0.0,0.0,0.0,0.0,0.0,0.0,0.0,0.0,0.0,0.0,0.0,0.0,0.0,0.0,0.0,0.0,0.0,0.0,0.0,0.0,0.0,0.0,0.0,0.0,0.0,0.0,0.0,0.0,0.0,0.0,0.0,0.0,0.0,0.0,0.0,0.0,0.0,0.0,0.0,0.0,0.0,0.0,1.2312,1.3403,1.3403,1.3403,1.3403,1.3403,1.2816,1.1896,1.0804,0.0,0.0,0.0,0.0,0.0,0.0,0.0,0.0,0.0,0.0,0.0,0.0,0.0,0.0,0.0,0.0,0.0,0.0,0.0,0.0,0.0,0.0,0.0,0.0,0.0,0.0,0.0,0.0,0.0,0.0,0.0,0.0,0.0,0.0,0.0,0.0,0.0,0.0,0.0,0.0,0.0,0.0,0.0,0.0,0.0,0.0,0.0,0.0,0.0,0.0,0.0,0.0,0.0,0.0,0.0,0.0,0.0,0.0,0.0,0.0,0.0,0.0,0.0,0.0,0.0,0.0,0.0,0.0,0.0,0.0,0.0,0.0,0.0,0.0,0.0,0.0,0.0,0.0,0.0,0.0,0.0,0.0,0.0,0.0,0.0,0.0,0.0,0.0,0.0,0.0,0.0,0.0,0.0,0.0,0.0,0.0,0.0,0.0,0.0,0.0,0.0,0.0,1.1417,1.258,1.3308,1.3268,1.3261,1.3261,1.3261,1.3261,1.2762,1.1523,0.0,0.0,0.0,0.0,0.0,0.0,0.0,0.0,0.0,0.0,0.0,0.0,0.0,0.0,0.0,0.0,0.0,0.0,0.0,0.0,0.0,0.0,0.0,0.0,0.0,0.0,0.0,0.0,0.0,0.0,0.0,0.0,0.0,0.0,0.0,0.0,0.0,0.0,0.0,0.0,0.0,0.0,0.0,0.0,0.0,0.0,0.0,0.0,0.0,0.0,0.0,0.0,0.0,0.0,0.0,0.0,0.0,0.0,0.0,0.0,0.0,0.0,0.0,0.0,0.0,0.0,0.0,0.0,0.0,0.0,0.0,0.0,0.0,0.0,0.0,0.0,0.0,0.0,0.0,0.0,0.0,0.0,0.0,0.0,0.0,0.0,0.0,0.0,0.0,0.0,0.0,0.0,0.0,0.0,0.0,0.0,0.0,0.0,0.0,0.0,0.0,0.0,1.2942,1.3173,1.3119,1.2976,1.2963,1.2963,1.2963,1.2963,1.2963,0.0,0.0,0.0,0.0,0.0,0.0,0.0,0.0,0.0,0.0,0.0,0.0,0.0,0.0,0.0,0.0,0.0,0.0,0.0,0.0,0.0,0.0,0.0,0.0,0.0,0.0,0.0,0.0,0.0,0.0,0.0,0.0,0.0,0.0,0.0,0.0,0.0,0.0,0.0,0.0,0.0,0.0,0.0,0.0,0.0,0.0,0.0,0.0,0.0,0.0,0.0,0.0,0.0,0.0,0.0,0.0,0.0,0.0,0.0,0.0,0.0,0.0,0.0,0.0,0.0,0.0,0.0,0.0,0.0,0.0,0.0,0.0,0.0,0.0,0.0,0.0,0.0,0.0,0.0,0.0,0.0,0.0,0.0,0.0,0.0,0.0,0.0,0.0,0.0,0.0,0.0,0.0,0.0,0.0,0.0,0.0,0.0,0.0,0.0,0.0,0.0,0.0,0.0,1.3044,1.3024,1.301,1.2969,1.2963,1.2963,1.2963,1.2963,1.2963,1.2963,0.0,0.0,0.0,0.0,0.0,0.0,0.0,0.0,0.0,0.0,0.0,0.0,0.0,0.0,0.0,0.0,0.0,0.0,0.0,0.0,0.0,0.0,0.0,0.0,0.0,0.0,0.0,0.0,0.0,0.0,0.0,0.0,0.0,0.0,0.0,0.0,0.0,0.0,0.0,0.0,0.0,0.0,0.0,0.0,0.0,0.0,0.0,0.0,0.0,0.0,0.0,0.0,0.0,0.0,0.0,0.0,0.0,0.0,0.0,0.0,0.0,0.0,0.0,0.0,0.0,0.0,0.0,0.0,0.0,0.0,0.0,0.0,0.0,0.0,0.0,0.0,0.0,0.0,0.0,0.0,0.0,0.0,0.0,0.0,0.0,0.0,0.0,0.0,0.0,0.0,0.0,0.0,0.0,0.0,0.0,0.0,0.0,0.0,0.0,0.0,0.0,0.0,1.3127,1.3265,1.3403,1.3261,1.3253,1.3174,1.3016,1.3016,1.2937,1.2779,0.0,0.0,0.0,0.0,0.0,0.0,0.0,0.0,0.0,0.0,0.0,0.0,0.0,0.0,0.0,0.0,0.0,0.0,0.0,0.0,0.0,0.0,0.0,0.0,0.0,0.0,0.0,0.0,0.0,0.0,0.0,0.0,0.0,0.0,0.0,0.0,0.0,0.0,0.0,0.0,0.0,0.0,0.0,0.0,0.0,0.0,0.0,0.0,0.0,0.0,0.0,0.0,0.0,0.0,0.0,0.0,0.0,0.0,0.0,0.0,0.0,0.0,0.0,0.0,0.0,0.0,0.0,0.0,0.0,0.0,0.0,0.0,0.0,0.0,0.0,0.0,0.0,0.0,0.0,0.0,0.0,0.0,0.0,0.0,0.0,0.0,0.0,0.0,0.0,0.0,0.0,0.0,0.0,0.0,0.0,0.0,0.0,0.0,0.0,0.0,0.0,0.0,1.3276,1.3654,1.3916,1.3759,1.3667,1.3583,1.3197,1.312,1.2965,1.2656,0.0,0.0,0.0,0.0,0.0,0.0,0.0,0.0,0.0,0.0,0.0,0.0,0.0,0.0,0.0,0.0,0.0,0.0,0.0,0.0,0.0,0.0,0.0,0.0,0.0,0.0,0.0,0.0,0.0,0.0,0.0,0.0,0.0,0.0,0.0,0.0,0.0,0.0,0.0,0.0,0.0,0.0,0.0,0.0,0.0,0.0,0.0,0.0,0.0,0.0,0.0,0.0,0.0,0.0,0.0,0.0,0.0,0.0,0.0,0.0,0.9411,0.7924,0.0,0.0,0.0,0.0,0.0,0.0,0.0,0.0,0.0,0.0,0.0,0.0,0.0,0.0,0.0,0.0,0.0,0.0,0.0,0.0,0.0,0.0,0.0,0.0,0.0,0.0,0.0,0.0,0.0,0.0,0.0,0.0,0.0,0.0,0.0,0.0,0.0,0.0,0.0,0.0,1.3191,1.3487,1.3781,1.3667,1.3667,1.3667,1.359,1.3583,1.3513,1.3428,1.3428,0.0,0.0,0.0,0.0,0.0,0.0,0.0,0.0,0.0,0.0,0.0,0.0,0.0,0.0,0.0,0.0,0.0,0.0,0.0,0.0,0.0,0.0,0.0,0.0,0.0,0.0,0.0,0.0,0.0,0.0,0.0,0.0,0.0,0.0,0.0,0.0,0.0,0.0,0.0,0.0,0.0,0.0,0.0,0.0,0.0,0.0,0.0,0.0,0.0,0.0,0.0,0.0,0.0,0.0,0.0,0.0,0.0,0.0,0.0,1.1566,1.027,0.0,0.0,0.0,0.0,0.0,0.0,0.0,0.0,0.0,0.0,0.0,0.0,0.0,0.0,0.0,0.0,0.0,0.0,0.0,0.0,0.0,0.0,0.0,0.0,0.0,0.0,0.0,0.0,0.0,0.0,0.0,0.0,0.0,0.0,0.0,0.0,0.0,0.0,0.0,0.0,1.3674,1.4045,1.4353,1.4353,1.4353,1.4276,1.4053,1.4053,1.3975,1.3744,1.3667,0.0,0.0,0.0,0.0,0.0,0.0,0.0,0.0,0.0,0.0,0.0,0.0,0.0,0.0,0.0,0.0,0.0,0.0,0.0,0.0,0.0,0.0,0.0,0.0,0.0,0.0,0.0,0.0,0.0,0.0,0.0,0.0,0.0,0.0,0.0,0.0,0.0,0.0,0.0,0.0,0.0,0.0,0.0,0.0,0.0,0.0,0.0,0.0,0.0,0.0,0.0,0.0,0.0,1.286,1.3514,1.3404,1.3404,1.3404,1.3336,1.358,1.2712,1.1295,1.1289,0.0,0.0,0.0,0.0,0.0,0.0,0.0,0.0,0.0,0.0,0.0,0.0,0.0,0.0,0.0,0.0,0.0,0.0,0.0,0.0,0.0,0.0,1.4292,1.4631,1.4436,1.4135,1.3825,0.0,0.0,0.0,0.0,0.0,0.0,0.0,0.0,0.0,0.0,0.0,1.4368,1.4737,1.4968,1.4968,1.4935,1.4851,1.4475,1.4444,1.4283,1.393,1.3853,1.3868,0.0,0.0,0.0,0.0,0.0,0.0,0.0,0.0,0.0,0.0,0.0,0.0,0.0,0.0,0.0,0.0,0.0,0.0,0.0,0.0,0.0,0.0,0.0,0.0,0.0,0.0,0.0,0.0,0.0,0.0,0.0,0.0,0.3352,0.4973,0.0,0.0,0.0,0.0,0.0,0.0,0.0,0.0,0.0,0.0,0.0,0.0,0.0,1.3825,1.3825,1.4059,1.4153,1.4023,1.4267,1.4113,1.3566,1.3566,1.3412,1.3024,1.3057,0.0,1.3091,1.3091,0.0,0.0,0.0,0.0,0.0,0.0,0.0,0.0,0.0,0.0,0.0,0.0,0.0,0.0,0.0,0.0,0.0,0.0,0.0,0.0,0.0,0.0,1.4225,1.4467,1.4756,1.4807,1.4275,1.3937,1.3941,1.4267,1.4216,1.4062,0.0,0.0,0.0,0.0,0.0,0.0,1.4368,1.4737,1.4968,1.4968,1.483,1.4741,1.4665,1.4519,1.442,1.4581,1.4589,1.4509,1.4284,1.4284,0.0,0.0,0.0,0.0,0.0,0.0,0.0,0.0,0.0,0.0,0.0,0.0,0.0,0.0,0.0,0.0,0.0,0.0,0.0,0.0,0.0,0.0,0.0,0.0,0.0,0.0,0.0,0.0,0.0,0.3687,0.4627,0.5383,0.633,0.7259,0.0,0.0,0.0,0.0,0.0,0.0,0.0,0.0,0.0,1.3213,1.4032,1.4437,1.4437,1.4437,1.4408,1.434,1.434,1.4216,1.3909,1.3662,1.3669,1.3676,1.3196,1.3192,1.3471,1.3234,1.3152,1.3152,0.0,0.0,0.0,0.0,1.3329,1.3403,1.3403,1.3569,1.3818,1.3818,0.0,0.0,0.0,0.0,0.0,0.0,0.0,1.4177,1.475,1.4682,1.4592,1.5007,1.4984,1.4968,1.497,1.4533,1.4301,1.4318,1.4206,1.4072,1.4005,1.3916,0.0,0.0,0.0,1.4406,1.4533,1.4746,1.4781,1.4676,1.4594,1.4554,1.4554,1.4481,1.4464,1.4546,1.4554,1.4511,1.4366,1.4318,1.4137,0.0,0.0,0.0,0.0,0.0,0.0,0.0,0.0,0.0,0.0,0.0,0.0,0.0,0.0,0.0,0.0,0.0,0.0,0.0,0.0,0.0,0.0,0.0,0.0,0.0,0.0,0.0,0.0,0.4582,0.5782,0.6709,0.7987,0.8987,0.0,0.0,0.0,0.0,0.0,0.0,1.4503,1.4577,1.4524,1.4556,1.4548,1.4548,1.4548,1.4548,1.4525,1.4487,1.4487,1.4385,1.426,1.3944,1.3864,1.4023,1.3475,1.3317,1.3555,1.3168,1.2963,1.2963,1.2963,1.3104,1.3274,1.3274,1.3431,1.361,1.361,1.3781,1.4027,1.4109,1.4109,1.4109,1.4109,0.0,0.0,0.0,0.0,1.4577,1.5069,1.4968,1.4939,1.5297,1.5122,1.4955,1.5303,1.5025,1.4673,1.4449,1.435,1.4243,1.4243,1.4136,0.0,1.446,1.4452,1.4541,1.4584,1.4635,1.4586,1.4448,1.4391,1.4367,1.4367,1.4326,1.4318,1.4367,1.4367,1.4383,1.4432,1.4263,1.4184,1.4184,0.0,0.0,0.0,0.0,0.0,0.0,0.0,0.0,0.0,0.0,0.0,0.0,0.0,0.0,0.0,0.0,0.0,0.0,0.0,0.0,0.0,0.0,0.0,0.0,0.0,0.0,0.0,0.0,0.0,0.9997,1.0492,0.0,0.0,0.0,0.0,1.3676,1.3938,1.4244,1.4723,1.4803,1.4962,1.5433,1.5433,1.5433,1.5433,1.5433,1.5344,1.5174,1.5174,1.4851,1.4392,1.4392,1.4153,1.3689,1.3689,1.3689,1.3634,1.3158,1.2963,1.2963,1.2963,1.3203,1.3596,1.3596,1.3844,1.4171,1.4171,1.3931,1.3691,1.4091,1.4171,1.4171,1.4171,1.4171,0.0,0.0,1.4491,1.4403,1.5289,1.5122,1.4907,1.5136,1.5174,1.5125,1.5033,1.4984,1.5033,1.5142,1.5029,1.4976,1.4976,0.0,1.4911,1.4749,1.4649,1.4651,1.4473,1.4448,1.444,1.4432,1.4286,1.4188,1.4188,1.4026,1.4002,1.418,1.4188,1.4261,1.4424,1.4366,1.4374,1.4374,1.4382,0.0,0.0,0.0,0.0,0.0,0.0,0.0,0.0,0.0,0.0,0.0,0.0,0.0,0.0,0.0,0.0,0.0,0.0,0.0,0.0,0.0,0.0,0.0,0.0,0.0,0.0,0.0,0.0,1.056,1.1647,0.0,1.3582,1.3686,1.3916,1.4398,1.4498,1.4741,1.5027,1.5097,1.512,1.5163,1.5163,1.5163,1.5163,1.5163,1.513,1.5065,1.5065,1.4956,1.4814,1.4515,1.4438,1.4507,1.3968,1.3898,1.4137,1.3637,1.3454,1.3454,1.3454,1.359,1.3842,1.3842,1.398,1.4149,1.3909,1.4069,1.4388,1.4548,1.4628,1.4628,1.4628,1.4628,1.4707,1.5114,1.5027,1.494,1.5255,1.5088,1.4983,1.5074,1.5065,1.5049,1.4984,1.4968,1.4984,1.5049,1.5009,1.4968,1.4968,1.4871,1.4781,1.4716,1.4603,1.4464,1.4294,1.427,1.4221,1.4099,1.4034,1.4002,1.4002,1.3937,1.3928,1.3993,1.4002,1.4026,1.4091,1.4205,1.427,1.427,1.4375,1.4464,0.0,0.0,0.0,0.0,0.0,0.0,0.0,0.0,0.0,0.0,0.0,0.0,0.0,0.0,0.0,0.0,0.0,0.0,0.0,0.0,0.0,0.0,0.0,0.0,0.0,0.875,1.0815,1.1435,1.242,1.326,1.3665,1.3764,1.3988,1.4702,1.4806,1.4963,1.5155,1.5147,1.509,1.4968,1.4968,1.4935,1.4879,1.4879,1.4846,1.4789,1.4789,1.4789,1.4789,1.4486,1.4594,1.4879,1.4267,1.4229,1.4592,1.4276,1.4122,1.4122,1.3814,1.3889,1.415,1.3986,1.4132,1.438,1.3986,1.4301,1.4853,1.4696,1.4774,1.4853,1.4853,1.4853,1.4932,1.5255,1.5244,1.5147,1.5147,1.5057,1.4968,1.4968,1.4968,1.4968,1.4968,1.4919,1.4879,1.4879,1.4879,1.4879,1.4879,1.4732,1.4594,1.4538,1.4424,1.4286,1.4107,1.4083,1.4034,1.3912,1.3904,1.3904,1.3904,1.3904,1.3904,1.3904,1.3904,1.3904,1.3904,1.4018,1.4083,1.4083,1.4253,1.4351,1.4351,0.0,0.0,0.0,0.0,0.0,0.0,0.0,0.0,0.0,0.0,0.0,0.0,0.0,0.0,0.0,0.0,0.0,0.0,0.0,0.0,0.0,0.0,0.0,0.7909,0.9467,1.1149,1.2816,1.2956,1.3109,1.3582,1.3842,1.414,1.4602,1.4833,1.496,1.496,1.496,1.4952,1.4952,1.4952,1.4871,1.47,1.47,1.4611,1.4432,1.4432,1.4432,1.4432,1.4432,1.4529,1.47,1.47,1.4797,1.4952,1.4952,1.4952,1.4875,1.4045,1.4053,1.4361,1.3898,1.4276,1.4968,1.4515,1.4669,1.4891,1.4515,1.4669,1.4968,1.4968,1.4968,1.4968,1.4968,1.4968,1.4968,1.4968,1.4968,1.4968,1.4968,1.5037,1.496,1.496,1.4822,1.47,1.47,1.4692,1.4692,1.47,1.4546,1.4367,1.4205,1.4172,0.0,1.3928,1.3904,1.3904,1.3904,1.3904,1.3904,1.3904,1.3904,1.3904,1.3904,1.3904,1.3904,1.3904,1.3904,1.3904,1.3904,1.4075,1.4172,1.4172,0.0,0.0,0.0,0.0,0.0,0.0,0.0,0.0,0.0,0.0,0.0,0.0,0.0,0.0,0.0,0.0,0.0,0.0,0.0,0.0,0.0,0.7653,0.9597,0.9597,1.1143,1.2514,1.2963,1.2861,1.3109,1.382,1.383,1.4121,1.4809,1.4992,1.4911,1.4789,1.4781,1.4716,1.4586,1.4578,1.4554,1.4505,1.4505,1.4481,1.4432,1.4432,1.4432,1.4432,1.4432,1.4456,1.4505,1.4505,1.4538,1.4578,1.4578,1.4578,1.4603,1.4634,1.4737,1.4814,1.4661,1.4584,1.4592,1.4737,1.4737,1.4592,1.4814,1.4891,1.4968,1.4968,1.4968,1.4968,1.4968,1.4968,1.4968,1.4968,1.4968,1.4968,1.4968,1.4871,1.4781,1.4781,1.4635,1.4505,1.4505,1.4408,1.4359,1.4489,1.4359,1.4229,1.4188,1.4066,1.3961,1.3904,1.3904,1.3904,1.3904,1.3904,1.3904,1.3904,1.3904,1.3904,1.3904,1.3904,1.3904,1.3904,1.3904,1.3904,1.3904,1.3953,1.3977,0.0,0.0,0.0,0.0,0.0,0.0,0.0,0.0,0.0,0.0,0.0,0.0,0.0,0.0,0.0,0.0,0.0,0.0,0.0,0.0,0.0,0.0,0.8442,1.0429,1.1092,1.2179,1.284,1.2773,1.2848,1.3106,1.3808,1.3891,1.4175,1.4854,1.4789,1.47,1.4594,1.4594,1.4546,1.4432,1.4432,1.4399,1.4326,1.4326,1.4286,1.4205,1.4205,1.4205,1.4205,1.4205,1.4253,1.4326,1.4326,1.4367,1.4432,1.4432,1.4432,1.4456,0.0,0.0,0.0,0.0,1.4634,1.4336,1.4867,1.4814,1.4669,1.4891,1.4968,1.4968,1.4968,1.4968,1.4968,1.4968,1.4968,1.4952,1.4879,1.4854,1.4838,1.4757,1.4667,1.4594,1.4594,1.4448,1.4326,1.4326,1.418,0.0,1.4188,1.4131,1.4066,1.4066,1.3969,1.3904,1.3904,1.3904,1.3904,1.3904,1.3904,1.3904,1.3904,1.3904,0.0,0.0,0.0,1.3904,1.3904,1.3904,0.0,0.0,0.0,1.3904,1.3904,1.401,0.0,0.0,1.4359,1.4489,0.0,0.0,0.0,0.0,0.0,0.0,0.0,0.0,0.0,0.0,0.0,0.0,0.0,0.0,0.0,0.0,0.9292,1.0841,1.2283,1.2617,1.2657,1.2515,1.2874,1.3252,1.3637,1.3946,1.4223,1.4676,1.4521,1.4424,1.4408,1.4399,0.0,0.0,0.0,1.4302,1.4148,1.4148,1.4066,1.3904,1.3904,1.3904,1.3904,1.3904,1.3993,1.4148,1.4148,1.4229,1.4375,1.4375,1.4375,1.4375,1.4416,1.4432,1.4448,1.4619,1.445,1.4239,1.4778,0.0,0.0,1.4903,1.4903,1.4903,1.4903,1.4903,1.4903,1.4903,1.4903,1.4871,1.4716,1.4676,1.4635,1.4473,1.4416,1.4399,1.4399,1.427,1.4148,1.4148,1.4018,1.3904,1.3904,1.3904,1.3904,1.3904,1.3904,1.3904,1.3904,1.3904,1.3904,1.3904,1.3904,0.0,1.3904,1.3904,1.3904,1.3904,1.3904,1.3904,1.3904,1.3904,1.3904,1.3904,1.3904,1.3904,1.3904,1.3904,1.3904,1.3912,1.4229,1.4383,0.0,0.0,0.0,0.0,0.0,0.0,0.0,0.0,0.0,0.0,0.0,0.0,0.0,0.0,0.0,0.9261,1.0975,1.2147,1.2431,1.2528,1.2535,1.2508,1.2776,1.3079,1.346,1.3694,1.4042,1.4414,1.4456,1.4375,1.4237,1.4229,1.4156,1.401,1.4002,1.3985,1.3953,1.3953,1.3937,1.3904,1.3904,0.0,1.3904,1.3904,1.392,1.3953,1.3953,1.3977,1.4002,1.4002,1.4002,1.4034,1.4318,1.4432,1.4432,1.4473,1.4406,1.434,1.4447,1.4538,1.4538,1.4538,1.4538,1.4538,1.4538,1.4538,0.0,1.4538,1.4538,1.4529,1.4497,1.4481,1.4473,1.444,1.4326,1.4229,1.4229,1.4083,1.3953,1.3953,1.3928,1.3904,1.3904,1.3904,1.3904,1.3904,1.3904,1.3904,1.3904,1.3904,1.3904,1.3904,1.3904,1.3904,1.3904,1.3904,1.3904,1.3904,1.3904,1.3904,1.3904,1.3904,1.3904,1.3904,1.3904,1.3904,1.3904,1.3904,1.3904,1.3904,1.3969,1.4083,0.0,0.0,0.0,0.0,0.0,0.0,0.0,0.0,0.0,0.0,0.0,0.309,0.4744,0.0,0.8059,0.9692,1.1411,1.2474,1.2406,1.2546,1.2706,1.2706,1.3011,1.331,1.3604,1.3897,1.409,1.4302,1.4221,1.4131,1.4042,1.4042,1.3993,1.3904,1.3904,1.3904,1.3904,1.3904,1.3904,1.3904,1.3904,1.3904,1.3904,1.3904,1.3904,1.3904,1.3904,1.3904,1.3904,1.3904,1.3904,1.392,1.4099,1.4164,1.418,1.427,1.4302,1.4318,1.4399,1.4432,1.4432,1.4432,1.4432,1.4432,1.4432,1.4432,1.4432,1.4432,1.4432,1.4416,1.4326,1.4302,1.4278,1.4188,1.4099,1.4042,1.4042,1.3969,1.3904,1.3904,1.3904,1.3904,1.3904,1.3904,1.3904,1.3904,1.3904,1.3904,1.3904,1.3904,1.3904,1.3904,1.3904,1.3904,1.3904,1.3904,1.3904,1.3904,1.4608,1.5026,1.5026,1.5026,1.5026,1.5026,1.4252,1.3904,1.3904,1.3904,1.3904,1.3904,1.3904,1.3953,0.0,0.0,0.0,0.0,0.0,0.0,0.0,0.0,0.2551,0.2551,0.2532,0.314,0.5092,0.6577,0.8132,1.0131,1.1605,1.2413,1.2264,1.2622,1.2842,1.2889,1.3251,1.3574,1.3741,1.401,1.4123,1.4123,1.3985,1.3904,1.3904,1.3904,1.3904,1.3904,1.3904,1.3904,1.3904,1.3904,1.3904,1.3904,1.3904,1.3904,1.3904,1.3904,1.3904,1.3904,1.3904,1.3904,1.3904,1.3904,1.3904,1.3904,1.3904,1.3904,1.392,1.4066,1.4123,1.4148,1.4278,1.4326,1.4326,1.4326,1.4326,1.4326,1.4326,1.4326,1.4326,1.4326,1.4326,1.4294,1.4164,1.4123,1.4083,1.3937,1.3904,1.3904,1.3904,1.3904,1.3904,1.3904,1.3904,1.3904,1.3904,1.3904,1.3904,1.3904,1.3904,1.3904,1.3904,1.3904,1.3904,1.3904,1.3904,1.3904,1.3904,1.4466,1.4671,1.4324,1.5726,1.6433,1.6079,1.6079,1.5947,1.5664,1.4537,1.3904,1.3904,1.3904,1.3904,1.3904,1.4181,1.4181,0.2373,0.2609,0.26,0.2571,0.2564,0.2557,0.0,0.0,0.2519,0.2519,0.2517,0.3454,0.6655,0.7357,0.8498,1.1562,1.2235,1.2264,1.2108,1.2387,1.271,1.2934,1.3351,1.3563,1.3621,1.3826,1.3937,1.3937,1.3912,1.3904,1.3904,1.3904,1.3904,1.3904,1.3904,1.3904,1.3904,1.3904,1.3904,1.3904,1.3904,1.3904,1.3904,1.3904,1.3904,1.3904,1.3904,1.3904,1.3904,1.3904,1.3904,1.3904,1.3904,1.3904,1.3904,1.3928,1.3937,1.3937,1.3953,1.3961,1.3961,1.3961,1.3961,1.3961,1.3961,1.3961,1.3961,1.3961,1.3961,1.3953,1.3937,1.3937,1.3928,1.3904,1.3904,1.3904,1.3904,1.3904,1.3904,1.3904,1.3904,1.3904,1.3904,1.3904,1.3904,1.3904,1.3904,1.3904,1.3904,1.3904,1.3904,1.3904,1.3904,1.3904,1.3904,1.6352,1.7338,1.5938,1.7268,1.7549,1.615,1.6079,1.5452,1.4181,1.3975,1.3904,1.3904,1.3904,1.3904,1.3904,1.5239,1.5168,0.2344,0.2577,0.257,0.0,0.2533,0.253,0.2517,0.2514,0.2514,0.2514,0.2514,0.3532,0.6889,0.7472,0.8501,1.1758,1.2216,1.2101,1.1952,1.222,1.2604,1.288,1.3218,1.3506,1.373,1.3873,1.3904,1.3904,1.3904,1.3904,1.3904,1.3904,1.3904,1.3904,1.3904,1.3904,1.3904,1.3904,1.3904,1.3904,1.3904,1.3904,1.3904,1.3904,1.3904,1.3904,1.3904,1.3904,1.3904,1.3904,1.3904,1.3904,1.3904,1.3904,1.3904,1.3904,1.3904,1.3904,1.3904,1.3904,1.3904,1.3904,1.3904,1.3904,1.3904,1.3904,1.3904,1.3904,1.3904,1.3904,1.3904,1.3904,1.3904,1.3904,1.3904,1.3904,1.3904,1.3904,1.3904,1.3904,1.3904,1.3904,1.3904,1.3904,1.3904,1.3904,1.3904,1.3904,1.3904,1.3904,1.3904,1.3904,1.3904,1.3904,1.3904,1.5867,1.6775,1.615,1.7549,1.81,1.7479,1.6574,1.5806,1.5168,1.4324,1.3904,1.3904,1.4742,1.5168,1.5239,1.6705,1.7127,0.2233,0.0,0.0,0.2519,0.2514,0.2514,0.2514,0.2514,0.2514,0.2514,0.2507,0.3515,0.6855,0.7326,0.8322,1.1635,1.2067,1.1945,1.1796,1.2067,1.246,1.2768,1.3111,1.3468,1.3833,1.3904,1.3904,1.3904,1.3904,1.3904,1.3904,1.3904,1.3904,1.3904,1.3904,1.3904,1.3904,1.3904,1.3904,1.3904,1.3904,1.3904,1.3904,1.3904,1.3904,1.3904,1.3904,1.3904,1.3904,1.3904,1.3904,1.3904,1.3904,1.3904,1.3904,1.3904,1.3904,1.3904,1.3904,1.3904,1.3904,1.3904,1.3904,1.3904,1.3904,1.3904,1.3904,1.3904,1.3904,1.3904,1.3904,1.3904,1.3904,1.3904,1.3904,1.3904,1.3904,1.3904,1.3904,1.3904,1.3904,1.3904,1.3904,1.3904,1.3904,1.3904,1.3904,1.3904,1.3904,1.3904,1.3904,1.3904,1.4252,1.4324,1.3904,1.5655,1.6574,1.615,1.7549,1.8239,1.776,1.6715,1.5938,1.5523,1.4466,1.411,1.4537,1.5593,1.6291,1.6785,1.832,1.9008,0.1808,0.1887,0.2044,0.2435,0.2514,0.2514,0.2514,0.2514,0.2514,0.2514,0.2491,0.3471,0.6692,0.7233,0.8188,1.1276,1.1843,1.1789,1.1647,1.1914,1.2338,1.2753,1.3111,1.3468,1.3833,1.3904,1.3904,1.3904,1.3904,1.3904,1.3904,1.3904,1.3904,1.3904,1.3904,1.3904,1.3904,1.3904,1.3904,1.3904,1.3904,1.3904,1.3904,1.3904,1.3904,1.3904,1.3904,1.3904,1.3904,1.3904,1.3904,1.3904,1.3904,1.3904,1.3904,1.3904,1.3904,1.3904,1.3904,1.3904,1.3904,1.3904,1.3904,1.3904,1.3904,1.3904,1.3904,1.3904,1.3904,1.3904,1.3904,1.3904,1.3904,1.3904,1.3904,1.3904,1.3904,1.3904,1.3904,1.3904,1.3904,1.3904,1.3904,1.3904,1.3904,1.3904,1.3904,1.3904,1.3904,1.3904,1.3904,1.3904,1.5168,1.5452,1.4047,1.6635,1.7689,1.6221,1.7549,1.776,1.6221,1.615,1.5452,1.3967,1.3896,1.4608,1.6009,1.6079,1.6846,1.8379,1.9854,2.056,0.1414,0.1728,0.1964,0.2043,0.2278,0.2514,0.2514,0.2499,0.2484,0.2484,0.2459,0.3123,0.5319,0.6462,0.7734,0.9922,1.1094,1.1674,1.1626,1.1691,1.2043,1.2753,1.2896,1.3182,1.3833,1.3904,1.3904,1.3904,1.3904,1.3904,1.3904,1.3904,1.3904,1.3904,1.3904,1.3904,1.3904,1.3904,1.3904,1.3904,1.3904,1.3904,1.3904,1.3904,1.3904,1.3904,1.3904,1.3904,1.3904,1.3904,1.3904,1.3904,1.3904,1.3904,1.3904,1.3904,1.3904,1.3904,1.3904,1.3904,1.3904,1.3904,1.3904,1.3904,1.3904,1.3904,1.3904,1.3904,1.3904,1.3904,1.3904,1.3904,1.3904,1.3904,1.3904,1.3904,1.3904,1.3904,1.3904,1.3904,1.3904,1.3904,1.3904,1.3904,1.3904,1.3904,1.3904,1.3904,1.3904,1.3904,1.3904,1.3904,1.4324,1.4466,1.3975,1.5726,1.6644,1.615,1.6574,1.6644,1.615,1.5168,1.4395,1.3904,1.3904,1.4608,1.6079,1.7127,1.839,1.9924,2.139,2.2091,0.0942,0.1256,0.1493,0.1807,0.2114,0.2263,0.2499,0.2474,0.2453,0.2453,0.2428,0.2932,0.4504,0.6008,0.7568,0.9186,1.0655,1.1619,1.1619,1.1619,1.1907,1.2681,1.2824,1.3111,1.3833,1.3904,1.3904,1.3904,1.3904,1.3904,1.3904,1.3904,1.3904,1.3904,1.3904,1.3904,1.3904,1.3904,1.3904,1.3904,1.3904,1.3904,1.3904,1.3904,1.3904,1.3904,1.3904,1.3904,1.3904,1.3904,1.3904,1.3904,1.3904,1.3945,1.4002,1.4002,1.4042,1.4075,1.3945,1.3945,1.4002,1.4002,1.4042,1.4091,1.4091,1.4091,1.4075,1.4018,1.4002,1.3985,1.392,1.3904,1.3904,1.3904,1.3904,1.3904,1.3904,1.3904,1.3904,1.3904,1.3904,1.3904,1.3904,1.3904,1.3904,1.3904,1.3904,1.3904,1.3904,1.3904,1.3904,1.3904,1.3904,1.3904,1.3904,1.4742,1.531,1.531,1.531,1.531,1.531,1.4395,1.3904,1.3904,1.3904,1.4884,1.6916,1.79,1.9437,2.1471,2.2448,2.2928,0.0471,0.0549,0.0785,0.1648,0.1788,0.1927,0.2389,0.2443,0.2346,0.2421,0.2397,0.282,0.0,0.0,0.7476,0.8925,1.0527,1.1619,1.1619,1.1619,1.1907,1.2681,0.0,0.0,0.0,1.3904,1.3904,1.3904,1.3904,1.3904,1.3904,1.3904,1.3904,1.3904,1.3904,1.3904,1.3904,1.3904,1.3904,1.3904,1.3904,1.3904,1.3904,1.3904,1.3904,1.3904,1.3904,1.3904,1.3904,1.3904,1.3904,1.3912,1.3912,1.4026,1.4188,1.4188,1.4294,1.4383,1.4042,1.4042,1.4188,1.4188,1.4302,1.4432,1.4432,1.4432,1.4399,1.4237,1.4188,1.4148,1.3977,1.3928,1.3928,1.3928,1.392,1.3912,1.3912,1.3904,1.3904,1.3904,1.3904,1.3904,1.3904,1.3904,1.3904,1.3904,1.3904,1.3904,1.3904,1.3904,1.3904,1.3904,1.3904,1.3904,1.3904,1.3904,1.3904,1.3904,1.3904,1.3904,1.3904,1.3904,1.3904,1.3904,1.3975,1.5443,1.8379,1.8449,1.9993,2.2928,2.2928,2.2928,0.0157,0.039,0.062,0.0853,0.1152,0.1522,0.1902,0.196,0.2017,0.2315,0.2365,0.2417,0.0,0.0,0.0,0.7548,0.9873,0.0,1.1619,1.1619,0.0,1.2266,0.0,1.2968,1.3396,1.3682,1.3904,1.3904,1.3904,1.3904,1.3904,1.3904,1.3904,1.3904,1.3904,1.3904,1.3904,1.3904,1.3904,1.3904,1.3904,1.3904,1.3904,1.3904,1.3904,1.3904,1.3904,1.3904,1.3904,1.3904,1.3985,1.4107,1.4107,1.4213,1.4367,1.4367,1.4391,1.4416,1.4326,1.4326,1.4367,1.4367,1.4391,1.4432,1.4432,1.4432,1.4424,1.4375,1.4367,1.4359,1.431,1.4294,1.4294,1.4294,1.4196,1.4107,1.4107,1.4002,1.3904,1.3904,1.3904,1.3904,1.3904,1.3904,1.3904,1.3904,1.3904,1.3904,1.3904,1.3904,1.3904,1.3904,1.3904,1.3904,1.3904,1.3904,1.3904,1.3904,1.3904,1.3904,1.3904,1.3904,1.3904,1.3904,1.4955,1.6494,1.8379,1.9507,2.1044,2.2928,2.2928,2.2928,0.0,0.0155,0.0385,0.0536,0.0834,0.1127,0.1653,0.1785,0.1915,0.2285,0.2345,0.0,0.2333,0.4872,0.697,0.0,0.0,0.0,1.1619,1.1619,1.1763,0.0,1.2545,0.0,1.3253,1.3682,1.3904,1.3904,1.3904,1.3904,1.3904,1.3904,1.3904,1.3904,1.3904,1.3904,1.3904,1.3904,1.3904,1.3904,1.3904,1.3904,1.3904,1.3904,1.3904,1.3904,1.3904,1.3945,1.4026,1.4026,1.4131,1.4294,1.4294,1.4399,1.4554,1.4554,1.4603,1.4667,1.4667,1.4667,1.4651,1.4578,1.4603,1.4667,1.4667,1.4667,1.4651,1.4578,1.4554,1.4538,1.4456,1.4432,1.4432,1.4432,1.4359,1.4294,1.4294,1.4205,1.4107,1.4034,1.3953,1.3904,1.3904,1.3904,1.3904,1.3904,1.3904,1.3904,1.3904,1.3904,1.3904,1.3904,1.3904,1.3904,1.3904,1.3904,1.3904,1.3904,1.3904,1.3904,1.3904,1.3904,1.3904,1.3904,1.4679,1.6221,1.8379,1.9228,2.0768,2.2928,2.2928,2.2939,0.0,0.0,0.0077,0.0454,0.0524,0.0742,0.1557,0.169,0.1822,0.2187,0.0,0.2333,0.2333,0.4872,0.697,0.697,0.0,1.1619,1.1619,1.1619,1.1763,1.2051,1.2545,1.2896,1.3182,1.3611,1.3904,1.3904,1.3904,1.3904,1.3904,1.3904,1.3904,1.3904,1.3904,1.3904,1.3904,1.3904,1.3904,1.3904,1.3904,1.3904,1.3904,1.3904,1.3904,1.3904,1.3928,1.4026,1.418,1.4205,1.431,1.4464,1.4464,1.4578,1.4741,1.4741,1.4838,1.4968,1.4968,1.4968,1.4944,1.4789,1.4846,1.4968,1.4968,1.4968,1.4935,1.4789,1.4741,1.4708,1.4546,1.4505,1.4505,1.4505,1.4481,1.4464,1.4464,1.4448,1.4383,1.4237,1.4066,1.3937,1.3937,1.392,1.3904,1.3904,1.3904,1.3904,1.3904,1.3904,1.3904,1.3904,1.3904,1.3904,1.3904,1.3904,1.3904,1.3904,1.3904,1.3904,1.3904,1.3904,1.3904,1.3904,1.411,1.5584,1.8379,1.8589,2.0132,2.2928,2.2968,2.3073,0.0,0.0,0.0,0.0075,0.0074,0.0293,0.1098,0.1315,0.0,0.0,0.2333,0.2333,0.2333,0.4872,0.697,0.697,0.9579,1.1619,1.1619,1.1619,1.1619,0.0,1.233,1.2824,1.2896,1.3468,1.3904,1.3904,1.3904,1.3904,1.3904,1.3904,1.3904,1.3904,1.3904,1.3904,1.3904,1.3904,1.3904,1.3904,1.3904,1.3904,1.3904,1.3904,1.3904,1.3912,1.4066,1.4148,1.4188,1.4326,1.4497,1.4659,1.4659,1.4765,1.4919,1.4919,1.4944,1.4968,1.4968,1.4968,1.496,1.4927,1.4944,1.4968,1.4968,1.4968,1.496,1.4927,1.4919,1.4911,1.4879,1.4871,1.4871,1.4871,1.4765,1.4659,1.4659,1.4538,1.4424,1.4391,1.4245,1.4131,1.4131,1.4002,1.3904,1.3904,1.3904,1.3904,1.3904,1.3904,1.3904,1.3904,1.3904,1.3904,1.3904,1.3904,1.3904,1.3904,1.3904,1.3904,1.3904,1.3904,1.3904,1.3904,1.5097,1.6564,1.8379,1.9646,2.1113,2.2941,2.3126,2.3273,0.0,0.0,0.0,0.0,0.0,0.0146,0.073,0.0,0.0,0.0,0.2187,0.2333,0.2333,0.4872,0.0,0.697,0.9579,1.1619,1.1619,1.1619,1.1619,1.1619,1.233,1.2824,1.2824,1.3468,1.3904,1.3904,1.3904,1.3904,1.3904,1.3904,1.3904,1.3904,1.3904,1.3904,1.3904,1.3904,1.3904,1.3904,1.3904,1.3904,1.3904,1.3904,1.3953,1.405,1.414,1.4286,1.4464,1.4546,1.4684,1.4838,1.4838,1.4895,1.4968,1.4968,1.4968,1.4968,1.4968,1.4968,1.4968,1.4968,1.4968,1.4968,1.4968,1.4968,1.4968,1.4968,1.4968,1.4968,1.4968,1.4968,1.4968,1.4968,1.4903,1.4838,1.4838,1.47,1.4578,1.4578,1.4432,1.431,1.431,1.4164,1.405,1.405,1.3961,1.3904,1.3904,1.3904,1.3904,1.3904,1.3904,1.3904,1.3904,1.3904,1.3904,1.3904,1.3904,1.3904,1.3904,1.3904,1.3904,1.3904,1.5381,1.6846,1.8379,1.9854,2.1477,2.3113,2.326,2.3487,0.0,0.0,0.0,0.0,0.0,0.0073,0.0511,0.0876,0.0,0.0,0.2041,0.2333,0.2333,0.4872,0.697,0.0,0.9579,1.1619,1.1619,1.1619,1.1619,0.0,1.2259,0.0,1.2824,1.3396,1.3833,1.3904,1.3904,1.3904,1.3904,1.3904,1.3904,1.3904,1.3904,1.3904,1.3904,1.3904,1.3904,1.3904,1.3904,1.3904,1.3904,1.3945,1.4042,1.418,1.4261,1.4448,1.4708,1.4749,1.4846,1.4968,1.4968,1.4968,1.4968,1.4968,1.4968,1.4968,1.4968,1.4968,1.4968,1.4968,1.4968,1.4968,1.4968,1.4968,1.4968,1.4968,1.4968,1.4968,1.4968,1.4968,1.4968,1.4968,1.4968,1.4968,1.4968,1.4862,1.4765,1.4765,1.4611,1.4489,1.4489,1.4351,1.4237,1.4237,1.4107,1.4002,1.3969,1.3961,1.3945,1.3904,1.3904,1.3904,1.3904,1.3904,1.3904,1.3904,1.3904,1.3904,1.3904,1.3904,1.3904,1.3904,1.5381,1.6875,1.8455,2.0005,2.164,2.342,2.3487,2.3768,0.0,0.0,0.0,0.0,0.0,0.0073,0.0511,0.0,0.0,0.175,0.2041,0.2333,0.2333,0.4872,0.697,0.697,0.0,1.1619,1.1619,1.1619,1.1619,1.1619,0.0,0.0,1.2753,1.3111,1.3539,1.3896,1.3904,1.3904,1.3904,1.3904,1.3904,1.3904,1.3904,1.3904,1.3904,1.3904,1.3904,1.3904,1.3904,1.3904,1.3904,1.4075,1.4164,1.4196,1.4521,1.4676,1.4724,1.4879,1.4952,1.4968,1.4968,1.4968,1.4968,1.4968,1.4968,1.4968,1.4968,1.4968,1.4968,1.4968,1.4968,1.4968,1.4968,1.4968,1.4968,1.4968,1.4968,1.4968,1.4968,1.4968,1.4968,1.4968,1.4968,1.4968,1.4968,1.4952,1.4944,1.4944,1.4806,1.4684,1.4684,1.4529,1.4408,1.4408,1.4391,1.4326,1.4172,1.4156,1.4091,1.392,1.3904,1.3904,1.3904,1.3904,1.3904,1.3904,1.3904,1.3904,1.3904,1.3904,1.3904,1.3904,1.5381,1.6945,1.8774,2.0274,2.1998,2.3741,2.3995,2.4155,0.0,0.0,0.0,0.0,0.0,0.0073,0.0219,0.0,0.0,0.1386,0.1896,0.2333,0.2333,0.4148,0.5887,0.0,0.0,0.0,1.1476,1.1619,1.1619,1.1619,1.1979,0.0,0.0,1.2753,1.3039,1.3253,1.3396,1.3468,1.3253,1.3682,1.3904,1.3904,1.3904,1.3904,1.3904,1.3904,1.3904,1.3904,1.3904,1.3961,1.4066,1.4148,1.4294,1.4505,1.4643,1.4765,1.4871,1.4935,1.4968,1.4968,1.4968,1.4968,1.4968,1.4968,1.4968,1.4968,1.4968,1.4968,1.4968,1.4968,1.4968,1.4968,1.4968,1.4968,1.4968,1.4968,1.4968,1.4968,1.4968,1.4968,1.4968,1.4968,1.4968,1.4968,1.4968,1.4968,1.4968,1.4968,1.4911,1.4862,1.4862,1.4716,1.4594,1.4594,1.4505,1.4408,1.4343,1.4326,1.4302,1.4229,1.4026,1.3904,1.3904,1.3904,1.3904,1.3904,1.3904,1.3904,1.3904,1.3904,1.3953,1.4066,1.6473,1.8143,1.9022,2.1483,2.2645,2.2636,2.3707,2.3778,0.0,0.0,0.0,0.0,0.0,0.0,0.0,0.0,0.0,0.1168,0.1678,0.2187,0.226,0.3641,0.5235,0.0,0.0,0.9873,1.1404,1.1619,1.1619,1.1619,0.0,1.2051,1.2194,1.2545,1.2824,1.2824,1.3039,1.3039,1.2824,1.3253,1.3539,1.3539,1.3761,1.3833,1.3682,1.3833,1.3904,1.3904,1.3953,1.405,1.418,1.4286,1.4473,1.4708,1.4765,1.4854,1.4968,1.4968,1.4968,1.4968,1.4968,1.4968,1.4968,1.4968,1.4968,1.4968,1.4968,1.4968,1.4968,1.4968,1.4968,1.4968,1.4968,1.4968,1.4968,1.4968,1.4968,1.4968,1.4968,1.4968,1.4968,1.4968,1.4968,1.4968,1.4968,1.4968,1.4968,1.4968,1.4968,1.4968,1.4968,1.4862,1.4781,1.4781,1.4676,1.457,1.4521,1.4513,1.4497,1.444,1.4205,1.4058,1.4058,1.4058,1.4058,1.4058,1.4058,1.4058,1.4058,1.4058,1.4332,1.4975,1.7549,1.9249,1.9938,2.2137,2.2794,2.1945,2.306,2.3395,0.0,0.0,0.0,0.0,0.0,0.0,0.0,0.0,0.073,0.1095,0.1532,0.1895,0.226,0.3641,0.5235,0.0,0.0,0.0,1.1404,1.1619,1.1619,0.0,1.1619,1.1763,1.2122,1.2545,1.2824,1.2824,1.2824,1.2824,1.2824,1.2824,1.2824,1.2824,1.3539,1.3682,1.3325,1.3682,1.3904,1.3904,1.4083,1.418,1.4188,1.4546,1.4708,1.4716,1.4887,1.496,1.4968,1.4968,1.4968,1.4968,1.4968,1.4968,1.4968,1.4968,1.4968,1.4968,1.4968,1.4968,1.4968,1.4968,1.4968,1.4968,1.4968,1.4968,1.4968,1.4968,1.4968,1.4968,1.4968,1.4968,1.4968,1.4968,1.4968,1.4968,1.4968,1.4968,1.4968,1.4968,1.4968,1.4968,1.4968,1.496,1.496,1.496,1.5037,1.4903,1.4724,1.4708,1.4635,1.4448,1.4424,1.4424,1.4424,1.4424,1.4424,1.4424,1.4424,1.4424,1.4424,1.4424,1.5155,1.6838,1.8363,2.0011,2.1959,2.1898,2.1969,2.2223,2.2223,2.3054,0.0,0.0,0.0,0.0,0.0,0.0,0.0,0.0,0.073,0.1095,0.1532,0.1895,0.226,0.2697,0.393,0.6536,0.0,0.0,0.0,0.0,0.0,1.1619,1.1619,1.1619,1.1763,1.2122,1.2266,1.1972,1.2259,1.2266,1.1972,1.2259,1.2545,1.2824,1.3039,1.3111,1.2968,1.3325,1.3531,1.3729,1.4002,1.4302,1.4546,1.4659,1.4773,1.4887,1.4944,1.4968,1.4968,1.4968,1.4968,1.4968,1.4968,1.4968,1.4968,1.4968,1.4968,1.4968,1.4968,1.4968,1.4968,1.4968,1.4968,1.4968,1.4968,1.4968,1.4968,1.4968,1.4968,1.4968,1.4968,1.4968,1.4968,1.4968,1.4968,1.4968,1.4968,1.4968,1.4968,1.4968,1.4968,1.4968,1.4968,1.4968,1.4968,1.4968,1.4968,1.4944,1.4887,1.4887,1.4862,1.4806,1.4797,1.47,1.4456,1.4432,1.4432,1.4432,1.4432,1.4432,1.4432,1.4432,1.5223,1.6982,1.7501,1.8641,2.0527,2.0452,2.1009,2.2223,2.2223,2.3054,0.0,0.0,0.0,0.0,0.0,0.0,0.0,0.0,0.0,0.0876,0.1313,0.1677,0.2041,0.2187,0.3348,0.6463,0.0,0.0,0.0,0.0,0.0,1.1619,1.1619,1.1619,1.1619,1.1835,1.1835,1.1619,1.1835,1.1835,1.1619,1.1835,1.2122,1.233,1.261,1.2753,1.2617,1.3108,1.3481,1.359,1.4163,1.4497,1.4708,1.4773,1.4862,1.4968,1.4968,1.4968,0.0,1.4968,1.4968,1.4968,1.4968,1.4968,1.4968,1.4968,1.4968,1.4968,1.4968,1.4968,1.4968,1.4968,1.4968,1.4968,1.4968,1.4968,1.4968,1.4968,1.4968,1.4968,1.4968,1.4968,1.4968,1.4968,1.4968,1.4968,1.4968,1.4968,1.4968,1.4968,1.4968,1.4968,1.4968,1.4968,1.4968,1.4968,1.4968,1.4968,1.4968,1.4968,1.4968,1.4968,1.4968,1.4879,1.4651,1.4635,1.4635,1.4635,1.4635,1.4635,1.4635,1.4635,1.5428,1.7199,1.7199,1.8095,1.9811,1.9811,2.0338,2.1314,2.1924,2.3054,0.0,0.0,0.0,0.0,0.0,0.0,0.0,0.0,0.0,0.0,0.0949,0.1313,0.175,0.2041,0.3348,0.6463,0.0,0.0,0.0,1.1619,0.0,1.1619,1.1619,1.1619,1.1619,1.1619,1.1619,1.1619,1.1619,1.1619,1.1619,1.1619,1.1619,1.1619,1.2338,1.256,1.2208,1.3077,1.3605,1.3629,1.4322,1.4716,1.4732,1.4895,1.4968,1.4968,1.4968,1.4968,1.4968,1.4968,1.4968,1.4968,1.4968,1.4968,1.4968,1.4968,1.4968,1.4968,1.4968,1.4968,1.4968,1.4968,1.4968,1.4968,1.4968,1.4968,1.4968,1.4968,1.4968,1.4968,1.4968,1.4968,1.4968,1.4968,1.4968,1.4968,1.4968,1.4968,1.4968,1.4968,1.4968,1.4968,1.4968,1.4968,1.4968,1.4968,1.4968,1.4968,1.4968,1.4968,1.4968,1.4968,1.4968,1.4968,1.4968,1.4968,1.4968,1.4968,1.4968,1.4968,1.4968,1.4968,1.5727,1.7407,1.7407,1.8082,1.9434,1.9661,1.9811,1.9811,2.1538,2.3203,0.0,0.0,0.0,0.0,0.0,0.0,0.0,0.0,0.0,0.0,0.0,0.0,0.0,0.0,0.0,0.6463,0.0,0.8059,1.1181,1.1619,1.1619,1.1619,1.1619,1.1619,1.1619,1.1619,1.1619,1.1619,1.1619,1.1619,1.1619,1.1619,1.1619,1.1619,1.1866,1.1994,1.1928,1.2692,1.328,1.3529,1.4291,1.4773,1.4903,1.4944,1.4814,1.4592,1.4891,1.4814,1.4592,1.4891,1.4968,1.4968,1.4968,1.4968,1.4968,1.4968,1.4968,1.4968,1.4968,1.4968,1.4968,1.4968,1.4968,1.4968,1.4968,1.4968,1.4968,1.4968,1.4968,1.4968,1.4968,1.4968,1.4968,1.4968,1.4968,1.4968,1.4968,1.4968,1.4968,1.4968,1.4968,1.4968,1.4968,1.4968,1.4968,1.4968,1.4968,1.4968,1.4968,1.4968,1.4968,1.4968,1.4968,1.4968,1.4968,1.4968,1.4968,1.4968,1.4968,1.4968,1.4968,1.4968,1.5727,1.7407,1.7407,1.694,1.6101,1.8603,1.9811,1.9887,2.267,2.4267,0.0,0.0,0.0,0.0,0.0,0.0,0.0,0.0,0.0,0.0,0.0,0.0,0.0,0.0,0.0,0.6463,0.697,0.0,0.0,1.1619,1.1619,1.1619,1.1619,1.1619,1.1619,1.1619,1.1619,1.1619,1.1619,1.1619,1.1619,1.1619,1.1647,1.1714,1.1789,1.183,1.183,1.2779,1.3312,1.3491,1.441,1.4879,1.4968,1.4814,1.4592,1.4446,1.4669,1.4592,1.4438,1.4814,1.4968,1.4968,1.4968,1.4968,1.4968,1.4968,1.4968,1.4968,1.4968,1.4968,1.4968,1.4968,1.4968,1.4968,1.4968,1.4968,1.4968,1.4968,1.4968,1.4968,1.4968,1.4968,1.4968,1.4968,1.4968,1.4968,1.4968,1.4968,1.4968,1.4968,1.4968,1.4968,1.4968,1.4968,1.4968,1.4968,1.4968,1.4968,1.4968,1.4968,1.4968,1.4968,1.4968,1.4968,1.4968,1.4968,1.4968,1.4968,1.4968,1.4968,1.4968,1.4968,1.542,1.6262,1.6262,1.588,1.5045,1.8224,1.9811,1.9887,2.3129,2.4636,0.0,0.0,0.0,0.0,0.0,0.0,0.0,0.0,0.0,0.0,0.0,0.0,0.0,0.1751,0.0,0.0,0.7042,0.8348,1.1181,1.1619,1.1619,1.1619,1.1619,1.1619,1.1619,1.1619,1.1619,1.1619,1.1619,1.1619,1.1619,1.164,1.1708,1.183,1.1877,1.1904,1.1904,1.2899,1.343,1.3528,1.4436,1.4891,1.4891,1.4592,1.4361,1.4207,1.4368,1.4368,1.4361,1.4814,1.4968,1.4968,1.4968,1.4968,1.4968,1.4968,1.4968,1.4968,1.4968,1.4968,1.4968,1.5,1.5009,1.5009,1.5041,1.5049,1.5049,1.5049,1.5009,1.4968,1.4968,1.4968,1.4968,1.4968,1.4968,1.4968,1.4968,1.4968,1.4968,1.4968,1.4968,1.4968,1.4968,1.4968,1.4968,1.4968,1.4968,1.4968,1.4968,1.4968,1.4968,1.4968,1.4968,1.4968,1.4968,1.4968,1.4968,1.4968,1.4968,1.4968,1.4968,1.4968,1.4968,1.4968,1.4968,1.4968,1.5045,1.8224,1.9811,1.9887,2.3129,2.4636,0.0,0.0,0.0,0.0,0.0,0.0,0.0,0.0,0.0,0.0,0.0,0.0,0.0,0.1605,0.255,0.0,0.7263,0.9579,1.1325,1.1619,1.1619,1.1619,1.1619,1.1619,1.1619,1.1619,1.1619,1.1619,1.1619,1.1619,1.1619,1.1735,1.1809,1.183,1.2081,1.2216,1.2216,1.2712,1.3253,1.3699,1.4191,1.4515,1.4515,1.4438,1.3975,1.3351,1.4053,1.4207,1.3898,1.4661,1.4968,1.4968,1.4968,1.4968,1.4968,1.4968,1.4968,1.4968,1.4968,1.4968,1.4992,1.5147,1.5195,1.5228,1.5382,1.5431,1.5431,1.5431,1.5204,1.4968,1.4968,1.4968,1.4968,1.4968,1.4968,1.4968,1.4968,1.4968,1.4968,1.4968,1.4968,1.4968,1.4968,1.4968,1.4968,1.4968,1.4968,1.4968,1.4968,1.4968,1.4968,1.4968,1.4968,1.4968,1.4968,1.4968,1.4968,1.4968,1.4968,1.4968,1.4968,1.4968,1.4968,1.4968,1.4968,1.4968,1.5045,1.8224,1.9811,1.9887,2.3129,2.4636,0.0,0.0,0.0,0.0,0.0,0.0,0.0,0.0,0.0,0.0,0.0,0.0,0.0,0.0,0.2694,0.5525,0.7842,0.9873,1.1404,1.1619,1.1619,1.1619,1.1619,1.1619,1.1619,1.1619,1.1619,1.1619,1.1619,1.1653,1.1728,1.1796,1.1904,1.2074,1.2216,1.2325,1.2406,1.2553,1.2895,1.3351,1.3821,1.4053,1.3975,1.3821,1.3513,1.312,1.3744,1.3898,1.3737,1.4661,1.4968,1.4968,1.4968,1.4968,1.4968,1.4968,1.4968,1.4984,1.5082,1.5114,1.5147,1.5325,1.539,1.5407,1.5488,1.5512,1.5512,1.5512,1.539,1.526,1.526,1.526,1.5236,1.5139,1.5114,1.5082,1.4984,1.4968,1.4968,1.4968,1.4968,1.4968,1.4968,1.4968,1.4968,1.4968,1.4968,1.4968,1.4968,1.4968,1.4968,1.4968,1.4968,1.4968,1.4968,1.4968,1.4968,1.4968,1.4968,1.4968,1.4968,1.4968,1.4968,1.4968,1.4968,1.542,1.6339,1.8678,2.0263,2.1164,2.35,2.4716,0.0,0.0,0.0,0.0,0.0,0.0,0.0,0.0,0.0,0.0,0.0,0.0,0.0,0.124,0.2912,0.6319,0.791,0.9435,1.1325,1.1619,1.1619,1.1619,1.1619,1.1619,1.1619,1.1619,1.1619,1.1619,1.1647,1.1714,1.1823,1.1898,1.2047,1.2284,1.2325,1.2393,1.2501,1.2501,1.2733,1.312,1.3428,1.3583,1.359,1.3274,1.3042,1.2965,1.3513,1.3667,1.3737,1.4661,1.4968,1.4968,1.4968,1.4968,1.4968,1.5017,1.5025,1.5057,1.5236,1.5301,1.5333,1.5512,1.5577,1.5585,1.5626,1.5642,1.5642,1.5642,1.5642,1.5626,1.5536,1.5512,1.548,1.5333,1.5301,1.5252,1.5065,1.5025,1.5017,1.4976,1.4968,1.4968,1.4968,1.4968,1.4968,1.4968,1.4968,1.4968,1.4968,1.4968,1.4968,1.4968,1.4968,1.4968,1.4968,1.4968,1.4968,1.4968,1.4968,1.4968,1.4968,1.4968,1.4968,1.4968,1.4968,1.5803,1.7407,1.8981,2.0447,2.1782,2.3366,2.4055,0.0,0.0,0.0,0.0,0.0,0.0,0.0,0.0,0.0,0.0,0.0,0.0,0.0,0.124,0.2839,0.596,0.6825,0.8203,1.1181,1.1619,1.1619,1.1619,1.1619,1.1619,1.1619,1.1619,1.1619,1.1619,1.1742,1.1823,1.183,1.2101,1.2271,1.2291,1.242,1.2488,1.2501,1.2501,1.2733,1.312,1.312,1.312,1.312,1.312,1.2888,1.2579,1.3351,1.3667,1.3737,1.4661,1.4968,1.4968,1.4968,1.4968,1.4984,1.5155,1.522,1.5244,1.5431,1.5496,1.5528,1.5699,1.5756,1.5788,1.5959,1.5925,1.5925,1.5925,1.5925,1.5853,1.5601,1.5512,1.5512,1.5496,1.5496,1.5447,1.526,1.522,1.5171,1.5,1.4968,1.4968,1.4968,1.4968,1.4968,1.4968,1.4968,1.4968,1.4968,1.4968,1.4968,1.4968,1.4968,1.4968,1.4968,1.4968,1.4968,1.4968,1.4968,1.4968,1.4968,1.4968,1.4968,1.4968,1.4968,1.5803,1.7407,1.8981,1.9919,2.0277,2.189,2.1954,0.0,0.0,0.0,0.0,0.0,0.0,0.0,0.0,0.0,0.0,0.0,0.0,0.0,0.0,0.255,0.5887,0.6753,0.8059,1.1181,1.1619,1.1619,1.1619,1.1619,1.1619,1.1619,1.1619,1.1619,1.1619,1.1748,1.187,1.1972,1.2176,1.2332,1.242,1.2474,1.2501,1.2501,1.2501,1.2579,1.2733,1.2733,1.2733,1.2733,1.2733,1.2656,1.2579,1.3351,1.3667,1.3737,1.4661,1.4968,1.4968,1.4968,1.5033,1.5147,1.5212,1.5309,1.5439,1.5618,1.5675,1.5707,1.5886,1.5943,1.5959,1.5942,1.5966,1.5966,1.5966,1.5966,1.5933,1.5878,1.5845,1.5821,1.5707,1.5675,1.5626,1.5447,1.5415,1.5358,1.5171,1.5139,1.5098,1.4984,1.4968,1.4968,1.4968,1.4968,1.4968,1.4968,1.4968,1.4968,1.4968,1.4968,1.4968,1.4968,1.4968,1.4968,1.4968,1.4968,1.4968,1.4968,1.4968,1.4968,1.4968,1.4968,1.5803,1.7407,1.8133,1.9075,2.0156,2.0847,2.1512,0.0,0.0,0.0,0.0,0.0,0.0,0.0,0.0,0.0,0.0,0.0,0.0073,0.0365,0.0,0.2333,0.5667,0.668,0.8059,1.1181,1.1619,1.1619,1.1619,1.1619,1.1619,1.1619,1.1619,1.164,1.1681,1.1823,1.1972,1.2128,1.2277,1.24,1.2501,1.2501,1.2501,1.2501,1.2501,1.2501,1.2501,1.2501,1.2501,1.2501,1.2501,1.2501,1.2579,1.3197,1.359,1.3744,1.4507,1.4814,1.4822,1.5033,1.5053,1.5017,1.5287,1.5488,1.5626,1.5796,1.5861,1.5878,1.6008,1.5966,1.5966,1.5966,1.5966,1.5966,1.5966,1.5966,1.5966,1.5966,1.5966,1.6016,1.5886,1.5861,1.5813,1.5634,1.5593,1.5545,1.5366,1.5325,1.5268,1.5082,1.5049,1.5033,1.4976,1.4968,1.4968,1.4968,1.4968,1.4968,1.4968,1.4968,1.4968,1.4968,1.4968,1.4968,1.4968,1.4968,1.4968,1.4968,1.4968,1.4968,1.4968,1.5025,1.5889,1.7501,1.77,1.8378,1.9528,1.9604,2.0116,0.0,0.0,0.0,0.0,0.0,0.0,0.0,0.0,0.0,0.0,0.0,0.0,0.0,0.0657,0.2187,0.5304,0.646,0.8059,1.1181,1.1619,1.1619,1.1619,1.1619,1.1619,1.1619,1.1619,1.1681,1.1823,1.1979,1.2128,1.2284,1.2427,1.2501,1.2501,1.2501,1.2501,1.2501,1.2501,1.2501,1.2501,1.2501,1.2501,1.2501,1.2501,1.2501,1.2501,1.2965,1.3351,1.3744,1.4207,1.4368,1.4461,1.5015,1.4923,1.4727,1.5481,1.5772,1.5804,1.5983,1.5966,1.5966,1.5966,1.5966,1.5966,1.5966,1.5966,1.5966,1.5966,1.5966,1.5966,1.5966,1.5966,1.5966,1.5966,1.5966,1.5999,1.5813,1.5772,1.5723,1.5553,1.552,1.5455,1.5277,1.5166,1.5179,1.4992,1.4968,1.4968,1.4968,1.4968,1.4968,1.4968,1.4968,1.4968,1.4968,1.4968,1.4968,1.4968,1.4968,1.4968,1.4968,1.4968,1.4968,1.4968,1.5147,1.6008,1.7709,1.7839,1.7967,1.8163,1.8163,1.7396,0.0,0.0,0.0,0.0,0.0,0.0,0.0,0.0,0.0,0.0,0.0,0.0,0.0,0.0657,0.2187,0.5304,0.646,0.8059,1.1181,1.1619,1.1619,1.1619,1.1619,1.1619,1.1619,1.1708,1.1782,1.183,1.2074,1.2244,1.2291,1.2427,1.2501,1.2501,1.2501,1.2501,1.2501,1.2501,1.2501,1.2501,1.2501,1.2501,1.2501,1.2501,1.2501,1.2501,1.2965,1.3351,1.3744,1.4207,1.4368,1.4384,1.4399,1.453,1.482,1.5207,1.5617,1.5975,1.6024,1.5966,1.5966,1.5966,1.5966,1.5966,1.5966,1.5966,1.5966,1.5966,1.5966,1.5966,1.5966,1.5966,1.5966,1.5966,1.5966,1.595,1.5975,1.5967,1.591,1.5731,1.5699,1.5642,1.5463,1.5431,1.5374,1.5187,1.5155,1.5114,1.4984,1.4968,1.4968,1.4968,1.4968,1.4968,1.4968,1.4968,1.4968,1.4968,1.509,1.5098,1.4968,1.4968,1.5025,1.5155,1.5212,1.5536,1.6134,1.6321,1.644,1.6491,1.6627,1.7039,0.0,0.0,0.0,0.0,0.0,0.0,0.0,0.0,0.0,0.0,0.0,0.0,0.0,0.0511,0.2041,0.5301,0.6319,0.7914,1.1109,1.1619,1.1619,1.1619,1.1619,1.1619,1.1619,1.1748,1.1857,1.1918,1.2149,1.2318,1.2372,1.2454,1.2501,1.2501,1.2501,1.2501,1.2501,1.2501,1.2501,1.2501,1.2501,1.2501,1.2501,1.2501,1.2501,1.2501,1.312,1.3351,1.3505,1.413,1.4253,1.3934,1.402,1.4351,1.4758,1.5089,1.5541,1.5966,1.5966,1.5966,1.5966,1.5966,1.5966,1.5966,1.5966,1.5966,1.5966,1.5966,1.5966,1.5966,1.5966,1.5966,1.5966,1.5966,1.5966,1.5966,1.5966,1.5966,1.6016,1.5902,1.5886,1.5821,1.565,1.5618,1.5553,1.5374,1.535,1.5309,1.5195,1.5122,1.5074,1.5074,1.5074,1.5074,1.5074,1.5139,1.5187,1.5187,1.5285,1.5301,1.5187,1.5187,1.5236,1.535,1.5415,1.5504,1.5618,1.5796,1.5886,1.5886,1.6639,1.7574,0.0,0.0,0.0,0.0,0.0,0.0,0.0,0.0,0.0,0.0,0.0,0.0,0.0,0.0365,0.1749,0.5229,0.6174,0.7625,1.1109,1.1619,1.1619,1.1619,1.1619,1.1626,1.164,1.1769,1.1918,1.2067,1.2223,1.2366,1.2494,1.2501,1.2501,1.2501,1.2501,1.2501,1.2501,1.2501,1.2501,1.2501,1.2501,1.2501,1.2501,1.2501,1.2501,1.2579,1.3274,1.3428,1.3127,1.3991,1.3934,1.3376,1.3865,1.4267,1.4586,1.5154,1.5628,1.5966,1.5966,1.5966,1.5966,1.5966,1.5966,1.5966,1.5966,1.5966,1.5966,1.5966,1.5966,1.5966,1.5966,1.5966,1.5966,1.5966,1.5966,1.5966,1.5966,1.5966,1.5966,1.5966,1.5966,1.5991,1.5829,1.5796,1.574,1.5569,1.5528,1.5512,1.5512,1.5366,1.526,1.526,1.526,1.526,1.526,1.5415,1.5512,1.5512,1.5528,1.5536,1.5536,1.5528,1.552,1.5536,1.5691,1.578,1.5796,1.5967,1.5966,1.6048,1.7819,1.8626,0.0,0.0,0.0,0.0,0.0,0.0,0.0,0.0,0.0,0.0,0.0,0.0,0.0,0.0365,0.1749,0.5229,0.6174,0.7625,1.1109,1.1619,1.1619,1.1619,1.1619,1.166,1.1775,1.1925,1.2074,1.223,1.2372,1.2467,1.2501,1.2501,1.2501,1.2501,1.2501,1.2501,1.2501,1.2501,1.2501,1.2501,1.2501,1.2501,1.2501,1.2501,1.2501,1.2501,1.3042,1.3197,1.3134,1.3418,1.3412,1.3311,1.3346,1.3877,1.4504,1.4743,1.5381,1.5966,1.5966,1.5966,1.5966,1.5966,1.5966,1.5966,1.5966,1.5966,1.5966,1.5966,1.5966,1.5966,1.5966,1.5966,1.5966,1.5966,1.5966,1.5966,1.5966,1.5966,1.5966,1.5966,1.5966,1.595,1.5991,1.5991,1.5926,1.5748,1.5601,1.5512,1.5512,1.548,1.5455,1.5455,1.5455,1.5455,1.5455,1.5496,1.5512,1.5512,1.5642,1.5715,1.5715,1.5585,1.5577,1.5715,1.5756,1.5845,1.5991,1.6024,1.5966,1.6048,1.7819,1.8626,0.0,0.0,0.0,0.0,0.0,0.0,0.0,0.0,0.0,0.0,0.0,0.0,0.0,0.0146,0.153,0.5229,0.5956,0.7404,1.1109,1.1619,1.1619,1.1619,1.1619,1.1674,1.1816,1.1972,1.2128,1.2277,1.242,1.2501,1.2501,1.2501,1.2501,1.2501,1.2501,1.2501,1.2501,1.2501,1.2501,1.2501,1.2501,1.2501,1.2501,1.2501,1.2501,1.2501,1.2965,1.2965,1.2824,1.3134,1.3246,1.3179,1.3408,1.3956,1.4601,1.493,1.5463,1.5966,1.5966,1.5966,1.5966,1.5966,1.5966,1.5966,1.5966,1.5966,1.5966,1.5966,1.5966,1.5966,1.5966,1.5966,1.5966,1.5966,1.5966,1.5966,1.5966,1.5966,1.5966,1.5966,1.5966,1.5966,1.5966,1.5966,1.6016,1.5918,1.5829,1.5772,1.5772,1.5691,1.5634,1.5634,1.5634,1.5634,1.5634,1.5723,1.5772,1.5772,1.5853,1.5902,1.5902,1.5821,1.5813,1.5902,1.5902,1.5951,1.5966,1.5966,1.6451,1.7255,1.9033,2.0322,0.0,0.0,0.0,0.0,0.0,0.0,0.0,0.0,0.0,0.0,0.0,0.0,0.0,0.0,0.1239,0.5156,0.5808,0.7187,1.1038,1.1619,1.1619,1.1619,1.164,1.1714,1.1857,1.2013,1.2162,1.2318,1.2433,1.2501,1.2501,1.2501,1.2501,1.2501,1.2501,1.2501,1.2501,1.2501,1.2501,1.2501,1.2501,1.2501,1.2501,1.2501,1.2501,1.2501,1.2888,1.2824,1.2556,1.3019,1.3179,1.309,1.3559,1.4109,1.4713,1.5133,1.5628,1.5966,1.5966,1.5966,1.5966,1.5966,1.5966,1.5966,1.5966,1.5966,1.5966,1.5966,1.5966,1.5966,1.5966,1.5966,1.5966,1.5966,1.5966,1.5966,1.5966,1.5966,1.5966,1.5966,1.5966,1.5966,1.5966,1.5966,1.5966,1.5966,1.5966,1.5966,1.5966,1.591,1.5821,1.5821,1.5821,1.5821,1.5821,1.5959,1.5966,1.5966,1.5966,1.5966,1.5966,1.5966,1.5966,1.5966,1.5966,1.5966,1.5966,1.5966,1.6936,1.8626,2.0403,2.2108,0.0,0.0,0.0,0.0,0.0,0.0,0.0,0.0,0.0,0.0,0.0,0.0,0.0,0.0,0.1239,0.5156,0.5808,0.7187,1.1038,1.1619,1.1619,1.1619,1.1728,1.1864,1.2013,1.2169,1.2318,1.2461,1.2488,1.2501,1.2501,1.2501,1.2501,1.2501,1.2501,1.2501,1.2501,1.2501,1.2501,1.2501,1.2501,1.2501,1.2501,1.2501,1.2501,1.2501,1.2579,1.2654,1.2712,1.2947,1.3097,1.3159,1.3391,1.3955,1.4713,1.4796,1.5298,1.5966,1.5966,1.5966,1.5966,1.5966,1.5966,1.5966,1.5966,1.5966,1.5966,1.5966,1.5966,1.5966,1.5966,1.5966,1.5966,1.5966,1.5966,1.5966,1.5966,1.5966,1.5966,1.5966,1.5966,1.5966,1.5966,1.5966,1.5966,1.5966,1.5966,1.5966,1.5966,1.5942,1.6008,1.6008,1.6008,1.6008,1.6008,1.595,1.5966,1.5966,1.5966,1.5966,1.5966,1.5966,1.5966,1.5966,1.5966,1.5966,1.5966,1.5966,1.6936,1.8626,2.0403,2.2108,0.0,0.0,0.0,0.0,0.0,0.0,0.0,0.0,0.0,0.0,0.0,0.0,0.0,0.0,0.1239,0.5156,0.5808,0.7187,1.1038,1.1619,1.1647,1.1728,1.1789,1.1925,1.2169,1.225,1.2345,1.2488,1.2501,1.2501,1.2501,1.2501,1.2501,1.2501,1.2501,1.2501,1.2501,1.2501,1.2501,1.2501,1.2501,1.2501,1.2501,1.2501,1.2501,1.2508,1.2589,1.2671,1.2745,1.2983,1.3119,1.3268,1.3672,1.4142,1.4713,1.4968,1.5463,1.5966,1.5966,1.5966,1.5966,1.5966,1.5966,1.5966,1.5966,1.5966,1.5966,1.5966,1.5966,1.5966,1.5966,1.5966,1.5966,1.5966,1.5966,1.5966,1.5966,1.5966,1.5966,1.5966,1.5966,1.5966,1.5966,1.5966,1.5966,1.5966,1.5966,1.5966,1.5966,1.5966,1.5966,1.5966,1.5966,1.5966,1.5966,1.5966,1.5966,1.5966,1.5966,1.5966,1.5966,1.5966,1.5966,1.5966,1.5966,1.5966,1.5966,1.5966,1.7419,2.0079,2.0818,2.2671,0.0,0.0,0.0,0.0,0.0,0.0,0.0,0.0,0.0,0.0,0.0,0.0,0.0,0.0,0.1239,0.5014,0.5736,0.7115,1.0894,1.1581,1.1714,1.1816,1.1898,1.204,1.2271,1.2325,1.2386,1.2494,1.2501,1.2501,1.2501,1.2501,1.2501,1.2501,1.2501,1.2501,1.2501,1.2501,1.2501,1.2501,1.2501,1.2501,1.2501,1.2501,1.2522,1.2569,1.2678,1.2752,1.2807,1.3064,1.3193,1.3323,1.3769,1.4225,1.4713,1.5133,1.5546,1.5966,1.5966,1.5966,1.5966,1.5966,1.5966,1.5966,1.5966,1.5966,1.5966,1.5966,1.5966,1.5966,1.5966,1.5966,1.5966,1.5966,1.5966,1.5966,1.5966,1.5966,1.5966,1.5966,1.5966,1.5966,1.5966,1.5966,1.5966,1.5966,1.5966,1.5966,1.5966,1.5966,1.5966,1.5966,1.5966,1.5966,1.5966,1.5966,1.5966,1.5966,1.5966,1.5966,1.5966,1.5966,1.5966,1.5966,1.5966,1.5966,1.5966,1.5966,1.7583,2.0575,2.098,2.2831,0.0,0.0,0.0,0.0,0.0,0.0,0.0,0.0,0.0,0.0,0.0,0.0,0.0,0.0,0.1166,0.4654,0.5522,0.7042,1.0534,1.1444,1.1823,1.183,1.2088,1.2271,1.2291,1.2413,1.2494,1.2501,1.2501,1.2501,1.2501,1.2501,1.2501,1.2501,1.2501,1.2501,1.2501,1.2501,1.2501,1.2501,1.2501,1.2501,1.2501,1.2501,1.2583,1.2718,1.2725,1.2813,1.2963,1.3112,1.3261,1.339,1.3397,1.3976,1.4713,1.4713,1.5298,1.5966,1.5966,1.5966,1.5966,1.5966,1.5966,1.5966,1.5966,1.5966,1.5966,1.5966,1.5966,1.5966,1.5966,1.5966,1.5966,1.5966,1.5966,1.5966,1.5966,1.5966,1.5966,1.5966,1.5966,1.5966,1.5966,1.5966,1.5966,1.5966,1.5966,1.5966,1.5966,1.5966,1.5966,1.5966,1.5966,1.5966,1.5966,1.5966,1.5966,1.5966,1.5966,1.5966,1.5966,1.5966,1.5966,1.5966,1.5966,1.5966,1.5966,1.5966,1.6936,1.8789,2.0403,2.2189,0.0,0.0,0.0,0.0,0.0,0.0,0.0,0.0,0.0,0.0,0.0,0.0,0.0,0.0,0.1166,0.4654,0.5522,0.7063,1.0644,1.1504,1.1904,1.2101,1.2223,1.2325,1.242,1.2474,1.2501,1.2501,1.2501,1.2501,1.2501,1.2501,1.2501,1.2501,1.2501,1.2501,1.2501,1.2501,1.2501,1.2501,1.2501,1.2501,1.2508,1.2603,1.2678,1.2739,1.2929,1.3044,1.3112,1.3254,1.3349,1.3403,1.3403,1.3735,1.4307,1.4631,1.5133,1.5628,1.5875,1.5966,1.5966,1.5966,1.5966,1.5966,1.5966,1.5966,1.5966,1.5966,1.5966,1.5966,1.5966,1.5966,1.5966,1.5966,1.5966,1.5966,1.5966,1.5966,1.5966,1.5966,1.5966,1.5966,1.5966,1.5966,1.5966,1.5966,1.5966,1.5966,1.5966,1.5966,1.5966,1.5966,1.5966,1.5966,1.5966,1.5966,1.5966,1.5966,1.5966,1.5966,1.5966,1.5966,1.5966,1.5966,1.7091,1.7091,1.5966,1.5966,1.7501,2.0241,2.0899,2.2751,0.0,0.0,0.0,0.0,0.0,0.0,0.0,0.0,0.0,0.0,0.0,0.0,0.0,0.0,0.1101,0.4538,0.5411,0.697,1.0632,1.1508,1.1911,1.2264,1.2332,1.24,1.2494,1.2501,1.2501,1.2501,1.2501,1.2501,1.2501,1.2501,1.2501,1.2501,1.2501,1.2501,1.2501,1.2501,1.2501,1.2501,1.2501,1.2528,1.2583,1.2684,1.2786,1.2888,1.3085,1.3173,1.3186,1.3336,1.3403,1.3403,1.3403,1.3652,1.4149,1.4555,1.4968,1.5463,1.5875,1.5966,1.5966,1.5966,1.5966,1.5966,1.5966,1.5966,1.5966,1.5966,1.5966,1.5966,1.5966,1.5966,1.5966,1.5966,1.5966,1.5966,1.5966,1.5966,1.5966,1.5966,1.5966,1.5966,1.5966,1.5966,1.5966,1.5966,1.5966,1.5966,1.5966,1.5966,1.5966,1.5966,1.5966,1.5966,1.5966,1.5966,1.5966,1.5966,1.5966,1.5966,1.5966,1.5966,1.5966,1.5966,1.7173,1.7419,1.6854,1.7419,1.8961,2.1222,2.1222,2.2475,0.0,0.0,0.0,0.0,0.0,0.0,0.0,0.0,0.0,0.0,0.0,0.0,0.0,0.0,0.1041,0.4302,0.5114,0.6693,1.0398,1.1365,1.1835,1.2298,1.242,1.2501,1.2501,1.2501,1.2501,1.2501,1.2501,1.2501,1.2501,1.2501,1.2501,1.2501,1.2501,1.2501,1.2501,1.2501,1.2501,1.2501,1.2508,1.2583,1.2732,1.2739,1.2901,1.3173,1.318,1.318,1.3193,1.3342,1.3403,1.3403,1.3403,1.3652,1.4149,1.4555,1.4961,1.5463,1.5883,1.5966,1.5966,1.5966,1.5966,1.5966,1.5966,1.5966,1.5966,1.5966,1.5966,1.5966,1.5966,1.5966,1.5966,1.5966,1.5966,1.5966,1.5966,1.5966,1.5966,1.5966,1.5966,1.5966,1.5966,1.5966,1.5966,1.5966,1.5966,1.5966,1.5966,1.5966,1.5966,1.5966,1.5966,1.5966,1.5966,1.5966,1.5966,1.5966,1.5966,1.5966,1.5966,1.6048,1.5974,1.5974,1.6056,1.6953,1.8645,2.0251,2.1141,2.1233,2.1233,2.1281,0.0,0.0,0.0,0.0,0.0,0.0,0.0,0.0,0.0,0.0,0.0,0.0,0.0,0.0,0.1058,0.4411,0.5211,0.6706,1.0533,1.1428,1.1867,1.2357,1.2474,1.2501,1.2501,1.2501,1.2501,0.0,1.2501,1.2501,1.2501,1.2501,1.2501,1.2501,1.2501,1.2501,1.2501,1.2501,1.2501,1.2501,1.2617,1.2691,1.2739,1.2956,1.3091,1.318,1.3288,1.3336,1.3342,1.3383,1.3403,1.3403,1.3403,1.3486,1.3652,1.4066,1.4555,1.4961,1.5381,1.5793,1.5966,1.5966,1.5966,1.5966,1.5966,1.5966,1.5966,1.5966,1.5966,1.5966,1.5966,1.5966,1.5966,1.5966,1.5966,1.5966,1.5966,1.5966,1.5966,1.5966,1.5966,1.5966,1.5966,1.5966,1.5966,1.5966,1.5966,1.5966,1.5966,1.5966,1.5966,1.5966,1.5966,1.5966,1.5966,1.5966,1.5966,1.5966,1.5966,1.5966,1.5966,1.6162,1.6235,1.6235,1.7605,1.8513,1.9006,1.7964,1.8793,2.1409,2.157,2.1688,0.0,0.0,0.0,0.0,0.0,0.0,0.0,0.0,0.0,0.0,0.0,0.0,0.0,0.0534,0.1914,0.4565,0.5852,0.7599,1.075,1.1382,1.1792,1.2417,1.2501,1.2501,1.2501,1.2501,1.2501,1.2501,1.2501,1.2501,1.2501,1.2501,1.2501,1.2501,1.2501,1.2501,1.2501,1.2501,1.2501,1.2501,1.2657,1.2766,1.2834,1.3064,1.3207,1.3275,1.3363,1.3403,1.3403,1.3403,1.3403,1.3403,1.3403,1.3403,1.3486,1.3901,1.4307,1.4796,1.5216,1.5628,1.5966,1.5966,1.5966,1.5966,1.5966,1.5966,1.5966,1.5966,1.5966,1.5966,1.5966,1.5966,1.5966,1.5966,1.5966,1.5966,1.5966,1.5966,1.5966,1.5966,1.5966,1.5966,1.5966,1.5966,1.5966,1.5966,1.5966,1.5966,1.5966,1.5966,1.5966,1.5966,1.5966,1.5966,1.5966,1.6113,1.6154,1.6154,1.6227,1.6267,1.6267,1.6365,1.6422,1.6422,1.7526,1.8095,1.8095,1.8356,1.9123,2.0578,2.0627,2.0393,0.0,0.0,0.0,0.0,0.0,0.0,0.0,0.0,0.0,0.0,0.0,0.0,0.0,0.1236,0.2788,0.4459,0.6495,0.8604,1.0946,1.134,1.165,1.2424,1.2501,1.2501,1.2501,1.2501,1.2501,1.2501,1.2501,1.2501,1.2501,1.2501,1.2501,1.2501,1.2501,1.2501,1.2501,1.2501,1.2508,1.2528,1.2684,1.2834,1.307,1.3132,1.3275,1.3403,1.3403,1.3403,1.3403,1.3403,1.3403,1.3403,1.3403,1.3403,1.3486,1.3901,1.4307,1.4713,1.5133,1.5628,1.5966,1.5966,1.5966,1.5966,1.5966,1.5966,1.5966,1.5966,1.5966,1.5966,1.5966,1.5966,1.5966,1.5966,1.5966,1.5966,1.5966,1.5966,1.5966,1.5966,1.5966,1.5966,1.5966,1.5966,1.5966,1.5966,1.5966,1.5966,1.5966,1.5982,1.599,1.599,1.6006,1.6105,1.6105,1.6243,1.6332,1.6332,1.6487,1.6584,1.6584,1.66,1.6609,1.6609,1.6625,1.6641,1.6641,1.9972,2.0635,1.8968,1.8987,1.8169,0.0,0.0,0.0,0.0,0.0,0.0,0.0,0.0,0.0,0.0,0.0,0.0,0.0,0.0235,0.1018,0.2742,0.4696,0.7275,1.0791,1.1572,1.196,1.2424,1.2501,1.2501,1.2501,1.2501,1.2501,1.2501,1.2501,1.2501,1.2501,1.2501,1.2501,1.2501,1.2501,1.2501,1.2501,1.2501,1.2562,1.2684,1.284,1.299,1.3139,1.3288,1.337,1.3403,1.3403,1.3403,1.3403,1.3403,1.3403,1.3403,1.3403,1.3403,1.3403,1.3486,1.3818,1.4315,1.4721,1.5133,1.5546,1.5883,1.5966,1.5966,1.5966,1.5966,1.5966,1.5966,1.5966,1.5966,1.5966,1.5966,1.5966,1.5966,1.5966,1.5966,1.5966,1.5966,1.5966,1.5966,1.5966,1.5966,1.5966,1.5966,1.5966,1.5966,1.5966,1.5966,1.5966,1.617,1.6251,1.6251,1.6389,1.6479,1.6479,1.6511,1.6527,1.6527,1.656,1.6584,1.6584,1.6722,1.6803,1.6803,1.6933,1.7006,1.7006,1.8904,1.9002,1.7226,1.7454,1.7372,0.0,0.0,0.0,0.0,0.0,0.0,0.0,0.0,0.0,0.0,0.0,0.0,0.0,0.0706,0.1803,0.3447,0.5711,0.8054,1.0635,1.1495,1.2037,1.2424,1.2501,1.2501,1.2501,1.2501,1.2501,1.2501,1.2501,1.2501,1.2501,1.2501,1.2501,1.2501,1.2501,1.2501,1.2501,1.2576,1.2657,1.2732,1.2956,1.3105,1.318,1.3329,1.3403,1.3403,1.3403,1.3403,1.3403,1.3403,1.3403,1.3403,1.3403,1.3403,1.3403,1.3403,1.3735,1.4149,1.4555,1.5051,1.5463,1.5883,1.5966,1.5966,1.5966,1.5966,1.5966,1.5793,1.5883,1.5966,1.5966,1.5966,1.5966,1.5966,1.5966,1.5966,1.5966,1.5966,1.5966,1.5966,1.6113,1.6146,1.6064,1.5966,1.599,1.6162,1.6178,1.6211,1.63,1.6389,1.6438,1.6438,1.6527,1.6584,1.6584,1.6665,1.6714,1.6714,1.6795,1.6844,1.6844,1.6933,1.6982,1.6982,1.7063,1.7024,1.6753,1.753,1.7575,1.6982,1.7071,1.6936,0.0,0.0,0.0,0.0,0.0,0.0,0.0,0.0,0.0,0.0,0.0,0.0,0.0,0.0,0.0,0.3827,0.0,0.0,0.0,1.0695,0.0,1.2347,1.2424,1.2501,1.2501,1.2501,1.2501,1.2501,1.2501,1.2501,1.2501,1.2501,1.2501,1.2501,1.2501,1.2515,1.2549,1.2671,1.2759,1.282,1.3057,1.3186,1.322,1.3342,1.3403,1.3403,1.3403,1.3403,1.3403,1.3403,1.3403,1.3403,1.3403,1.3403,1.3403,1.3403,1.3652,1.3983,1.4473,1.4803,1.5216,1.5628,1.5711,1.5711,1.5711,1.5793,1.5801,1.5463,1.5628,1.5883,1.5966,1.5966,1.5883,1.5966,1.5966,1.5974,1.6089,1.6097,1.6105,1.6146,1.6259,1.63,1.6121,1.6121,1.6194,1.6332,1.6357,1.6414,1.656,1.6609,1.6633,1.6633,1.6665,1.6682,1.6682,1.682,1.6901,1.6901,1.7031,1.7112,1.7112,1.7024,1.6936,1.6936,1.6849,1.6665,1.6313,1.6313,1.6489,1.6849,1.6849,1.6673,0.0,0.0,0.0,0.0,0.0,0.0,0.0,0.0,0.0,0.0,0.0,0.0,0.0,0.0,0.0,0.0,0.0,0.0,0.6473,0.8461,1.0236,1.1798,1.2269,1.2501,1.2501,1.2501,1.2501,1.2501,1.2501,1.2501,1.2501,1.2501,1.2501,1.2501,1.2501,1.2569,1.2705,1.2718,1.2861,1.3125,1.3159,1.3241,1.3376,1.339,1.3403,1.3403,1.3403,1.3403,1.3403,1.3403,1.3403,1.3403,1.3403,1.3403,1.3403,1.3403,1.3403,1.3569,1.3983,1.4232,1.4315,1.4721,1.4878,1.4878,1.4878,1.5133,1.5463,1.5381,1.5463,1.5546,1.5883,1.5711,1.5546,1.5883,1.5966,1.6089,1.6243,1.6276,1.6324,1.6487,1.6535,1.6487,1.6308,1.6405,1.6527,1.6544,1.6552,1.656,1.6576,1.6722,1.682,1.682,1.6958,1.7047,1.7047,1.7071,1.708,1.708,1.7096,1.7112,1.7112,1.6665,1.6489,1.6489,1.6057,1.5793,1.5793,1.5793,1.5793,1.5881,1.5881,1.5793,0.0,0.0,0.0,0.0,0.0,0.0,0.0,0.0,0.0,0.0,0.0,0.0,0.0,0.0,0.0,0.0,0.3199,0.0,0.0,0.0,1.0075,1.203,0.0,0.0,1.2501,1.2501,1.2501,1.2501,1.2501,1.2501,1.2501,1.2501,1.2501,1.2501,1.2501,1.2576,1.2725,1.282,1.2969,1.3173,1.3261,1.3342,1.3403,1.3403,1.3403,1.3403,1.3403,1.3403,1.3403,1.3403,1.3403,1.3403,1.3403,1.3403,1.3403,1.3403,1.3403,1.3486,1.3901,1.4066,1.4149,1.4548,1.4713,1.4631,1.439,1.4638,1.4968,1.4721,1.4968,1.5463,1.5628,1.5711,1.5825,1.6087,1.6194,1.6243,1.6422,1.6462,1.6487,1.6568,1.6665,1.6714,1.6633,1.66,1.6617,1.6722,1.6738,1.6771,1.6877,1.6958,1.7006,1.7006,1.7071,1.7112,1.7112,1.7112,1.7024,1.6665,1.6409,1.6321,1.6321,1.6145,1.5969,1.5969,1.5793,1.5528,1.5264,1.5264,1.5175,1.4918,1.544,1.5528,0.1638,0.0,0.0,0.0,0.0,0.1099,0.0236,0.0392,0.0549,0.0079,0.0,0.0,0.0,0.0,0.0,0.0,0.0,0.5549,0.0,0.8736,0.0,0.0,0.0,0.0,0.0,1.2501,1.2501,1.2501,1.2501,1.2501,1.2501,1.2501,1.2501,1.2501,1.2542,1.2637,1.2793,1.2942,1.3091,1.3234,1.3349,1.3403,1.3403,1.3403,1.3403,1.3403,1.3403,1.3403,1.3403,1.3403,1.3403,1.3403,1.3403,1.3403,1.3403,1.3403,1.3403,1.3486,1.3818,1.3901,1.3983,1.4225,1.43,1.4307,1.3983,1.4225,1.4473,1.4149,1.4645,1.5224,1.5443,1.5707,1.5996,1.6341,1.6381,1.643,1.6617,1.6657,1.6665,1.6714,1.6836,1.6838,1.6838,1.6812,1.6771,1.6901,1.6838,1.6966,1.7096,1.7112,1.7112,1.7112,1.7112,1.7024,1.6936,1.6936,1.6665,1.6225,1.5881,1.5704,1.5704,1.5616,1.5528,1.5528,1.5352,1.5175,1.4822,1.4822,1.4646,1.4299,1.5006,1.5087,0.0,0.0,0.0,0.282,0.0,0.0,0.0,0.0,0.196,0.0,0.0,0.0,0.0,0.0,0.0,0.0,0.0,0.0,0.0,0.0,0.0,0.0,0.0,0.0,0.0,1.2501,1.2501,1.2501,1.2501,1.2501,1.2501,1.2501,1.2501,1.2501,1.2644,1.28,1.2949,1.3098,1.3241,1.3397,1.3397,1.3403,1.3403,1.3403,1.3403,1.3403,1.3403,1.3403,1.3403,1.3403,1.3403,1.3403,1.3403,1.3403,1.3403,1.3403,1.3403,1.3403,1.3403,1.3403,1.3403,1.3403,1.3403,1.3403,1.3403,1.3735,1.4149,1.4066,1.439,1.4833,1.5424,1.5638,1.5853,1.6442,1.6568,1.6625,1.6717,1.6758,1.6806,1.7063,1.7096,1.7104,1.7104,1.7096,1.7096,1.7104,1.7104,1.7104,1.7112,1.7112,1.7112,1.7112,1.7112,1.6936,1.6489,1.6401,1.6225,1.5793,1.5704,1.5704,1.5704,1.5264,1.4992,1.4992,1.4557,1.4299,1.4299,1.4299,1.4299,1.4299,1.4299,1.4299,0.0,0.0,0.4936,0.462,0.0,0.0,0.0,0.0,0.0,0.0,0.0,0.0,0.0,0.0,0.0,0.0,0.0,0.0,0.0,0.0,0.0,0.0,0.0,0.0,0.0,0.0,1.2501,1.2501,1.2501,1.2501,1.2501,1.2501,1.2501,1.2501,1.2651,1.2807,1.3043,1.3105,1.3247,1.3403,1.3403,1.3403,1.3403,1.3403,1.3403,1.3403,1.3403,1.3403,1.3403,1.3403,1.3403,1.3403,1.3403,1.3403,1.3403,1.3403,1.3403,1.3403,1.3403,1.3403,1.3403,1.3403,1.3403,1.3403,1.3403,1.3486,1.3652,1.3652,1.4221,1.4892,1.4784,1.5471,1.6281,1.6285,1.6497,1.6812,1.699,1.7023,1.7039,1.7096,1.7112,1.7112,1.7112,1.7112,1.7112,1.7112,1.7112,1.7112,1.7112,1.7112,1.7112,1.7112,1.6841,1.6577,1.6401,1.5873,1.5433,1.5264,1.4911,1.4741,1.4741,1.4653,1.4557,1.4557,1.4387,1.4299,1.4299,1.4299,1.4299,1.4299,1.4299,1.4299,0.703,0.6811,0.0,0.6573,0.6963,0.0,0.6492,0.0,0.6648,0.0,0.0,0.0,0.0,0.0,0.0,0.0,0.0,0.0,0.0,1.094,0.0,0.0,0.0,0.0,0.0,1.2501,1.2501,1.2501,1.2501,1.2501,0.0,1.2501,1.2528,1.2583,1.2732,1.2881,1.3037,1.318,1.3302,1.3403,1.3403,1.3403,1.3403,1.3403,1.3403,1.3403,1.3403,1.3403,1.3403,1.3403,1.3403,1.3403,1.3403,1.3403,1.3403,1.3403,1.3403,1.3403,1.3403,1.3403,1.3403,1.3403,1.3403,1.3403,1.3403,1.3437,1.3555,1.4149,1.4543,1.4887,1.521,1.5848,1.6371,1.6199,1.6594,1.6974,1.7088,1.7112,1.7112,1.7112,1.7112,1.7112,1.7112,1.6936,1.6936,1.7112,1.6936,1.6841,1.6841,1.6673,1.6585,1.6585,1.6321,1.6049,1.5961,1.5168,1.4734,1.4734,1.4476,1.4299,1.4299,1.4299,1.4326,1.4373,1.4326,1.4326,1.4373,1.4326,1.4299,1.4299,1.4299,1.4299]}]]